GFSSGP_850_thetae_024.txt.gz
Theta_e
320 311 312 325 323 323 325 328 327 329 334 336 331 332 332 332 333 334 336 337 327 327 325 326 325 323 320 319 320 320 319 318 318 318 317 317 316 315 314 314 315 313 310 310 312 311 311 311 313
319 317 325 327 324 328 327 325 327 335 336 336 335 333 336 337 336 336 336 338 330 326 325 325 324 322 320 320 320 320 319 318 318 318 318 318 317 316 315 315 317 318 318 316 314 315 312 312 312
318 321 322 323 327 328 328 329 334 336 337 335 335 335 334 337 336 336 336 336 333 328 326 325 324 323 320 320 321 320 319 319 319 319 319 319 319 318 317 316 318 320 321 321 322 324 322 323 321
314 320 324 323 329 329 330 331 335 336 336 336 334 332 332 337 338 337 335 334 333 331 328 326 325 323 320 320 321 320 320 319 319 320 320 320 320 320 319 317 317 320 323 324 324 323 324 327 326
321 325 319 323 326 328 330 330 330 335 335 335 334 333 333 333 333 333 332 332 332 332 332 329 326 324 322 320 321 320 320 319 320 320 320 320 321 321 320 318 317 318 323 328 328 330 333 332 331
323 321 322 324 325 327 327 329 330 336 336 336 334 333 333 333 332 332 333 332 331 332 334 333 329 326 325 320 320 320 319 319 320 320 320 321 321 321 321 320 318 320 322 324 327 326 323 322 323
321 317 321 324 326 327 328 330 329 333 330 331 332 331 333 333 332 331 331 332 332 332 335 336 335 329 326 322 320 320 320 320 320 320 320 321 321 321 321 321 320 321 325 326 327 327 326 324 321
323 317 321 321 324 326 329 329 330 330 329 331 331 331 332 332 332 332 332 332 332 333 335 336 336 335 327 325 320 320 320 320 320 320 320 320 320 320 320 321 321 323 326 327 328 328 328 325 322
324 319 318 321 324 325 327 330 332 330 330 331 332 332 332 331 332 332 332 332 331 332 333 334 335 336 334 327 324 320 320 320 319 319 319 319 320 320 320 321 322 323 327 329 329 329 326 320 317
329 324 320 320 322 323 323 326 330 327 329 330 332 332 331 331 331 331 330 330 330 330 331 332 333 335 336 330 327 322 320 320 320 319 319 319 320 320 321 321 324 325 329 331 330 329 328 327 327
331 331 325 323 324 324 323 324 325 325 326 329 331 330 330 330 330 331 331 331 330 330 330 330 330 333 335 335 331 326 322 321 321 320 320 320 320 321 322 322 325 326 330 332 331 330 329 328 328
328 330 332 332 330 327 324 324 324 325 326 328 329 329 330 329 328 329 330 330 330 330 330 330 329 332 334 335 335 334 327 323 322 321 321 320 320 321 322 323 326 326 330 333 331 330 330 329 328
318 326 326 327 328 328 327 326 325 326 326 327 329 329 328 327 327 327 327 329 330 330 330 330 329 329 331 334 336 336 336 330 327 325 321 321 321 322 322 324 327 327 332 332 333 331 330 329 328
316 318 323 324 324 324 325 326 327 327 328 328 327 327 327 327 327 328 328 328 328 330 330 329 329 328 330 332 335 336 336 336 334 330 322 321 325 324 323 329 329 330 333 335 334 331 330 330 329
315 315 316 317 320 323 324 324 325 326 326 326 326 327 327 327 328 328 328 328 329 329 329 329 328 327 328 330 332 335 337 337 337 336 334 335 337 331 335 333 331 331 335 334 333 332 330 330 330
317 316 317 318 318 319 323 326 326 326 326 325 326 326 327 327 328 328 328 328 328 329 329 329 328 327 329 329 331 333 337 337 338 338 337 340 339 337 336 334 332 332 333 333 332 331 332 331 330
315 318 317 318 319 320 321 323 324 326 326 326 326 327 327 328 328 328 328 328 328 329 329 328 327 327 328 328 331 333 337 338 340 339 340 341 339 338 335 333 333 332 330 331 330 331 331 331 329
316 318 318 318 319 320 321 321 322 323 323 324 324 325 326 326 327 328 328 329 328 328 328 328 327 328 330 329 330 336 340 342 340 341 343 340 338 335 333 333 333 330 333 332 330 329 329 328 327
316 318 319 319 319 320 321 322 322 322 324 323 325 325 326 326 327 327 328 329 328 328 329 328 327 328 329 329 332 339 342 342 342 342 341 337 335 333 333 334 333 332 332 330 329 328 327 327 327
313 315 316 316 317 320 320 321 322 322 323 324 324 324 325 326 327 327 329 329 328 328 327 327 328 327 328 330 335 341 343 343 341 340 337 335 332 334 333 333 334 330 331 330 327 326 326 326 327
314 314 315 316 316 316 317 318 319 320 320 321 322 323 325 327 326 327 328 329 328 328 327 327 328 328 331 332 337 342 343 343 342 340 338 335 333 333 333 333 331 330 330 328 326 325 325 325 326
313 314 315 315 316 317 317 318 318 319 319 320 321 323 324 325 325 326 327 327 327 327 329 329 330 333 337 338 341 344 343 342 342 341 338 333 333 333 333 333 332 328 326 325 325 324 325 325 324
312 315 315 316 316 315 316 317 318 319 320 320 320 323 325 325 325 326 327 327 326 328 329 332 335 337 342 344 345 345 343 342 341 333 334 332 332 333 333 331 330 326 325 324 323 324 324 323 323
310 314 314 315 314 315 316 316 317 317 319 320 320 323 324 325 326 326 326 326 329 332 333 335 336 344 346 346 344 342 342 338 334 333 334 333 333 332 331 331 329 326 325 323 323 323 323 324 323
308 309 311 314 315 317 316 316 318 317 318 319 320 321 323 323 326 329 328 331 334 335 336 335 340 344 344 343 342 340 336 334 333 334 333 331 331 330 330 327 325 325 325 325 324 325 325 325 324
306 307 311 314 317 316 316 317 317 317 318 319 320 322 324 329 332 333 335 336 336 337 337 340 343 344 343 340 337 333 333 333 333 332 331 331 330 330 327 325 326 324 324 324 325 325 325 325 325
310 307 308 311 313 315 317 317 317 317 318 318 319 325 332 335 336 337 337 338 338 338 338 340 342 341 337 335 333 334 334 333 332 331 329 329 327 327 325 325 324 325 326 325 326 326 324 325 324
311 312 310 309 313 314 317 318 318 320 319 320 319 330 335 337 338 338 339 338 338 339 339 340 340 337 335 333 333 333 331 329 330 332 331 327 326 325 325 325 325 326 326 326 326 326 326 325 323
310 310 309 310 311 315 317 318 316 318 319 322 320 333 336 338 338 338 338 338 338 337 336 337 335 334 333 332 332 330 330 328 330 327 328 328 327 326 326 328 328 328 327 326 325 325 325 324 324
310 311 312 311 310 313 316 317 318 318 319 321 331 335 336 337 337 338 338 338 336 335 336 335 334 333 332 332 329 328 328 329 329 329 328 327 327 325 327 328 328 328 327 327 328 325 324 325 326

GFSSGP_850_thetae_027.txt.gz
Theta_e
319 313 311 323 322 322 324 324 325 328 333 334 331 329 331 333 333 331 332 330 329 327 327 325 324 322 320 319 320 320 320 320 319 319 318 318 318 317 315 315 315 316 315 312 311 311 311 310 311
319 312 322 327 322 325 323 324 325 328 335 335 333 334 335 335 335 335 332 330 327 327 326 325 324 323 321 319 321 321 320 320 319 319 319 319 319 318 317 316 316 317 318 318 317 315 314 312 311
318 320 322 322 324 325 325 326 328 334 334 335 334 334 335 336 335 335 335 333 328 327 326 325 325 324 322 320 321 321 320 320 320 319 320 320 320 319 319 318 317 318 319 320 320 321 322 321 322
317 319 322 322 325 326 326 328 330 330 330 335 334 329 335 335 335 335 336 336 332 330 326 325 325 324 322 320 321 321 320 320 320 320 320 320 321 320 320 320 318 317 320 322 323 322 322 324 324
315 323 318 321 323 326 328 328 327 327 333 335 333 331 333 337 336 335 332 331 332 331 328 326 325 324 323 321 320 321 321 320 320 320 320 320 321 321 320 320 319 318 320 324 326 327 328 330 333
322 320 320 321 322 324 326 328 327 332 335 335 334 331 333 335 334 332 332 332 332 332 331 332 328 325 324 322 320 321 321 320 320 320 320 320 321 321 321 321 320 319 321 323 324 325 324 323 322
319 317 320 322 325 326 327 328 328 328 328 330 332 331 332 332 332 332 332 333 332 333 333 333 332 329 325 324 321 320 321 320 319 319 319 320 321 321 321 321 321 320 322 324 325 326 327 327 326
322 316 320 320 323 324 327 329 329 329 328 330 333 331 332 332 332 333 333 333 333 332 332 334 333 333 330 325 323 320 320 320 319 319 319 319 320 321 321 321 321 321 323 325 326 326 327 326 324
322 317 318 320 322 324 326 328 329 329 330 329 330 332 332 332 332 333 334 332 333 333 334 334 334 335 334 331 326 322 319 319 319 318 318 318 319 320 320 320 321 322 323 325 328 328 328 327 326
323 317 318 318 320 322 322 323 327 329 329 329 328 329 331 330 330 332 332 332 332 332 330 332 334 334 334 334 331 325 322 320 319 319 318 318 318 319 320 320 320 322 323 326 329 330 329 327 327
328 329 321 320 320 321 324 324 324 323 324 325 327 327 328 328 329 330 330 331 331 330 330 330 331 332 333 334 334 330 326 323 321 320 319 318 318 319 319 320 321 322 324 324 328 330 329 328 328
329 328 329 328 325 328 327 327 326 324 324 324 325 326 327 328 329 327 327 327 329 329 330 330 329 330 330 332 334 334 330 327 324 321 320 319 318 319 319 320 322 323 325 324 328 330 329 329 328
318 324 328 329 329 330 331 331 330 328 327 327 327 327 327 328 327 327 327 327 327 328 329 329 329 329 330 331 332 333 334 332 327 326 322 320 320 319 319 320 321 323 326 325 328 330 332 331 329
315 318 319 321 324 324 324 324 324 325 326 326 326 327 327 327 327 327 327 327 328 328 328 328 329 329 329 329 329 329 333 335 331 327 328 322 320 320 320 321 322 324 328 327 330 333 333 330 330
314 313 315 316 316 318 322 323 323 324 324 325 325 325 325 326 326 326 326 327 327 327 328 328 329 329 329 329 328 329 331 334 335 333 331 326 322 321 321 322 323 330 329 329 333 333 333 331 330
315 313 314 316 316 317 319 323 323 324 325 324 324 325 326 326 327 327 327 327 327 328 328 328 328 329 329 328 328 329 330 333 334 334 336 333 326 322 323 328 332 333 330 331 333 333 332 329 330
313 317 316 316 317 318 318 322 322 322 323 324 325 325 326 326 326 327 327 327 327 327 328 328 328 329 329 327 328 329 331 333 335 335 337 336 334 336 333 334 336 332 332 332 333 331 330 330 329
316 316 318 317 316 318 318 319 320 322 322 322 322 323 323 323 324 325 326 327 327 327 327 328 329 328 327 327 328 331 332 334 336 337 339 339 337 340 336 336 335 332 333 330 329 328 330 328 327
312 314 316 317 316 318 318 318 319 319 320 320 321 322 322 323 325 326 325 326 327 326 328 329 328 328 327 327 329 332 332 335 337 340 340 339 341 339 337 335 334 333 332 331 331 330 328 326 326
310 311 313 314 315 316 317 318 318 318 319 320 321 321 322 323 324 324 324 327 327 328 328 328 328 328 327 328 330 333 333 337 340 341 341 342 339 338 334 332 333 333 332 330 330 330 327 326 326
310 312 313 314 315 315 314 316 315 316 318 319 320 321 322 323 322 322 324 324 325 326 328 328 328 327 327 328 332 334 337 341 342 342 342 340 337 335 332 333 333 333 331 330 329 327 326 325 325
309 311 313 314 314 315 314 316 315 316 315 316 318 319 320 320 321 322 323 326 326 326 328 327 327 326 328 329 334 336 338 342 342 341 340 337 334 332 333 333 333 332 331 326 326 325 324 324 325
309 310 312 313 313 313 314 314 315 314 315 316 316 318 319 320 321 322 323 325 325 325 326 327 327 329 330 333 339 340 341 342 341 340 338 335 333 333 333 334 333 332 329 325 324 323 323 324 324
309 311 310 311 311 313 314 314 315 315 315 316 316 319 320 321 323 323 322 324 325 326 326 329 331 333 336 339 342 343 343 342 341 339 336 334 332 333 333 334 331 330 326 324 323 323 323 323 323
308 306 309 312 313 315 314 315 315 315 315 315 316 318 320 321 321 322 323 326 329 329 333 335 338 338 340 344 345 344 343 342 341 335 332 333 333 333 332 330 329 326 325 324 323 324 324 324 324
305 305 308 313 315 314 314 315 315 314 315 316 317 317 318 319 320 321 328 332 332 337 338 339 341 341 344 344 343 342 341 338 334 332 333 333 332 331 330 329 324 324 324 324 323 324 325 325 324
310 305 306 306 310 311 313 314 315 316 316 315 315 316 318 320 324 330 334 336 338 338 339 340 342 343 343 342 341 338 334 333 332 333 332 331 329 329 327 324 323 324 325 325 325 325 324 324 325
308 309 307 305 311 313 313 314 316 316 316 316 316 315 320 329 335 336 337 338 338 338 340 342 342 342 340 337 334 333 333 332 332 332 330 329 327 325 324 324 324 325 327 326 326 326 326 326 326
309 310 309 306 308 312 314 315 314 316 316 315 316 318 323 333 337 338 339 338 339 341 342 342 340 338 335 333 333 333 331 330 330 330 330 328 326 324 325 326 327 327 327 326 326 326 326 325 322
309 310 310 309 309 309 312 313 314 313 314 315 323 322 332 336 338 339 339 339 340 341 341 339 337 334 333 332 331 328 327 327 328 327 327 327 326 325 327 327 328 328 327 327 329 328 326 325 324

GFSSGP_850_thetae_030.txt.gz
Theta_e
319 315 311 322 320 319 322 322 322 326 330 331 330 332 333 334 332 332 331 328 328 327 327 324 322 322 321 320 319 319 319 319 319 319 319 318 318 317 317 316 316 315 314 312 311 310 310 310 310
319 311 318 325 319 323 319 322 325 324 333 334 332 333 333 333 334 334 329 329 328 327 326 325 324 323 321 320 320 320 319 319 319 319 319 319 318 318 317 317 317 317 317 317 316 316 315 314 312
319 317 321 322 321 321 320 324 324 329 331 331 333 333 334 334 334 331 330 328 327 326 326 326 325 324 322 320 320 320 320 320 319 319 319 319 319 319 318 318 318 317 318 319 319 320 320 321 322
317 320 321 320 325 325 322 327 327 326 328 332 333 329 333 335 334 332 332 329 329 327 326 325 325 325 323 321 320 321 320 320 320 320 319 320 320 320 319 319 319 318 318 320 321 322 323 323 326
316 320 317 320 321 323 324 326 326 324 327 331 332 330 333 336 335 334 334 332 331 329 327 326 326 325 324 323 320 321 321 320 320 320 319 320 320 320 320 320 320 319 319 320 321 323 324 325 328
320 320 318 318 320 323 322 325 326 327 332 333 332 331 333 336 335 334 332 331 331 331 330 328 328 326 324 323 321 320 321 320 320 319 319 320 320 320 320 321 320 320 320 320 320 321 323 323 323
319 316 319 321 323 324 324 327 325 326 326 328 332 330 332 335 333 333 332 332 332 332 332 330 328 327 325 324 322 320 319 320 319 319 319 319 320 320 320 321 321 321 321 321 321 322 323 325 326
321 315 319 319 321 322 324 327 328 329 328 329 330 329 331 332 331 332 333 333 333 332 332 332 332 331 328 326 323 321 319 319 319 319 319 319 319 320 320 321 321 321 321 322 322 322 324 324 324
321 317 317 319 321 322 324 323 327 329 329 329 330 330 330 331 331 331 333 334 332 332 332 332 333 332 331 328 325 321 319 319 319 319 319 318 319 319 320 320 320 321 322 322 323 324 325 325 326
319 316 316 317 319 322 322 321 322 324 323 326 328 328 329 331 329 329 330 332 332 332 331 332 333 333 333 331 329 325 322 320 319 319 318 318 318 318 319 320 320 320 321 323 324 326 327 326 327
326 324 316 316 319 320 321 321 323 324 323 326 325 327 326 328 326 327 328 330 331 331 332 331 331 330 332 333 333 331 325 323 321 319 319 319 318 318 318 319 319 320 321 323 325 327 327 327 327
326 327 325 323 320 322 321 323 325 325 325 325 326 327 326 326 326 326 328 329 327 327 328 329 329 329 330 331 333 333 332 328 326 323 319 319 318 317 318 318 319 320 321 324 325 328 328 328 328
325 324 328 328 328 328 328 330 330 330 329 327 328 327 327 326 327 327 328 327 326 326 327 327 328 328 329 330 331 332 332 333 331 327 322 319 319 318 319 318 319 320 321 324 326 328 329 330 329
315 319 321 326 325 325 325 325 324 326 326 326 326 326 326 325 326 327 327 326 326 326 326 327 327 327 327 328 329 330 331 333 333 331 327 321 320 319 319 319 319 320 321 326 329 330 330 331 331
313 313 313 314 317 319 322 322 323 324 324 325 325 325 325 324 325 325 327 326 326 327 327 327 326 326 327 328 328 329 330 331 331 332 330 324 321 319 320 320 320 320 321 329 331 331 332 331 331
314 311 314 316 313 316 320 323 323 324 324 324 324 324 325 325 325 326 326 326 326 326 326 326 326 327 327 327 328 328 329 329 330 332 333 332 326 321 321 320 321 321 323 333 331 332 333 332 330
312 315 312 314 315 316 318 321 321 323 323 322 322 323 323 324 325 325 326 326 326 325 325 326 326 327 327 327 328 328 329 328 329 331 333 335 334 329 324 322 322 323 329 333 332 332 333 331 329
313 314 316 315 315 316 316 318 319 320 321 321 321 322 323 323 323 324 325 325 324 325 325 326 326 326 327 328 328 328 329 329 329 332 334 337 337 334 330 331 330 332 335 332 332 329 330 330 330
310 312 314 314 315 316 316 317 317 317 317 318 319 319 320 321 321 322 323 324 324 324 326 327 328 328 328 328 328 328 328 329 331 333 336 337 338 336 336 331 333 335 334 333 331 331 332 330 328
309 310 310 312 313 314 314 314 313 314 315 317 318 318 319 320 321 321 322 324 324 323 324 324 326 328 328 328 328 327 327 329 332 336 338 339 339 338 338 336 335 334 333 333 331 331 330 330 327
309 309 310 312 313 313 313 315 315 314 314 315 316 317 318 319 320 321 322 323 323 322 323 324 325 327 327 327 327 328 330 333 335 337 340 340 339 339 338 334 333 333 333 333 331 329 327 327 325
307 310 311 313 313 314 313 315 314 314 314 314 315 316 317 318 319 320 321 321 322 322 322 324 325 327 328 328 328 328 330 333 333 337 341 341 342 338 335 334 332 333 331 331 330 326 325 325 324
308 309 309 309 310 311 312 312 314 313 313 312 313 314 315 316 317 317 318 319 320 321 322 324 325 327 327 327 329 332 334 336 338 341 342 342 337 334 332 332 333 330 330 331 327 324 323 323 324
307 309 309 310 310 311 311 312 313 312 313 312 313 314 316 317 318 319 320 322 321 322 323 324 324 326 328 331 333 336 338 340 341 341 341 337 333 332 332 332 330 331 331 329 324 323 322 322 323
305 306 308 310 311 311 311 312 313 312 312 313 313 315 317 318 319 319 320 320 322 323 327 327 328 332 335 337 341 342 342 342 341 340 338 334 332 332 332 330 331 330 328 325 323 322 323 323 323
304 304 307 313 312 309 313 313 313 312 313 314 314 316 316 317 319 319 320 322 327 330 333 336 338 338 340 343 344 344 343 342 340 340 333 331 332 332 333 331 330 326 325 324 323 323 324 324 324
307 304 305 305 307 308 310 311 312 313 313 313 313 316 317 320 319 318 322 330 334 338 340 339 338 340 344 344 343 343 342 341 337 332 332 333 333 331 329 329 325 324 324 324 325 324 325 324 324
307 307 305 303 308 311 311 311 313 313 313 314 313 312 317 320 321 327 334 336 341 340 340 341 341 341 342 342 341 339 336 333 332 332 332 331 330 327 325 324 324 325 326 326 326 326 326 326 325
308 308 308 304 306 311 313 312 311 312 312 312 312 318 328 321 331 336 337 339 338 339 342 341 341 340 340 339 336 335 333 332 332 331 330 329 327 325 323 325 326 327 327 326 326 326 326 325 325
307 308 309 308 309 306 308 309 309 311 311 311 314 329 331 330 338 338 339 338 340 341 343 342 341 339 335 333 333 332 331 329 329 329 328 328 325 324 326 327 327 327 327 327 327 328 327 325 324

GFSSGP_850_thetae_033.txt.gz
Theta_e
319 317 311 323 325 325 323 323 323 328 331 331 330 336 337 337 335 339 333 328 327 327 327 324 322 321 320 319 319 319 319 318 318 318 318 317 316 316 315 315 316 316 316 315 314 312 311 310 310
320 313 317 324 323 323 322 324 327 327 333 332 332 331 335 338 335 334 330 328 327 327 327 326 323 321 321 320 320 319 319 319 319 318 318 318 317 317 317 316 316 317 317 317 317 317 316 316 314
320 313 322 327 323 321 322 324 326 328 329 329 333 333 334 335 336 332 329 329 328 327 326 326 324 323 322 321 321 320 320 319 319 319 319 318 318 318 318 318 317 317 318 318 319 319 320 320 321
317 319 320 324 325 325 323 328 329 328 329 330 332 334 333 334 334 330 330 328 327 327 326 326 325 324 323 322 321 320 320 319 319 319 318 318 319 319 319 319 319 318 318 319 320 321 322 322 325
316 320 322 323 322 323 326 326 326 327 328 330 331 333 334 335 334 331 330 329 328 327 326 326 326 324 323 323 321 320 320 319 319 319 319 319 320 320 320 320 319 319 319 319 320 321 322 323 325
319 320 321 320 321 322 324 324 325 327 329 332 333 332 334 335 333 331 331 331 330 329 328 327 326 324 324 323 322 320 319 319 319 319 319 319 320 320 320 320 320 320 320 320 320 320 321 322 323
320 321 319 320 321 322 321 321 324 326 329 331 332 333 332 335 335 334 332 332 331 331 330 329 326 326 325 323 322 321 319 319 319 318 319 319 319 320 320 320 321 321 321 321 320 320 321 322 324
319 321 320 319 319 320 324 326 328 327 330 329 331 333 334 335 334 333 332 333 332 332 332 331 329 327 326 324 323 321 320 319 319 318 318 318 319 319 320 320 321 321 321 321 321 320 321 322 323
320 321 321 319 320 319 323 325 327 327 329 328 329 330 329 332 332 331 332 333 333 333 333 332 332 331 329 326 325 323 321 320 318 318 317 317 318 318 319 320 321 321 321 321 321 321 323 323 324
321 323 321 320 319 321 320 322 325 325 327 327 328 327 328 329 329 328 328 330 332 333 332 332 332 332 332 330 329 327 324 321 320 318 317 317 317 317 318 319 320 320 320 321 322 323 325 326 326
326 324 322 320 319 319 321 321 322 324 326 326 327 325 325 327 327 327 326 327 327 328 331 331 332 332 332 333 332 331 327 324 321 319 318 317 317 317 317 318 319 320 320 321 322 324 326 327 326
322 324 324 322 319 319 319 319 320 321 322 324 324 326 326 327 327 327 327 327 328 328 326 327 327 329 331 333 332 331 332 330 326 322 319 317 317 317 317 317 318 319 320 320 322 326 328 328 328
322 321 323 324 324 322 322 324 324 326 326 327 328 328 328 327 326 326 326 326 328 328 327 326 326 327 327 328 329 329 329 332 332 328 325 321 318 317 317 317 318 318 319 320 322 326 328 330 330
318 320 321 322 326 327 327 327 327 327 327 327 326 326 326 326 325 325 325 326 326 327 326 326 326 326 326 326 326 327 327 329 332 332 332 329 321 318 317 317 318 318 318 319 321 327 328 331 331
314 316 317 320 322 325 325 327 327 326 326 325 325 326 325 326 325 325 325 325 325 326 325 326 326 325 325 326 326 326 327 327 329 331 332 333 328 320 318 318 318 319 319 319 320 324 329 331 332
314 315 317 318 317 319 321 324 325 323 323 324 324 325 325 325 325 325 325 325 326 326 326 325 324 325 325 325 326 326 327 327 328 330 332 333 333 329 321 319 318 319 319 320 321 330 330 331 333
314 316 317 317 318 318 320 323 323 322 323 324 325 325 325 324 324 324 324 324 325 325 324 324 324 325 326 325 326 326 327 327 328 329 330 332 333 333 329 323 320 319 320 320 322 332 331 331 332
314 315 315 317 318 318 319 321 322 322 322 323 324 323 323 324 323 322 321 322 323 323 324 324 324 324 326 326 326 326 326 327 328 329 330 332 334 335 335 331 324 321 321 322 329 332 329 328 329
314 314 316 316 317 318 319 320 320 320 320 321 321 321 321 321 321 321 319 319 320 321 323 324 323 325 325 327 327 327 327 328 328 329 330 334 335 337 337 334 327 323 322 325 333 331 329 329 330
312 313 314 314 315 316 319 319 319 319 319 319 319 320 320 320 320 320 319 320 320 320 322 324 323 323 324 324 327 327 328 328 329 330 332 336 337 338 336 332 329 327 327 333 332 332 330 331 331
311 313 313 314 314 315 316 318 319 319 318 318 318 318 319 319 320 319 319 320 321 322 322 323 322 322 324 325 325 327 328 328 330 331 334 337 339 338 336 335 335 334 334 333 332 332 331 330 328
311 311 312 313 315 317 316 319 319 319 319 319 318 318 318 318 319 318 318 319 320 321 321 321 321 321 322 325 326 327 327 328 329 332 335 339 340 338 338 336 334 334 333 333 330 331 329 327 327
309 310 311 311 312 314 315 316 317 318 318 318 319 317 317 317 318 318 318 317 317 317 317 318 320 321 323 326 327 327 328 329 333 335 338 340 339 340 337 335 334 333 331 329 330 330 326 324 325
308 309 310 311 312 314 314 315 317 316 318 317 318 316 317 317 317 316 317 318 319 320 321 321 322 323 323 326 327 328 330 333 336 338 341 341 339 336 334 333 333 332 329 330 330 326 323 323 323
307 309 310 311 313 314 313 314 316 317 316 316 317 317 317 318 317 318 318 318 319 320 321 321 324 325 325 328 330 334 338 338 340 341 341 340 336 333 332 332 331 330 331 330 327 323 322 323 323
308 308 310 309 311 312 312 314 315 316 316 316 316 317 318 318 319 320 317 318 320 322 326 328 327 328 331 335 339 341 341 341 341 341 339 335 332 331 331 332 330 331 329 326 324 324 323 324 324
309 308 309 310 311 312 312 313 313 314 315 316 317 319 322 323 324 321 319 319 326 331 333 336 337 339 341 342 342 342 341 341 340 338 333 331 331 332 332 332 330 328 324 324 324 324 324 325 324
310 310 309 309 310 311 312 312 314 315 315 317 319 322 324 332 326 330 328 328 336 339 340 341 341 342 343 343 342 341 340 339 334 331 332 332 332 331 330 328 325 324 324 326 326 326 326 325 324
311 311 310 310 310 312 314 315 316 317 316 317 317 320 329 333 331 335 340 341 341 342 342 343 343 343 343 342 341 340 337 333 332 332 332 331 330 327 325 323 324 326 327 326 326 326 326 326 325
309 309 312 313 311 310 311 313 315 316 315 316 315 316 324 333 333 334 341 342 343 342 343 343 342 341 340 338 335 333 332 332 332 332 331 329 328 325 323 325 327 327 327 327 327 327 328 327 324

GFSSGP_850_thetae_036.txt.gz
Theta_e
314 319 316 322 327 324 326 327 330 335 334 334 334 338 338 338 339 341 338 333 330 326 327 326 322 321 320 318 318 319 319 318 318 317 316 316 316 316 316 315 314 314 315 314 314 312 310 310 310
329 317 320 324 325 326 327 329 331 334 336 333 335 337 337 340 338 338 335 327 327 327 327 326 323 322 321 318 318 318 319 318 318 318 318 317 317 317 316 317 317 316 316 316 316 316 316 315 313
323 318 321 324 325 325 329 329 333 333 332 332 334 335 336 339 339 338 334 327 327 327 327 326 325 323 322 319 318 319 318 318 318 318 318 318 318 318 318 318 318 318 317 318 318 318 319 320 321
320 320 320 325 325 325 326 332 331 332 332 333 333 335 335 336 339 337 329 328 328 327 327 327 325 324 323 321 319 319 319 318 318 318 318 318 318 318 319 319 319 319 318 318 319 319 320 321 322
321 321 322 323 323 325 327 326 327 330 330 333 335 336 335 337 338 336 329 328 328 327 327 327 326 324 323 321 320 318 319 319 318 318 318 318 318 319 319 319 320 320 319 319 319 319 320 321 322
322 321 322 322 323 324 325 324 325 328 329 332 335 336 336 338 338 334 330 330 336 328 327 327 326 325 323 321 321 319 318 318 318 318 318 318 318 319 319 319 320 320 320 320 319 319 319 320 322
325 323 322 322 322 323 324 323 324 326 331 333 336 337 336 337 338 337 336 337 337 334 328 327 326 326 324 322 321 320 319 318 318 317 317 317 318 318 319 319 320 320 320 321 320 320 320 321 322
323 326 325 324 323 322 322 325 324 326 332 332 334 337 337 337 340 340 338 338 338 337 334 330 328 327 325 323 322 321 320 319 318 317 317 317 317 318 319 319 320 320 321 321 321 321 321 321 322
323 326 327 325 324 322 322 323 324 328 331 332 332 334 334 339 340 339 340 339 339 340 334 332 331 330 327 324 324 322 320 319 318 317 316 316 316 317 318 318 319 320 321 322 322 322 323 323 323
325 328 328 326 325 321 321 323 324 328 331 332 331 331 331 337 338 336 336 336 337 338 341 338 333 332 332 330 329 327 323 321 319 318 317 316 316 319 319 319 319 320 320 321 322 323 324 325 335
326 328 328 327 325 322 321 322 323 325 330 332 332 330 329 329 331 331 331 331 332 332 334 341 334 333 334 333 332 331 330 326 322 319 318 318 317 324 321 329 320 320 320 321 323 324 329 336 336
326 327 327 326 326 321 321 322 323 323 324 329 329 329 328 329 330 331 331 331 331 331 332 336 327 326 327 332 333 334 334 334 332 329 323 319 319 321 328 330 332 322 330 326 335 336 337 337 336
323 324 325 326 326 325 322 322 324 324 323 323 324 324 327 329 329 329 329 329 330 331 331 333 329 326 326 326 327 328 331 334 336 338 334 327 331 329 333 330 330 331 331 330 334 336 337 334 337
319 321 323 323 324 325 326 326 326 326 326 327 328 329 328 328 328 328 329 329 329 329 329 328 328 326 326 326 326 326 326 328 334 340 338 334 334 333 334 332 330 330 330 330 332 335 337 336 336
316 318 319 322 323 324 325 328 328 327 328 329 329 329 328 328 328 328 329 329 330 329 329 327 327 326 326 325 324 325 325 326 332 334 339 337 336 334 333 333 331 330 330 321 327 334 335 334 335
315 317 319 320 321 322 323 327 329 327 327 328 328 328 328 328 328 328 328 329 330 329 326 326 326 325 325 324 325 325 325 326 333 336 340 338 337 337 336 334 332 331 329 324 329 333 326 333 335
317 317 318 319 320 321 322 326 326 325 326 327 327 327 327 327 327 328 329 329 329 326 324 325 325 325 325 324 324 325 325 325 330 338 340 340 338 338 338 336 333 331 330 330 330 330 331 334 335
315 317 317 318 320 320 321 323 323 324 325 326 326 326 326 327 328 327 327 327 328 328 321 323 324 324 324 323 324 325 327 328 329 338 340 339 338 337 335 336 334 332 331 327 328 329 334 335 334
313 316 317 318 318 319 321 322 322 323 323 324 325 325 326 326 325 325 325 325 325 326 321 319 320 322 323 322 323 329 334 336 336 339 338 338 336 335 335 338 336 332 331 329 328 331 335 335 333
312 314 317 318 317 319 320 321 322 322 323 323 323 324 324 324 324 324 324 324 325 325 322 320 320 321 322 322 323 332 335 340 341 341 337 336 336 336 337 338 337 334 332 330 330 334 335 334 333
311 312 314 316 317 319 320 321 322 322 322 321 322 322 322 322 322 323 323 324 324 325 325 321 322 321 322 321 324 325 330 333 337 333 335 336 337 338 338 337 337 332 332 333 334 334 333 334 332
310 311 312 313 316 318 319 321 321 322 322 322 322 321 321 321 322 322 322 323 323 325 326 326 320 321 321 320 323 327 335 338 339 338 334 336 338 339 338 335 335 332 334 338 336 333 334 332 332
310 311 311 313 315 316 317 319 320 321 322 322 323 321 321 321 321 321 321 322 322 323 325 325 319 318 319 319 322 328 337 343 342 339 335 338 340 338 337 337 335 336 339 334 335 333 330 332 330
310 310 310 313 315 318 318 319 320 320 321 321 322 320 320 320 319 320 320 321 321 323 324 322 318 318 319 321 324 328 342 344 344 343 338 340 340 338 338 338 337 335 334 330 331 332 331 331 330
310 309 310 311 315 316 316 317 318 320 320 320 320 319 320 320 321 322 323 322 323 325 327 335 328 323 323 324 326 333 340 338 345 342 344 344 341 341 337 337 336 335 330 333 333 331 332 330 329
310 310 309 311 313 313 314 316 317 318 319 318 318 319 320 321 322 324 326 324 323 326 335 338 335 340 336 340 341 344 342 346 346 346 345 344 342 341 337 337 335 334 334 333 331 331 330 330 329
311 312 311 311 311 315 314 316 317 318 318 319 320 322 325 327 330 330 330 326 332 338 338 341 343 343 344 345 344 344 347 347 345 342 341 340 339 338 336 335 334 333 333 332 331 330 330 331 328
312 311 314 311 313 313 314 315 317 318 317 318 320 323 323 332 334 333 333 334 340 340 345 345 345 345 345 345 345 345 345 343 341 339 338 337 337 336 336 335 334 333 332 331 328 331 331 329 326
311 313 314 314 311 311 314 315 317 318 319 320 320 320 320 330 335 337 338 341 343 345 345 346 346 345 345 345 344 344 343 341 338 338 338 336 335 335 335 333 331 331 331 332 330 329 330 329 327
310 313 313 319 314 313 315 318 320 320 319 320 320 319 320 331 336 336 338 340 344 344 344 345 344 344 344 343 343 342 339 338 338 338 337 335 335 333 331 330 330 331 332 332 332 331 331 328 326

GFSSGP_850_thetae_042.txt.gz
Theta_e
315 314 323 323 325 326 326 326 328 329 330 330 331 334 337 339 342 345 338 339 336 327 328 328 325 324 323 321 319 319 319 319 318 318 318 317 317 317 316 316 315 315 315 315 315 315 315 316 316
318 320 326 323 326 326 327 327 328 330 333 334 335 336 338 339 340 338 337 338 332 327 328 328 326 325 323 322 320 319 318 319 319 318 318 317 317 317 316 316 316 315 316 316 316 317 317 317 318
328 330 323 323 325 327 327 329 329 331 334 336 336 337 338 339 340 338 337 337 332 327 328 328 327 325 324 322 321 320 319 318 318 318 317 317 317 317 317 316 316 317 317 317 317 317 318 318 319
326 326 321 323 325 326 327 329 330 333 337 337 336 337 338 340 341 340 338 336 329 328 328 328 327 325 324 322 321 320 320 319 319 318 318 317 317 317 317 317 318 318 318 318 318 318 318 318 319
328 325 324 323 323 325 327 328 328 334 336 336 336 337 338 339 341 338 337 336 330 328 328 328 327 326 324 323 321 321 320 319 319 318 318 318 317 317 317 318 318 319 319 319 319 319 318 318 318
326 324 324 324 325 325 327 327 328 332 333 335 336 336 337 338 341 337 333 333 331 329 328 328 327 326 324 323 322 320 320 319 319 318 318 318 317 318 318 318 319 319 319 320 319 319 319 319 319
331 329 327 324 323 324 326 327 328 328 329 333 334 335 336 339 340 339 335 334 340 341 331 329 328 327 324 323 322 321 319 318 319 318 318 317 317 317 318 318 319 319 320 320 320 320 320 320 319
329 330 330 329 329 327 326 326 327 327 328 330 333 335 337 339 340 339 335 337 339 341 341 333 330 327 326 324 322 321 320 318 318 318 318 317 317 317 317 318 318 319 320 320 321 321 321 320 320
324 329 331 329 329 328 328 327 327 326 326 328 330 334 337 338 339 338 335 335 337 339 340 340 336 330 327 325 323 322 321 320 319 318 317 317 317 317 317 317 318 318 319 320 320 321 321 321 321
323 328 329 329 329 329 328 327 326 326 326 328 329 334 337 338 338 337 335 335 337 339 340 340 341 340 332 328 327 324 322 322 321 320 319 317 316 316 316 316 317 318 318 319 320 321 321 321 321
323 327 328 329 329 329 329 329 327 326 326 327 329 333 335 339 338 338 336 336 337 338 340 342 343 339 334 336 335 334 334 333 330 324 321 319 317 316 316 316 317 317 318 318 319 321 321 321 321
322 324 326 327 328 328 330 330 329 327 326 326 327 331 335 335 340 339 337 337 338 338 338 340 338 342 341 341 341 338 337 335 335 334 330 323 318 317 316 317 321 321 320 318 319 320 321 321 322
319 321 323 324 325 326 327 329 329 328 326 326 326 326 333 334 338 339 338 336 335 336 337 339 346 344 343 339 346 343 340 333 331 333 334 336 335 329 324 321 328 329 330 328 320 321 325 331 335
318 319 320 321 323 325 326 327 328 329 328 327 326 326 333 333 334 335 335 334 334 334 334 335 336 338 340 336 332 343 342 342 339 340 337 334 338 339 336 332 332 334 335 334 330 327 333 338 339
317 318 319 320 320 322 324 326 327 328 328 329 328 327 327 333 333 332 333 334 333 333 333 334 334 339 336 335 332 328 330 336 341 345 344 340 341 343 342 337 334 334 337 336 334 334 333 338 338
314 316 318 319 320 321 321 324 325 325 327 328 329 329 329 327 327 330 330 332 333 333 333 333 333 333 334 335 334 328 326 327 329 339 347 346 345 344 343 340 338 336 333 336 334 336 335 337 337
314 314 314 316 319 320 321 322 324 323 325 327 327 328 329 329 329 328 328 330 331 331 330 331 332 333 334 334 332 328 326 326 330 338 343 346 345 345 344 342 339 339 337 334 335 334 335 334 337
314 314 315 315 316 318 320 322 323 323 323 325 326 328 328 330 329 330 332 333 332 332 333 333 332 333 333 337 335 331 328 326 327 327 337 344 344 344 344 343 342 340 339 336 334 335 334 334 336
316 315 315 316 316 316 317 321 322 323 323 324 325 326 326 326 328 331 329 332 332 332 332 331 331 332 330 335 335 332 327 327 328 328 332 342 343 344 344 344 342 341 340 337 336 335 334 334 334
315 315 315 315 315 316 317 318 320 323 323 324 325 325 325 327 329 329 330 332 331 331 331 331 330 329 328 327 323 329 334 332 333 337 340 343 344 344 345 344 342 343 340 338 336 335 334 334 334
314 314 314 314 314 314 315 317 320 320 323 322 322 324 325 325 325 327 330 330 332 331 330 328 328 328 327 326 324 328 329 332 341 342 344 345 344 344 345 344 341 343 341 339 336 337 335 333 332
312 313 313 314 314 313 314 316 319 320 322 324 323 323 324 325 324 324 326 328 329 329 330 330 330 329 328 327 326 335 334 328 335 345 346 345 344 345 345 343 341 344 342 339 339 337 334 333 339
313 314 314 313 314 314 313 314 315 317 320 322 325 323 324 324 324 323 323 324 326 326 326 325 325 327 327 327 331 334 337 339 340 345 347 347 346 345 343 343 342 343 341 340 338 336 334 335 336
315 314 314 314 315 314 313 314 315 316 318 320 323 324 323 324 323 324 325 323 323 323 324 327 327 327 326 328 329 335 338 338 344 346 348 346 345 344 343 344 340 341 341 338 338 336 336 337 335
316 315 316 314 315 314 313 314 316 317 317 318 321 322 322 322 325 325 325 325 324 324 324 324 327 328 328 330 328 329 340 341 347 346 346 346 343 343 340 339 340 340 339 340 339 339 337 336 333
314 315 318 314 312 312 313 313 314 316 317 318 318 320 321 322 323 324 324 325 325 324 324 323 325 329 333 333 331 330 327 347 349 348 346 343 340 340 341 340 341 340 339 340 337 337 334 332 331
314 313 315 316 316 317 313 312 313 315 316 317 320 320 322 321 322 323 324 323 324 325 327 324 325 326 327 329 336 340 340 346 351 348 345 341 341 342 342 342 341 341 338 337 334 334 332 333 332
315 313 315 317 319 314 313 312 313 315 318 317 320 323 322 324 325 326 328 329 330 331 330 326 327 334 341 344 345 346 348 349 349 344 346 343 344 343 342 342 340 339 336 335 334 331 332 331 330
314 315 315 316 316 315 315 314 316 320 319 317 320 321 324 324 324 328 334 334 333 333 335 337 340 343 346 346 346 348 347 349 349 349 345 345 343 341 341 339 337 335 334 334 334 333 332 332 330
312 313 315 312 314 315 315 316 318 317 314 314 314 322 323 325 336 336 338 345 343 342 345 346 347 346 345 346 347 348 349 348 348 345 343 342 341 338 337 335 334 334 334 331 331 330 330 331 329

GFSSGP_850_thetae_045.txt.gz
Theta_e
317 314 321 325 319 319 320 322 321 322 323 327 329 334 337 340 342 342 340 339 328 327 327 326 326 324 322 322 321 321 320 320 319 318 318 318 318 318 318 317 317 317 316 315 315 315 316 316 317
315 318 324 325 319 320 320 322 322 324 325 331 334 335 336 340 339 339 339 341 328 327 327 327 327 325 324 321 321 321 322 321 320 319 318 318 317 317 317 317 317 317 317 317 317 317 317 317 318
322 325 330 317 318 322 322 323 323 325 327 335 336 335 336 340 338 339 338 336 327 328 328 328 327 326 324 323 321 321 321 321 321 320 319 318 318 318 318 318 318 318 318 317 317 318 318 318 318
326 328 331 317 317 320 323 324 324 325 328 336 336 335 339 340 337 338 338 333 327 328 328 328 328 327 325 324 323 321 320 320 320 320 319 318 318 318 319 319 319 319 319 318 318 319 318 318 318
327 328 320 317 317 319 322 323 324 324 327 335 336 335 340 339 338 336 337 331 327 328 328 328 329 327 326 325 324 322 321 320 320 319 319 318 318 318 318 318 319 319 320 319 320 320 319 319 319
330 325 322 322 322 322 323 324 323 324 331 334 331 335 337 340 339 337 337 330 327 328 328 328 328 326 326 324 323 323 322 321 320 320 319 319 318 318 318 318 319 319 320 320 320 320 320 320 320
326 326 322 320 321 322 323 324 322 323 324 327 330 332 337 339 338 337 336 330 327 328 328 328 328 326 326 325 324 323 322 322 321 320 320 319 319 318 318 318 318 319 320 320 320 321 320 320 320
321 328 331 329 329 328 327 327 327 326 325 327 328 329 334 340 339 337 335 331 328 328 328 328 328 327 327 325 325 324 322 321 320 320 320 319 319 318 318 318 318 318 319 320 320 320 321 321 320
322 321 330 330 329 328 328 326 327 327 326 326 326 327 336 340 339 338 338 340 338 330 328 328 328 328 328 327 326 324 323 322 320 319 319 318 318 318 318 318 317 318 318 319 319 320 321 321 321
319 321 323 327 327 327 327 327 327 327 325 326 326 327 336 337 339 337 338 340 341 339 334 329 330 329 328 327 326 325 324 323 323 322 321 319 318 317 317 317 317 317 317 318 319 320 320 321 321
318 321 322 323 325 327 328 328 328 328 326 325 325 325 335 337 338 338 335 337 341 340 339 336 333 333 331 328 327 326 325 324 324 323 322 320 318 318 317 317 316 316 316 317 318 319 320 321 321
314 317 321 322 323 323 324 326 327 327 328 327 326 326 326 329 338 338 337 335 335 341 341 339 339 336 337 334 332 331 331 332 332 333 331 328 322 320 318 317 317 316 316 316 317 318 319 320 320
314 316 317 320 323 323 324 324 325 325 327 328 328 327 327 326 334 339 337 335 337 340 344 343 341 339 336 340 338 333 331 330 330 331 333 333 332 330 323 319 318 317 318 319 320 319 318 319 320
313 313 315 317 318 319 322 323 324 325 325 327 329 328 328 327 331 337 336 337 336 336 336 337 338 338 337 341 340 332 328 327 329 330 330 333 332 335 336 334 328 326 323 325 328 329 328 320 321
313 311 313 315 316 317 319 319 321 324 325 325 328 329 329 328 328 333 336 334 336 336 337 334 338 339 342 343 340 332 326 328 328 328 328 328 331 333 339 340 340 336 332 331 334 334 332 330 328
311 311 310 314 315 317 317 317 319 320 322 324 326 327 327 329 329 329 332 334 334 335 334 334 335 336 340 342 339 334 332 333 332 335 332 329 328 336 340 342 343 341 336 333 334 336 334 333 334
310 309 310 311 312 314 315 317 318 319 320 323 324 325 327 327 328 328 330 332 333 334 333 333 335 333 333 335 336 334 334 333 329 340 343 339 335 338 342 344 344 343 340 336 334 337 334 335 334
310 310 311 312 312 312 312 313 316 319 320 321 322 323 326 327 327 327 327 329 330 329 329 331 331 331 333 332 332 333 332 331 328 327 329 342 346 345 346 346 345 343 342 338 336 335 336 335 337
313 313 314 314 314 313 312 313 314 315 316 318 320 321 322 324 324 326 326 328 330 330 327 329 331 330 330 331 331 332 330 329 329 329 329 334 342 346 345 345 345 343 343 340 339 337 334 336 334
312 311 312 313 314 313 313 313 313 314 314 316 318 320 321 323 326 326 325 326 327 328 333 332 332 331 331 332 332 329 326 326 331 327 325 327 336 339 343 344 345 344 343 341 340 337 335 335 334
310 311 311 311 312 313 313 312 312 313 314 315 317 319 322 322 324 324 325 327 329 329 331 333 333 332 331 330 330 328 327 327 326 325 332 335 338 341 343 344 345 344 343 342 340 339 337 335 334
310 312 313 313 312 310 313 312 312 312 313 314 316 318 321 321 320 324 323 324 324 326 334 333 332 330 329 328 327 327 327 325 322 323 338 341 341 344 343 344 344 344 344 342 341 340 337 336 335
313 313 313 314 313 312 311 310 311 312 313 313 313 315 316 320 322 322 325 323 324 323 332 332 331 330 329 328 327 327 327 326 325 332 332 345 344 345 344 344 345 344 342 342 341 340 337 336 336
313 313 313 313 311 313 312 312 312 311 312 313 313 316 316 317 321 322 323 323 322 322 323 325 327 326 325 325 325 326 326 327 331 338 341 346 345 345 345 345 344 341 341 341 340 339 339 336 334
311 312 316 313 311 313 312 313 312 311 312 313 314 315 316 316 318 322 322 322 323 324 323 323 323 323 324 326 326 325 326 327 333 340 345 347 346 346 346 342 342 340 340 340 340 339 337 335 335
310 313 313 316 316 317 313 313 311 312 312 315 315 315 316 316 318 318 321 323 323 324 323 323 323 323 323 324 324 326 326 328 336 342 345 345 346 345 345 340 341 340 339 339 339 339 338 337 335
310 314 315 315 315 316 313 312 312 314 315 314 313 314 314 316 317 318 321 322 324 324 324 324 324 323 323 325 328 328 328 329 338 344 345 347 345 345 339 340 341 340 340 339 340 339 337 333 333
310 312 313 315 317 315 313 311 314 317 315 313 313 313 315 318 321 320 321 321 323 323 324 326 325 324 325 328 330 331 333 332 330 342 346 347 344 337 341 341 341 341 340 339 337 334 334 332 330
311 314 314 313 314 314 313 313 318 315 313 313 312 313 314 318 320 324 326 328 329 329 327 325 329 325 327 330 331 332 336 339 346 350 349 342 341 341 342 342 342 339 338 335 334 333 330 331 331
312 314 313 315 316 315 315 314 314 312 312 313 312 313 314 318 319 321 330 337 335 333 332 331 326 327 332 338 343 343 343 347 351 348 343 343 343 343 342 341 339 336 333 332 333 332 331 332 331

GFSSGP_850_thetae_048.txt.gz
Theta_e
318 314 320 324 318 315 318 319 320 321 321 323 324 326 334 339 339 339 335 330 327 326 326 324 323 323 324 323 322 322 321 321 321 320 320 319 319 319 318 318 318 317 317 316 316 316 316 316 317
315 318 324 324 316 318 318 319 321 321 322 325 325 331 337 340 340 340 338 339 327 327 326 324 323 323 324 323 322 322 322 322 321 321 320 320 319 319 319 318 318 318 318 318 317 317 317 318 318
318 324 328 318 314 317 318 321 321 322 324 324 326 331 339 338 340 339 338 335 328 327 326 324 323 324 323 323 323 322 322 321 321 320 320 320 319 319 319 319 319 319 318 318 318 318 318 318 319
328 328 331 317 315 316 319 320 320 321 323 323 326 334 339 339 340 339 339 332 329 327 327 325 324 324 324 323 323 323 323 323 322 322 321 321 321 320 320 320 319 319 319 319 319 319 319 319 319
322 328 320 317 316 316 318 319 320 319 321 323 328 334 338 339 339 339 339 336 328 327 327 325 324 324 325 324 323 322 322 322 322 322 321 321 320 320 320 320 320 320 320 320 320 320 320 319 319
331 324 321 321 322 321 321 322 321 320 322 325 329 337 338 338 338 338 339 330 328 328 327 326 324 324 326 325 324 323 322 321 321 321 320 320 320 319 319 319 319 320 320 320 320 320 320 320 320
325 322 319 320 322 322 323 325 326 323 323 323 325 330 338 337 338 338 337 328 328 328 328 326 324 324 326 326 325 325 324 322 322 321 320 320 319 319 319 319 319 319 319 320 320 320 320 320 320
321 326 330 328 328 329 328 327 327 326 325 326 326 327 338 338 337 338 333 327 328 328 328 326 325 325 325 325 324 324 324 323 322 321 320 320 319 319 319 319 318 318 319 319 320 320 320 320 320
320 318 327 331 331 329 328 326 327 327 327 328 325 329 331 338 340 339 333 327 327 328 328 327 325 326 325 326 325 324 323 323 322 321 320 320 320 319 318 319 318 318 318 318 319 319 320 320 320
316 317 321 323 327 328 326 326 326 327 326 327 327 326 334 338 338 338 336 329 327 327 327 327 326 326 326 327 327 327 326 325 324 323 322 321 320 319 318 318 317 317 317 317 318 318 319 320 320
315 316 319 321 322 323 323 324 324 324 325 326 326 326 326 335 337 340 336 332 328 327 327 327 327 327 327 328 328 328 327 326 325 324 324 322 321 319 319 318 317 317 316 316 317 317 318 319 320
312 314 315 318 319 320 321 321 321 322 324 325 326 326 327 326 331 335 336 337 335 334 328 328 328 327 327 328 328 328 327 327 326 326 325 324 323 321 320 320 318 317 316 316 316 316 317 318 319
311 312 314 314 316 319 321 321 322 322 323 323 324 325 326 328 327 330 334 336 338 341 339 334 333 333 332 330 330 329 328 328 330 330 331 331 331 330 329 325 321 318 317 316 316 316 316 317 317
311 311 311 312 313 314 315 317 319 321 322 323 324 324 326 328 328 328 336 337 337 338 342 341 340 341 339 339 339 339 334 332 332 331 329 330 330 332 334 333 330 327 324 321 319 319 322 323 324
311 310 310 311 313 313 315 316 316 318 319 320 322 323 325 325 328 328 333 336 339 341 342 342 342 341 336 334 339 340 341 333 329 327 327 328 330 330 334 337 338 337 337 336 330 328 329 330 332
310 309 309 311 311 313 315 316 317 317 317 318 319 320 322 325 326 327 328 332 336 337 340 342 338 337 337 338 337 342 339 333 328 327 327 328 329 329 333 335 340 341 341 341 337 333 332 334 334
308 308 308 309 309 310 313 313 315 316 317 317 318 319 320 322 323 324 327 328 332 336 336 337 337 337 336 337 340 341 336 335 334 333 331 329 328 330 332 335 338 343 343 342 341 336 334 335 335
310 308 309 310 311 311 311 310 311 313 314 314 315 317 319 320 322 323 325 326 327 327 332 335 335 333 334 335 335 335 333 333 333 332 331 329 327 329 329 335 341 345 344 343 342 338 335 335 336
311 311 310 311 311 312 311 311 312 312 313 312 313 314 315 317 319 321 322 322 324 325 326 334 333 333 333 334 332 334 335 335 335 332 330 329 328 328 330 336 346 346 346 345 343 339 337 335 336
308 308 308 309 311 311 310 311 312 311 311 312 313 314 314 315 317 320 320 321 323 324 325 326 332 333 332 333 331 331 331 333 332 331 332 331 332 331 331 336 341 345 346 345 343 340 338 337 335
309 308 311 312 313 312 310 310 310 311 312 313 313 313 314 315 316 318 321 321 324 325 325 325 327 329 334 333 331 332 333 333 333 329 327 326 326 328 333 336 338 342 345 345 343 341 340 338 336
312 313 313 312 312 312 311 312 311 310 311 311 312 312 313 314 315 315 317 319 321 324 324 327 327 331 334 332 331 332 332 331 329 328 327 325 323 329 334 337 341 344 345 345 343 342 341 339 337
311 313 312 313 312 311 312 309 311 310 310 311 311 312 312 313 314 314 315 317 321 323 324 324 325 331 334 333 332 332 331 328 327 326 326 325 324 326 341 340 343 345 346 344 344 342 340 339 337
313 311 311 311 311 312 311 311 311 311 310 311 312 313 313 313 314 315 316 316 319 324 324 324 324 327 335 334 331 329 328 328 327 326 326 326 328 327 341 343 344 345 345 344 343 341 340 339 338
310 308 309 311 309 311 311 311 311 310 312 313 314 313 314 315 316 316 316 316 317 319 322 323 323 326 330 330 329 328 327 325 325 327 327 329 332 342 345 344 345 345 342 341 340 340 338 338 338
308 308 308 313 313 314 313 312 311 314 314 313 313 312 312 313 315 318 318 318 317 318 319 321 322 323 325 326 325 324 323 326 326 328 327 330 335 342 345 345 345 342 340 339 339 339 339 338 336
310 311 310 309 315 317 313 311 310 314 313 312 312 312 312 312 312 316 320 319 320 319 320 321 323 323 323 323 323 323 324 326 328 330 328 328 340 346 346 346 345 341 339 338 338 338 338 337 336
309 309 309 309 314 316 313 311 310 315 313 312 311 311 311 312 313 314 319 320 327 327 321 324 323 323 323 323 323 323 323 325 331 330 326 335 346 347 346 345 341 339 338 339 339 338 339 338 335
308 310 313 312 314 316 315 310 314 314 312 311 310 311 312 313 314 316 319 318 320 329 333 321 324 324 324 324 323 324 325 332 332 329 329 343 345 346 345 338 340 340 340 340 340 337 334 333 332
310 311 312 312 316 316 316 313 310 311 311 310 310 312 313 314 316 317 319 316 318 322 333 332 323 325 324 324 324 327 332 333 332 331 331 341 347 342 340 340 341 341 339 336 333 332 332 331 330

GFSSGP_850_thetae_051.txt.gz
Theta_e
319 314 317 324 317 313 316 317 317 319 320 322 323 321 322 329 338 338 339 329 326 326 324 324 324 322 321 321 322 322 321 320 320 319 319 319 318 318 318 318 317 317 318 317 317 317 317 317 317
316 316 323 323 315 316 315 316 320 319 321 322 323 324 331 336 338 339 333 327 326 326 325 324 324 323 322 322 322 322 322 321 321 320 320 320 319 319 319 319 319 319 319 319 319 318 318 318 318
319 322 326 317 313 317 316 318 320 319 320 321 321 323 327 339 339 337 330 328 326 326 326 325 324 323 323 323 323 323 323 322 322 321 321 320 320 320 320 319 319 319 319 319 319 319 319 319 318
326 328 327 321 318 316 318 317 316 318 322 322 322 323 337 337 339 336 330 328 326 326 326 325 325 323 323 323 323 323 323 322 322 322 321 321 320 320 320 320 319 319 319 320 319 319 319 319 319
321 326 322 318 318 317 317 318 319 318 319 322 325 325 337 339 339 335 330 328 326 326 326 325 325 324 323 323 323 323 323 322 322 322 322 321 321 321 320 320 320 320 320 320 320 320 319 319 319
330 323 321 321 322 320 320 321 321 321 325 324 323 324 337 339 340 336 337 328 326 327 326 325 326 324 323 323 323 324 323 323 323 322 322 321 321 320 320 320 320 320 320 320 320 320 320 320 319
327 319 321 321 322 321 322 324 326 324 324 325 326 323 337 338 339 339 338 326 326 326 327 326 325 323 322 322 323 324 323 323 323 322 321 321 320 319 319 319 319 319 319 319 320 320 320 320 320
321 324 329 324 324 324 327 327 327 326 325 326 327 322 325 336 338 339 335 326 325 326 326 327 325 324 322 322 322 324 323 322 322 321 321 320 320 319 319 319 319 319 319 319 319 319 320 320 320
319 319 326 328 328 327 327 325 326 325 325 324 326 326 327 337 338 338 330 325 325 325 326 326 326 325 323 322 322 323 324 323 322 322 321 320 320 319 319 319 319 319 318 318 318 319 319 320 320
313 317 321 323 326 325 324 323 323 324 323 323 324 325 327 340 343 337 329 326 325 326 326 326 325 325 323 322 322 322 324 323 323 323 323 322 322 320 319 318 318 318 318 317 317 317 318 319 319
312 316 319 320 320 321 321 321 321 320 321 322 322 323 325 327 342 341 331 329 328 326 327 327 326 325 323 322 322 322 323 324 325 324 323 323 322 322 320 319 319 318 318 317 317 317 317 317 318
311 313 314 315 315 317 318 318 319 319 320 320 322 323 323 325 327 339 340 336 328 328 325 326 326 325 324 323 323 323 324 325 325 326 325 324 324 323 322 320 319 318 318 317 317 316 316 316 316
310 311 311 312 312 313 314 317 319 319 319 320 321 322 323 324 325 327 337 336 337 331 327 326 327 326 325 324 323 324 324 325 325 326 325 324 324 323 322 322 322 320 319 318 317 316 315 315 315
310 310 310 311 311 312 313 314 315 316 317 317 318 319 320 323 326 327 327 334 336 336 330 327 327 329 326 325 324 325 324 324 325 324 323 324 326 326 328 328 329 328 327 322 320 320 317 316 318
310 309 308 310 311 312 314 313 314 316 316 317 317 318 318 322 324 326 327 332 336 336 338 335 328 327 327 326 326 329 335 337 337 330 326 326 331 332 333 334 335 336 335 332 330 329 325 325 325
308 306 306 308 309 311 313 313 314 316 314 316 316 317 317 318 321 324 327 330 330 335 336 336 340 334 333 331 335 338 338 337 338 340 335 334 331 330 332 335 336 337 338 340 339 338 336 332 331
306 308 308 308 308 309 311 311 311 313 313 313 314 314 314 314 316 320 323 327 328 331 336 340 343 343 339 339 335 336 335 334 334 339 335 331 331 330 330 332 336 339 339 342 342 341 340 335 333
309 309 309 309 309 310 309 310 311 312 312 312 313 313 313 314 314 315 318 324 327 329 333 336 341 344 341 338 338 337 335 335 335 338 335 334 330 330 332 330 333 339 341 342 344 343 341 338 335
309 310 309 308 309 309 308 310 310 310 311 311 312 313 313 313 314 314 315 317 321 326 328 330 336 340 338 337 337 336 336 336 334 337 334 331 330 332 330 329 331 335 338 341 345 344 342 339 336
308 307 309 309 312 311 311 311 311 309 309 311 312 312 313 313 313 313 314 315 318 320 324 326 326 326 331 334 336 336 336 335 334 336 333 332 331 332 329 329 330 332 334 338 345 345 343 340 337
310 311 312 312 311 311 310 310 310 310 310 311 312 312 312 312 312 313 313 314 315 316 319 323 323 324 329 334 334 333 334 334 335 334 332 331 333 332 329 330 329 330 333 337 341 346 344 341 338
310 312 312 311 311 310 311 310 310 310 310 309 310 311 312 312 312 312 312 313 315 316 316 319 323 325 325 326 328 331 332 335 333 331 331 332 334 330 329 328 329 332 336 340 342 345 344 341 339
309 312 310 311 310 310 310 310 309 308 309 309 309 311 313 314 314 314 314 315 315 316 316 317 321 325 326 327 329 328 329 335 333 332 334 333 329 328 326 326 332 338 339 342 344 345 343 341 339
311 309 307 308 308 310 309 309 310 308 307 308 312 313 313 313 313 314 315 315 315 315 316 317 320 323 325 324 326 331 330 333 334 334 332 328 326 326 325 326 329 339 342 344 344 344 342 340 339
308 306 306 308 309 311 309 311 310 310 311 313 313 312 312 312 312 311 312 315 315 315 316 317 317 322 326 323 327 333 332 334 334 334 329 327 326 326 324 327 333 343 344 344 343 342 341 339 337
308 307 305 308 309 308 309 311 310 313 313 313 312 312 312 311 311 311 311 313 316 317 317 316 317 318 320 327 323 327 333 335 334 330 326 325 325 326 325 330 343 345 344 344 341 339 338 338 336
309 310 307 305 309 311 310 310 309 312 312 311 311 311 311 311 311 312 312 312 313 319 319 321 319 319 320 321 328 326 330 331 329 328 324 326 327 327 329 339 345 345 345 341 338 338 337 337 338
307 307 308 306 313 313 311 311 311 309 310 312 311 310 311 311 312 312 313 313 313 319 318 322 324 324 321 321 322 324 325 327 327 325 324 327 328 327 338 345 345 345 343 339 337 337 338 338 337
307 308 310 309 311 312 312 310 308 310 311 311 310 311 311 311 313 314 314 315 316 318 317 321 326 327 323 322 322 322 323 324 323 323 325 328 330 333 345 346 345 344 340 337 337 338 338 338 336
308 309 310 311 311 312 313 312 310 309 308 309 310 311 312 313 313 314 314 315 317 316 318 321 325 331 324 322 323 323 323 323 323 324 326 332 330 342 345 346 344 340 338 338 339 339 338 334 332

GFSSGP_850_thetae_054.txt.gz
Theta_e
320 314 316 323 316 312 315 316 316 318 318 320 321 321 321 325 335 336 338 339 327 326 321 321 320 319 318 318 318 318 319 319 319 319 319 319 318 318 318 318 318 318 318 318 317 317 316 317 316
319 317 322 321 313 314 312 315 318 318 320 320 321 321 320 320 324 328 334 333 327 326 323 323 322 321 320 321 321 321 321 321 320 320 320 320 320 320 320 319 319 319 319 318 318 318 318 318 318
320 322 325 317 312 313 314 315 318 318 319 319 320 323 322 331 338 328 330 330 327 326 324 324 323 323 322 323 322 322 322 322 321 321 321 321 320 320 320 320 320 320 319 319 319 319 319 318 318
325 326 323 321 319 316 317 318 315 316 320 321 322 321 325 333 338 335 337 328 326 326 324 324 322 323 324 323 323 323 323 322 322 322 321 321 320 320 320 320 320 320 319 319 319 319 319 319 319
323 325 322 321 320 318 316 317 317 317 318 323 324 322 323 334 339 340 333 327 326 326 324 323 323 323 323 323 323 323 323 323 322 322 321 321 321 320 320 320 320 320 320 319 319 319 319 319 319
326 322 321 322 322 319 319 320 320 319 323 326 324 323 328 326 336 339 331 326 326 326 324 323 323 322 323 323 323 323 323 323 322 322 322 321 321 321 320 320 320 320 320 320 319 319 319 319 319
327 320 321 321 322 322 322 325 325 323 324 324 326 320 325 328 334 339 329 326 325 326 324 322 323 323 323 323 323 323 323 323 322 322 322 322 321 320 320 319 319 319 319 319 319 319 319 319 319
323 321 326 321 323 322 326 326 327 324 324 325 325 324 323 331 339 340 330 326 325 325 324 322 322 322 323 322 322 322 322 322 322 322 322 321 321 320 319 319 318 318 318 318 318 319 319 319 320
318 321 325 326 326 325 326 325 325 324 323 322 324 324 323 327 336 342 338 332 325 324 324 322 322 322 323 322 322 322 322 321 322 321 321 321 320 320 320 319 319 318 318 317 317 318 318 319 319
315 316 320 323 323 322 322 323 322 321 320 321 321 322 322 323 329 343 338 334 327 324 323 322 321 322 323 322 322 322 321 322 321 321 320 320 320 320 320 319 318 318 318 317 317 317 317 317 318
312 315 317 318 318 319 318 318 319 318 319 320 319 320 320 321 323 341 339 332 326 324 323 322 321 321 322 323 323 322 321 321 320 320 321 321 320 320 320 319 318 319 318 318 317 317 316 316 316
311 312 314 314 314 314 315 315 316 316 317 318 318 318 320 320 322 324 338 335 328 325 324 322 322 322 321 323 323 322 322 321 321 321 320 321 320 319 320 320 319 318 318 317 317 316 315 315 315
309 310 311 311 312 312 313 313 314 315 315 316 317 317 318 319 320 322 325 337 334 328 325 323 322 322 322 322 323 323 322 322 322 322 321 322 321 321 320 319 318 318 319 318 317 317 316 315 315
309 309 309 310 311 311 311 312 313 315 315 315 316 317 317 318 319 323 325 328 333 336 330 327 324 322 323 323 324 324 323 322 322 323 323 322 321 321 321 321 320 319 324 324 323 322 319 317 316
310 309 307 308 309 309 311 311 312 314 314 315 315 315 316 317 318 319 323 326 328 332 337 335 335 325 323 324 324 324 324 323 323 325 327 326 323 323 323 325 326 329 332 333 333 331 327 327 324
307 305 305 307 308 310 311 311 312 312 313 314 314 313 313 314 316 319 319 321 329 330 333 336 337 333 327 323 323 322 323 323 324 336 333 338 338 334 332 330 331 334 336 337 338 338 337 336 333
305 308 308 307 308 307 310 309 310 311 312 312 312 313 313 313 314 314 317 319 324 334 330 331 335 335 335 328 326 324 324 324 327 337 334 335 334 337 332 330 331 336 339 338 339 340 341 340 338
308 309 308 308 308 309 309 308 309 311 311 311 311 312 312 313 313 313 314 316 320 325 332 334 333 336 339 341 335 329 328 334 337 335 333 332 331 333 335 332 333 336 339 340 337 340 342 342 340
309 309 308 307 309 309 309 309 309 310 310 310 310 311 312 312 312 313 313 314 316 319 324 333 336 331 335 342 341 335 331 335 335 334 334 336 333 332 336 334 334 335 336 337 338 340 343 344 340
307 307 310 309 309 310 308 309 309 309 309 310 311 311 312 312 312 312 313 313 314 315 319 322 329 337 337 335 342 342 339 336 337 335 335 334 335 334 336 334 334 335 334 335 335 337 343 344 341
309 310 311 311 310 309 308 306 308 309 310 310 311 311 311 311 312 312 312 312 313 314 315 317 320 326 334 339 339 340 338 336 336 337 336 336 335 335 338 334 334 333 331 333 334 337 342 344 342
309 310 311 309 308 308 309 308 307 307 307 308 310 310 311 311 312 312 312 312 312 313 314 315 316 319 324 331 337 331 332 333 332 332 335 334 335 335 338 334 333 332 332 332 334 337 341 343 342
307 310 310 309 308 309 309 308 307 307 307 306 306 310 310 312 313 313 313 314 314 314 314 315 315 316 319 322 323 325 325 330 334 333 332 332 334 336 335 333 330 330 328 331 337 338 342 344 342
308 308 305 305 306 308 307 308 307 308 308 308 309 311 312 312 312 311 311 312 312 314 314 315 315 316 317 321 323 324 327 325 328 327 328 330 331 335 333 328 327 327 326 330 335 341 344 344 341
305 304 305 306 305 308 308 307 307 308 308 308 310 312 312 312 312 311 311 311 311 312 313 314 315 315 317 319 323 325 325 326 325 329 329 329 333 333 330 326 326 325 328 331 341 344 343 341 341
307 305 303 306 309 306 307 308 307 308 310 312 312 312 312 312 312 311 311 312 312 312 312 314 316 316 316 317 321 324 324 326 328 330 331 330 337 333 326 326 326 325 334 342 344 344 342 342 339
308 307 305 303 306 309 307 307 308 308 308 311 311 311 311 312 312 312 312 314 315 314 312 312 318 317 317 317 318 321 325 326 328 333 334 334 336 329 328 327 326 331 343 345 344 342 339 338 337
307 306 306 304 310 312 309 308 309 309 309 309 308 309 311 311 311 311 312 313 314 313 314 313 318 318 318 319 318 320 322 324 326 331 333 333 333 330 328 328 327 340 345 344 341 338 337 336 336
307 307 308 305 307 313 311 309 307 307 306 308 308 310 309 310 311 311 312 314 315 314 315 315 316 318 318 319 319 321 321 321 322 326 330 332 331 328 328 329 331 343 345 344 339 337 336 336 338
306 307 307 307 307 311 304 311 310 307 307 308 307 308 312 312 311 310 315 316 318 319 315 315 314 317 320 320 320 321 322 322 321 322 326 330 328 326 330 330 337 345 345 342 337 336 337 338 337

GFSSGP_850_thetae_057.txt.gz
Theta_e
321 314 315 323 321 321 321 322 320 322 321 321 321 322 324 324 328 329 336 336 328 326 323 321 319 321 321 320 317 320 323 323 323 321 318 318 319 319 319 319 318 317 317 317 317 317 316 316 316
321 315 321 320 320 320 320 319 322 321 321 320 321 321 323 325 323 326 328 333 329 326 325 321 319 320 319 317 317 319 320 320 320 319 320 320 321 320 320 319 319 319 318 318 318 318 318 318 318
321 319 325 324 319 318 319 319 321 321 319 319 322 323 323 328 335 330 331 327 330 326 325 323 319 319 318 318 319 320 321 321 321 320 321 321 321 321 320 320 320 319 319 319 319 319 319 319 319
323 323 322 324 320 318 319 321 321 320 320 320 322 327 325 328 332 337 337 330 330 325 325 323 320 318 318 318 321 322 322 322 322 321 321 321 321 321 320 320 320 319 319 319 319 319 319 319 320
323 326 325 325 321 320 318 319 319 320 321 322 325 328 326 329 333 337 340 336 329 325 325 324 322 320 319 319 320 322 322 322 322 322 322 321 321 321 320 320 320 319 319 319 319 319 319 319 319
324 324 326 326 324 319 320 320 321 323 325 326 327 326 327 327 328 340 339 335 325 325 325 324 322 321 319 319 320 322 322 323 323 322 322 321 321 321 320 320 320 319 320 319 319 319 319 319 319
325 325 324 324 323 323 323 326 327 326 327 326 325 327 326 327 326 341 337 331 325 324 325 324 323 321 321 320 321 322 322 323 323 323 322 322 321 321 320 320 319 319 319 319 319 319 319 319 319
326 326 324 323 323 323 324 326 326 325 326 324 324 327 325 326 323 338 337 329 326 323 323 324 323 321 320 320 321 322 322 322 322 322 322 321 320 320 320 319 319 318 318 318 318 318 319 319 319
319 326 325 325 324 324 325 325 325 324 324 324 323 323 321 326 322 329 339 329 326 324 322 322 323 321 321 321 321 321 322 322 322 321 321 320 320 320 319 319 318 318 317 317 317 317 317 318 318
320 321 322 324 325 326 325 323 323 322 322 322 322 321 320 320 325 324 339 331 327 323 322 322 322 322 321 321 321 321 321 321 321 321 320 320 320 320 319 318 318 318 317 317 316 316 316 316 317
315 318 320 321 318 319 320 322 319 320 322 322 319 319 319 319 320 323 323 338 333 324 323 321 321 321 321 320 320 321 321 321 321 320 320 320 320 319 319 318 318 318 318 317 317 316 316 316 315
314 314 315 318 315 314 316 318 316 317 319 318 317 318 317 319 319 320 326 325 336 336 324 322 321 321 320 320 320 320 320 320 320 321 321 320 320 319 318 318 318 318 318 317 317 316 316 316 315
312 312 312 312 312 312 312 315 317 316 315 315 316 316 317 317 318 319 320 324 327 333 330 323 322 321 320 320 320 320 320 321 321 320 320 320 320 319 319 319 318 318 318 317 317 317 316 316 315
311 311 312 311 312 312 312 313 313 315 314 314 315 316 317 318 318 318 319 321 327 330 335 327 324 322 321 320 321 320 320 320 321 321 320 320 320 320 320 320 319 320 320 319 320 322 321 319 318
310 311 311 311 311 312 311 312 313 312 313 314 314 314 315 315 316 318 319 319 322 328 330 332 328 324 323 321 320 320 320 321 321 320 321 320 321 321 321 320 321 320 320 323 328 333 332 328 326
311 310 311 311 310 311 311 312 313 311 312 312 313 314 314 314 314 315 317 319 319 320 330 334 334 334 329 326 323 321 320 321 322 321 322 322 322 325 333 333 334 333 330 329 333 336 337 336 336
311 311 311 312 311 312 312 312 312 311 311 311 312 312 313 313 313 314 314 317 318 319 326 336 335 335 336 336 332 323 322 320 322 322 322 327 334 335 333 331 330 333 334 335 337 338 338 339 340
311 311 311 311 311 313 312 312 312 311 311 311 311 311 312 313 313 313 314 314 315 317 319 326 333 335 335 337 335 331 323 322 323 323 322 330 335 333 332 331 332 335 332 335 336 339 339 340 341
311 311 311 311 311 312 312 312 312 311 311 312 312 311 311 312 312 312 313 313 314 315 316 319 321 328 338 341 335 331 335 331 325 326 324 334 333 332 333 332 333 336 333 334 336 339 340 340 342
310 311 311 312 311 311 311 311 311 312 312 312 312 312 311 311 311 312 312 313 313 314 315 315 317 322 328 335 341 343 342 340 335 327 334 333 334 333 333 333 335 332 336 335 334 338 339 339 340
311 311 311 310 311 311 311 310 310 310 311 311 311 311 311 311 310 311 311 312 312 313 313 314 315 316 318 322 330 338 345 342 337 331 332 334 334 334 335 334 335 336 338 335 332 334 336 338 340
310 312 311 310 310 309 310 308 310 311 311 312 311 312 311 312 311 311 312 312 313 313 313 313 314 315 316 317 319 326 336 345 342 338 333 335 335 336 336 336 336 337 339 334 330 333 333 338 340
310 311 311 311 311 311 310 311 311 311 311 311 312 312 313 313 313 312 312 311 312 312 313 313 314 314 315 316 317 319 323 334 341 341 336 337 335 336 335 333 336 337 336 331 328 330 329 338 340
310 310 310 309 310 310 310 311 310 311 311 312 312 313 314 313 313 311 311 311 311 311 312 312 313 314 314 315 317 318 320 322 330 335 333 330 327 332 333 332 335 337 334 329 327 326 328 336 342
310 311 310 309 309 309 312 310 310 311 311 311 311 312 314 314 313 313 312 312 313 314 312 312 312 313 314 314 316 317 319 321 322 323 324 325 331 332 328 329 334 334 328 327 326 325 329 340 344
310 311 311 310 309 310 310 310 311 311 311 311 312 313 314 313 312 312 313 312 312 314 314 313 312 312 313 315 315 317 318 321 323 323 324 325 326 328 329 332 335 330 327 326 325 327 340 344 343
310 312 310 312 311 312 311 311 311 311 312 312 312 313 313 311 312 313 313 312 312 313 313 314 314 312 312 315 316 316 317 319 323 325 326 325 325 329 334 335 334 328 327 326 326 340 344 343 341
311 311 313 313 313 312 311 311 312 312 311 311 312 312 311 311 312 313 313 312 312 313 313 314 315 314 312 314 315 316 317 318 320 324 324 324 327 335 335 338 331 328 327 326 339 344 344 338 337
310 311 312 312 313 313 312 312 312 312 312 312 312 311 310 311 312 312 312 313 315 314 317 317 317 317 315 316 317 316 316 316 319 323 325 326 327 334 337 339 331 328 327 334 344 343 339 337 336
310 311 312 314 314 314 315 313 312 312 311 311 311 310 310 311 312 312 311 312 316 316 315 316 320 321 317 315 317 318 316 317 318 321 324 324 325 329 335 335 330 328 329 342 344 341 338 336 335

GFSSGP_850_thetae_060.txt.gz
Theta_e
319 316 315 322 325 324 328 327 325 325 325 324 324 325 327 328 329 334 339 336 337 337 326 323 320 322 326 324 325 332 337 329 324 323 318 317 317 317 317 316 316 316 315 316 316 316 317 317 317
319 316 320 322 323 326 328 326 324 325 323 323 324 325 326 328 328 332 329 335 336 335 326 324 320 321 325 321 322 328 330 324 322 319 318 319 319 318 318 318 317 317 317 317 317 317 318 318 318
319 318 324 322 323 326 325 323 324 324 322 324 326 328 327 329 332 335 338 341 337 336 325 324 321 319 325 324 322 325 324 322 321 320 320 320 320 320 319 319 318 318 318 318 318 318 318 319 319
326 325 323 324 322 321 321 324 323 324 323 323 324 330 329 332 332 339 341 342 338 338 325 325 322 319 321 323 322 322 322 321 321 321 321 321 321 320 320 320 319 319 319 319 319 319 319 319 319
324 325 327 327 324 321 320 321 322 323 323 323 327 330 330 329 333 339 343 343 337 342 328 324 322 319 319 320 320 319 320 321 321 321 321 321 321 321 320 320 320 319 319 319 319 319 319 319 319
324 325 329 329 328 324 322 324 325 327 327 326 328 329 331 328 332 337 342 342 337 339 339 324 322 321 319 319 319 318 320 320 321 322 322 321 321 320 320 320 319 319 319 319 319 319 319 319 319
326 327 327 328 328 326 326 325 327 328 328 327 327 329 330 327 332 336 340 340 338 338 339 324 321 320 320 319 318 318 319 320 321 321 321 321 321 320 320 319 319 319 319 319 319 318 319 319 319
325 327 327 327 327 327 326 325 326 328 328 326 326 330 329 325 324 334 340 338 337 337 338 341 322 320 319 319 319 319 319 320 320 320 320 321 320 320 319 318 318 319 318 318 318 318 318 318 319
322 328 328 327 327 327 325 325 326 327 326 326 326 326 325 324 323 331 340 338 338 337 338 341 341 326 321 328 320 320 320 320 320 320 320 320 320 319 319 318 318 318 317 317 317 317 317 317 318
321 324 326 326 326 327 326 327 326 326 327 326 325 326 324 323 324 326 332 340 336 337 337 339 342 342 340 339 335 320 321 321 320 321 320 320 321 324 321 319 318 318 317 317 317 317 316 316 323
319 322 323 323 324 325 326 326 324 325 326 326 326 323 322 322 323 324 328 333 337 335 337 339 344 345 343 340 341 334 334 326 323 323 322 321 325 326 320 323 319 318 318 318 318 317 317 317 327
317 318 319 320 322 321 323 323 324 324 326 324 321 320 320 321 321 322 324 327 333 338 334 338 343 346 345 342 342 341 339 341 340 337 324 323 322 321 322 325 334 323 329 321 327 330 325 322 327
315 317 316 317 318 318 319 319 320 319 321 317 317 318 319 319 320 321 323 326 331 336 339 336 336 342 332 335 341 341 341 341 340 334 322 321 321 321 320 324 320 329 328 332 325 324 330 328 322
314 315 315 315 316 316 316 317 317 317 317 317 318 317 318 318 320 320 322 326 326 329 335 338 337 325 323 322 330 326 330 334 330 337 327 321 320 320 320 319 319 319 328 330 331 330 329 327 331
313 314 315 315 315 316 315 317 317 316 315 315 317 317 317 317 318 319 320 323 324 326 328 330 336 330 323 321 320 320 321 320 321 321 321 320 320 319 319 320 320 322 328 320 323 326 328 329 332
314 314 314 315 314 314 313 316 315 314 314 315 314 316 316 317 317 318 318 318 317 318 323 328 331 334 327 325 323 321 319 320 320 321 320 319 319 320 320 321 323 326 323 323 329 330 334 335 336
315 314 314 315 315 315 315 316 316 314 314 314 314 315 315 316 316 318 318 317 315 316 318 326 335 334 334 330 325 324 322 322 320 320 319 321 329 321 327 329 329 330 328 332 332 335 336 337 336
316 315 314 315 315 315 315 315 316 314 314 314 313 313 314 315 316 316 317 318 317 314 315 318 327 335 335 335 336 336 335 331 324 321 321 322 321 321 333 333 333 331 330 334 335 335 336 338 339
313 314 314 314 314 314 315 315 316 315 314 315 314 314 314 314 315 315 316 317 318 315 314 315 317 322 333 337 337 335 336 334 332 328 323 328 323 321 326 332 331 331 334 334 332 331 334 339 338
313 314 314 314 314 314 314 314 314 315 314 314 314 315 314 314 314 314 315 316 318 317 314 313 314 315 320 341 337 337 335 336 334 330 327 328 325 322 328 333 332 332 333 332 333 333 334 341 340
313 313 314 313 313 313 313 314 314 314 313 313 314 314 314 313 313 313 314 315 315 313 312 313 313 314 315 318 328 337 340 343 343 337 336 333 333 324 328 331 333 333 334 333 334 336 337 344 340
314 313 312 312 313 314 313 313 314 314 314 314 313 313 314 314 315 315 316 314 312 312 312 312 313 313 314 315 316 327 343 345 345 344 344 341 334 329 328 334 334 334 335 335 335 337 338 339 344
312 312 312 312 313 313 314 314 315 313 314 314 314 313 314 315 316 316 315 315 315 315 312 312 312 313 313 314 315 318 325 335 341 345 347 345 340 330 333 334 334 336 336 337 337 338 339 342 341
312 312 313 314 313 313 314 313 314 315 314 314 314 313 314 315 316 316 315 314 315 315 316 312 312 312 312 313 314 315 317 320 331 338 345 347 348 347 332 335 336 336 336 335 336 341 338 336 335
313 314 315 314 315 313 314 313 314 315 314 314 314 313 314 316 315 315 314 315 315 315 317 318 317 312 312 312 313 315 316 317 317 319 335 341 343 345 342 333 331 329 333 335 338 341 335 329 329
314 314 315 314 313 314 314 314 316 314 313 313 313 313 314 315 315 314 315 315 315 315 316 318 318 318 312 312 312 313 315 317 325 321 322 330 332 330 332 328 326 332 335 335 341 338 331 327 328
313 314 314 314 314 314 314 314 314 315 314 314 313 313 314 315 314 314 314 315 315 315 316 318 319 320 319 313 312 312 313 315 317 319 319 322 326 328 322 324 325 328 337 335 339 332 327 328 334
313 314 315 314 314 313 314 314 315 315 315 314 314 314 314 314 313 314 314 314 314 316 317 318 319 320 322 323 316 313 314 315 315 317 319 321 324 324 326 326 327 334 339 338 331 332 332 334 342
314 314 313 314 315 316 316 315 316 315 315 314 314 313 313 313 313 313 314 314 314 314 316 317 317 317 319 323 323 321 315 314 315 317 319 321 326 326 327 329 334 338 339 333 327 339 344 342 345
312 313 313 316 316 317 317 317 315 315 314 314 314 314 313 313 313 313 313 313 313 313 314 316 317 317 318 321 324 323 321 318 315 317 320 321 332 337 342 343 340 341 340 331 331 344 346 346 343

GFSSGP_850_thetae_063.txt.gz
Theta_e
323 326 321 323 326 327 332 334 331 328 327 327 327 328 332 331 332 336 338 340 337 346 333 322 322 320 322 326 330 339 342 341 333 328 320 317 316 317 317 316 316 316 315 315 316 316 316 317 317
320 326 324 324 326 330 331 333 329 329 327 325 326 326 327 329 330 334 337 342 337 346 335 323 321 319 321 324 326 335 338 332 329 322 318 317 317 317 317 317 317 317 316 316 317 317 318 318 319
322 325 327 328 326 330 331 329 329 328 325 324 327 327 329 330 333 335 338 343 339 347 338 324 321 319 319 325 328 332 331 325 324 319 318 318 318 318 318 318 318 318 317 318 318 318 319 319 319
326 327 326 328 328 328 328 326 326 327 325 324 326 329 329 331 332 335 339 343 343 344 349 328 321 319 318 322 328 332 330 323 322 320 319 319 319 319 319 319 318 319 318 318 319 319 319 319 320
325 326 329 330 328 328 327 324 324 326 326 325 325 328 331 332 332 335 342 343 343 342 348 332 321 319 319 321 328 332 329 324 322 320 320 320 320 319 319 319 319 319 319 318 318 319 319 319 320
327 327 329 330 330 329 325 324 326 327 326 326 326 329 331 331 329 334 343 344 343 342 346 337 321 319 320 320 325 331 332 325 322 320 319 320 320 320 319 319 319 319 319 319 319 319 319 319 319
327 330 329 329 330 330 328 324 327 328 329 329 328 329 331 331 328 329 342 343 340 341 344 347 321 319 320 320 322 326 328 327 323 320 319 319 319 319 319 319 318 318 318 318 318 318 319 319 319
324 329 329 329 330 330 329 327 326 328 329 329 328 329 331 328 326 329 338 342 342 341 342 349 324 319 319 319 320 321 323 323 321 320 319 319 319 319 319 319 319 318 318 318 318 318 318 318 319
322 327 329 329 329 329 328 329 327 327 328 329 328 328 328 327 326 328 334 342 341 340 341 346 343 331 323 327 319 319 320 320 320 319 319 319 319 319 319 319 319 318 318 318 317 317 317 317 317
322 325 326 327 328 329 328 328 327 326 328 329 328 328 327 326 325 326 329 338 340 340 340 343 345 344 342 338 331 319 319 320 320 320 320 320 322 333 331 326 319 318 318 318 317 317 316 316 319
321 323 324 325 325 326 328 328 328 328 328 327 329 328 327 325 324 325 326 329 340 340 340 340 345 345 343 339 341 325 330 323 323 323 324 321 332 339 336 338 326 319 318 318 318 318 317 318 330
321 321 321 322 324 324 326 327 328 328 328 326 326 328 326 324 324 324 324 326 334 338 339 339 344 346 345 340 341 342 338 339 340 339 335 342 333 340 343 339 341 335 330 326 327 335 334 334 333
320 321 320 320 321 322 323 325 325 325 325 325 324 326 326 324 323 322 323 325 330 335 338 338 342 347 348 344 341 342 339 340 341 342 343 343 344 342 344 341 339 339 339 337 337 335 334 335 333
317 317 318 319 318 319 322 322 321 321 321 321 321 323 325 324 322 322 322 324 331 334 338 338 337 343 348 347 345 343 342 340 343 342 344 337 344 343 340 330 326 333 337 337 336 336 336 335 336
316 317 318 318 318 319 318 319 319 318 319 320 320 321 323 324 322 320 321 324 328 333 338 339 340 340 341 337 345 346 344 343 344 343 343 342 330 340 328 340 329 337 338 336 331 331 334 335 336
316 317 317 318 318 317 317 318 319 318 319 319 318 318 320 322 322 321 320 323 325 325 326 330 336 340 337 340 337 344 341 342 343 343 340 334 324 322 322 321 336 338 337 338 338 335 335 337 339
317 317 318 318 318 317 317 317 319 318 318 318 318 318 318 320 320 320 320 321 322 323 317 319 329 336 333 335 335 333 328 325 333 339 334 334 327 321 320 320 326 324 326 330 331 336 339 340 340
318 319 318 318 318 317 317 318 319 318 317 317 317 317 317 318 318 318 319 319 320 321 314 316 328 337 338 335 336 336 336 336 335 334 327 324 324 321 320 321 321 330 332 329 330 334 337 337 343
317 318 318 318 318 317 318 318 318 318 318 317 317 317 317 317 317 317 318 318 320 323 324 314 314 331 337 334 336 337 340 336 338 328 325 324 323 322 321 324 322 331 332 331 335 333 332 335 345
316 316 316 317 317 317 317 318 318 318 318 317 317 317 317 317 317 316 316 317 321 318 316 314 313 315 330 343 336 334 338 333 337 338 334 331 327 324 323 326 324 328 331 332 333 332 331 331 339
315 315 316 316 317 317 316 317 317 318 317 316 316 316 316 317 317 316 316 318 319 320 319 314 313 313 315 327 340 341 336 332 333 335 337 335 334 327 324 327 323 323 326 338 333 332 333 333 341
316 316 316 315 315 316 317 317 319 318 317 317 316 316 316 316 316 316 316 317 318 318 319 321 317 313 316 315 320 334 346 337 335 338 340 334 335 333 331 328 329 324 329 331 333 334 334 335 342
315 315 315 315 315 316 316 317 317 318 317 317 317 316 316 317 317 317 317 317 317 317 318 320 322 322 315 313 314 322 326 339 346 348 349 348 346 340 336 336 331 331 328 334 337 340 337 341 344
314 315 315 315 316 317 317 317 317 318 317 317 316 315 315 317 317 317 317 317 317 317 317 319 321 322 317 314 317 323 322 325 331 335 340 347 346 336 333 332 334 332 331 333 338 341 340 338 347
315 315 316 317 318 318 317 316 317 318 317 317 316 315 315 316 317 317 317 316 317 317 317 318 319 320 322 322 315 314 323 317 323 321 326 341 346 347 349 343 344 338 343 342 341 342 340 346 340
316 317 319 321 319 317 317 317 317 317 316 315 315 315 315 316 317 317 317 316 317 317 317 317 319 320 321 323 323 320 318 321 325 326 331 332 333 343 347 349 349 347 343 342 340 344 346 348 340
315 316 316 317 317 318 318 317 318 317 316 316 316 315 315 315 317 317 316 316 316 317 317 317 318 320 321 322 324 325 325 321 315 318 323 334 333 330 336 341 344 344 342 330 332 341 348 349 343
315 316 319 318 317 317 316 317 317 318 317 317 317 316 316 316 316 316 315 315 315 316 317 317 319 320 320 321 321 322 324 324 324 321 315 315 320 330 326 337 338 336 331 336 339 345 348 347 341
315 316 316 317 317 320 319 318 318 318 318 317 317 316 315 316 316 315 314 314 315 316 316 316 316 318 319 319 320 321 325 326 324 323 324 318 315 317 327 337 335 335 336 342 348 347 347 343 342
316 317 318 321 319 316 316 316 317 317 317 316 316 316 316 316 315 315 315 315 315 315 315 315 315 315 317 318 318 319 322 326 326 323 322 318 322 327 327 335 335 336 339 346 349 346 345 348 348

GFSSGP_850_thetae_069.txt.gz
Theta_e
324 323 326 327 320 321 322 324 326 329 329 326 328 328 338 340 341 343 346 344 341 326 322 322 324 323 327 335 340 341 337 331 326 321 325 329 328 326 322 319 318 317 317 318 318 319 319 319 319
324 324 326 327 321 322 322 326 327 323 325 326 327 327 332 335 337 338 346 347 343 338 323 321 323 323 323 326 336 337 330 326 321 319 323 325 322 319 317 317 318 318 319 319 319 320 320 321 320
324 325 327 323 322 322 324 326 324 324 326 325 326 327 333 335 335 336 340 343 344 342 329 320 321 321 323 323 325 333 324 321 319 318 319 320 319 318 318 319 319 320 320 320 320 320 320 321 321
323 325 327 324 324 324 325 326 325 324 326 326 325 328 332 333 331 336 341 342 346 343 340 321 320 320 321 322 321 329 325 322 319 318 318 319 319 320 320 320 320 320 320 320 320 320 320 320 320
322 323 322 324 324 324 325 326 326 324 324 326 326 326 330 328 328 334 341 341 343 345 343 322 320 320 323 321 321 323 331 325 321 319 319 319 319 320 320 320 320 320 320 320 320 320 320 320 320
319 324 323 323 324 326 327 328 326 324 325 326 328 327 328 328 329 330 338 341 343 343 344 327 320 320 323 323 322 322 327 331 326 321 319 319 319 319 319 320 320 320 320 320 320 320 320 320 320
317 318 322 323 325 325 326 328 325 325 326 326 329 328 328 328 328 328 334 340 344 347 344 332 320 321 323 325 322 322 323 328 328 322 319 319 319 320 319 319 320 320 320 320 319 319 319 319 319
318 318 320 322 325 325 326 326 325 325 325 327 328 328 327 327 328 328 329 341 346 347 345 342 320 319 322 325 325 323 323 325 325 322 320 319 319 319 319 319 319 319 319 319 319 319 318 318 318
318 318 319 321 324 324 325 324 325 326 327 328 327 329 328 327 328 328 327 328 346 347 346 344 323 320 321 323 327 326 325 324 324 323 321 320 319 319 319 319 319 319 319 319 319 318 318 317 317
315 316 318 319 320 321 322 323 325 325 325 326 328 329 329 328 328 327 326 325 337 348 348 344 341 320 321 323 326 327 325 326 326 324 321 320 320 320 320 319 319 319 319 319 319 319 318 318 318
316 316 317 320 321 321 321 322 324 326 324 326 328 329 329 328 327 327 327 325 325 341 352 347 343 333 320 322 325 326 326 325 327 325 322 320 320 320 320 319 319 320 320 320 319 319 319 320 324
314 316 318 319 320 320 320 321 321 322 327 328 328 328 328 328 327 327 326 326 325 328 339 349 344 341 320 321 324 325 326 326 325 324 322 320 320 320 320 321 323 324 328 329 325 322 327 324 329
314 315 318 318 320 320 321 320 320 321 322 328 328 328 328 327 327 327 325 327 325 327 331 343 346 340 329 320 331 336 324 323 323 322 321 320 320 320 320 322 326 327 332 333 331 331 331 329 329
316 316 316 318 318 319 318 319 320 320 320 323 328 328 328 327 326 326 325 324 325 326 335 336 345 344 333 329 340 342 340 337 321 320 320 320 320 320 320 322 324 327 331 337 333 335 332 333 334
316 314 314 315 316 315 318 316 318 319 319 320 324 324 326 325 324 325 325 324 323 324 329 335 346 345 343 337 347 347 343 342 340 326 322 320 321 321 321 323 324 327 329 335 337 332 329 331 332
313 313 313 313 314 316 317 315 316 319 319 319 320 320 320 321 323 322 324 323 322 328 331 334 339 346 345 341 341 347 344 343 340 340 337 334 331 335 329 327 327 331 329 331 331 334 335 333 332
312 312 312 314 315 315 314 315 316 319 319 318 319 319 319 320 321 321 322 322 322 323 331 334 339 342 345 344 341 341 346 343 341 343 341 341 342 342 342 340 332 336 334 331 329 334 334 333 332
312 313 314 315 316 316 315 315 316 318 318 318 319 319 319 319 319 320 321 322 322 322 323 323 329 341 339 338 338 337 345 345 343 344 344 343 345 344 343 342 337 334 335 333 330 329 330 331 330
314 314 314 315 317 317 316 316 316 317 317 317 318 319 319 318 318 319 323 321 321 320 320 319 318 338 341 336 334 336 337 345 344 343 344 345 344 344 342 341 334 330 329 326 328 329 330 331 331
315 314 314 316 316 316 316 317 317 317 317 318 318 318 318 318 318 319 322 321 321 320 320 318 315 330 338 339 335 332 334 334 337 343 342 343 342 341 340 336 332 331 331 327 325 326 326 332 331
314 313 314 314 315 315 315 315 317 317 317 317 317 318 319 318 318 318 320 320 319 320 319 320 318 318 332 337 334 334 332 334 336 336 334 329 332 332 331 331 332 330 330 330 325 323 325 330 330
313 315 315 316 315 313 315 314 315 316 315 316 317 317 319 319 319 318 318 320 321 321 320 319 321 320 316 333 340 339 337 328 333 335 339 334 334 333 335 336 335 335 335 335 334 328 326 329 329
314 316 315 315 314 313 314 312 313 315 315 315 316 317 317 318 319 320 319 318 317 318 319 319 319 320 318 316 331 336 340 340 331 333 331 334 332 332 331 333 334 335 334 336 337 333 330 326 326
315 315 314 313 312 312 313 313 313 314 315 315 316 317 317 317 317 318 318 318 317 318 319 318 318 318 317 315 318 321 325 335 336 327 329 332 332 330 332 333 334 337 340 342 337 335 336 333 329
317 313 311 312 312 314 316 319 317 317 318 316 315 316 317 317 318 318 318 318 317 317 318 318 320 318 320 320 318 315 313 318 321 327 331 336 336 334 333 336 338 340 336 337 336 331 335 337 334
319 319 315 316 315 316 319 321 318 318 317 316 316 317 317 318 318 318 318 318 317 318 317 319 319 320 321 321 321 319 318 315 313 314 316 322 325 329 332 333 337 336 333 332 332 334 337 340 336
320 319 317 318 318 319 317 318 318 318 318 316 315 316 316 318 318 318 318 318 318 317 317 317 317 317 318 318 321 321 323 321 317 314 313 313 317 325 334 336 335 337 337 339 327 328 334 339 340
318 317 320 317 322 320 316 316 322 319 319 319 316 315 316 316 316 318 318 317 317 317 317 317 317 317 316 316 316 317 319 320 320 324 321 318 315 313 317 327 334 337 337 339 333 336 343 346 342
316 317 318 317 317 317 318 316 318 318 317 318 316 316 316 317 317 316 316 317 316 316 317 316 316 316 316 316 316 317 319 319 319 319 320 322 318 315 312 312 313 316 324 336 338 343 345 346 344
315 317 315 319 315 317 316 316 316 316 316 316 316 316 316 316 316 316 316 316 316 316 316 316 316 317 317 317 318 318 316 318 317 317 319 320 319 318 321 317 313 312 314 316 326 341 346 346 344

GFSSGP_850_thetae_072.txt.gz
Theta_e
324 324 324 326 319 317 320 323 324 324 321 324 339 338 338 338 341 342 346 346 342 323 321 325 335 337 339 339 338 336 330 325 320 321 325 332 329 325 322 319 318 318 319 319 319 319 319 319 318
324 324 326 326 319 320 321 324 325 323 324 324 332 335 335 336 343 346 345 343 338 322 321 323 333 338 338 336 333 330 325 320 321 324 327 326 322 320 319 319 319 320 321 321 321 321 322 321 321
323 324 325 320 318 321 322 324 324 324 326 325 325 332 334 335 336 340 343 343 328 324 321 321 328 337 338 334 325 319 321 319 322 324 323 321 319 319 319 320 321 321 322 322 321 321 321 321 321
321 323 326 322 323 323 323 325 324 324 325 326 329 329 331 330 336 339 339 343 342 330 321 320 325 334 336 332 323 319 320 319 321 322 321 320 319 320 320 321 321 321 321 321 321 321 321 320 320
319 321 321 322 323 322 324 325 326 325 323 326 328 328 327 327 336 341 341 341 343 340 329 320 321 330 334 333 326 321 320 319 319 320 320 319 319 320 321 321 321 321 320 321 321 321 320 320 320
318 320 321 322 322 323 324 325 326 325 324 328 328 327 326 327 327 332 343 342 344 343 335 322 319 326 331 332 329 322 321 322 319 319 319 319 320 320 320 320 320 320 320 320 320 320 320 320 320
315 315 319 322 323 324 325 325 324 324 326 327 328 327 327 329 328 328 334 343 345 345 343 325 320 324 330 331 328 323 321 321 321 319 319 319 320 320 320 320 320 320 320 320 320 320 319 319 319
317 315 318 318 320 322 323 324 324 323 325 327 327 327 326 328 329 327 335 342 346 347 342 332 319 321 328 331 329 326 322 321 320 320 319 320 320 320 320 320 320 320 319 319 319 319 319 318 318
317 314 316 318 319 320 322 322 323 324 324 326 327 328 328 328 328 327 330 343 347 349 344 326 321 319 325 330 331 329 323 322 321 321 320 320 320 320 320 320 320 320 319 319 319 318 318 318 318
313 310 315 316 317 318 320 320 321 321 322 323 327 327 327 328 328 328 325 332 348 349 345 326 323 320 321 326 331 333 330 323 322 321 321 320 320 320 320 320 320 320 319 319 319 318 318 318 318
313 314 314 316 318 319 319 320 320 320 320 324 326 328 327 327 328 328 325 325 331 347 348 345 325 324 321 324 328 332 333 327 323 322 321 321 321 320 320 320 320 320 320 320 320 319 319 319 321
311 313 314 316 317 317 317 319 319 319 320 322 325 327 327 327 327 328 327 324 324 332 340 348 345 325 323 321 324 328 330 329 325 323 322 321 321 321 321 321 321 321 321 323 327 325 325 328 325
311 311 314 315 316 317 318 317 318 318 320 321 322 327 326 327 327 327 327 327 325 326 330 338 348 343 324 323 322 325 327 328 327 325 323 322 321 322 321 321 321 322 323 325 328 327 331 333 332
313 313 313 315 315 316 315 316 317 318 320 320 322 327 327 327 326 327 327 326 324 326 326 328 337 346 333 324 323 322 324 327 327 326 324 322 321 321 321 321 321 323 324 325 328 328 332 333 333
313 312 311 312 314 313 315 313 315 317 318 319 319 327 328 328 327 326 326 326 325 325 326 327 327 343 343 325 323 325 323 325 324 324 324 323 321 320 320 320 321 322 324 327 327 330 331 333 332
311 311 310 311 313 314 314 314 314 317 317 318 319 319 325 327 327 325 324 324 324 323 325 329 330 342 342 331 329 330 333 333 335 336 323 320 320 320 320 320 321 322 325 330 330 329 331 331 333
308 309 310 311 312 312 313 314 314 317 316 317 318 318 319 320 322 322 323 324 324 323 323 330 334 343 345 340 338 340 341 338 338 339 337 329 325 324 324 327 328 324 327 332 334 329 331 330 332
309 310 310 311 313 313 312 312 314 316 316 316 317 317 319 319 320 322 322 323 323 323 324 331 335 338 345 342 347 348 347 345 344 341 339 339 338 340 335 338 340 339 337 330 331 327 329 330 331
311 311 311 313 313 314 313 313 313 315 314 314 315 318 319 319 319 319 320 321 323 323 324 327 328 335 345 346 345 344 346 347 345 342 343 341 339 341 341 336 341 341 338 336 335 332 330 334 335
313 313 312 312 314 314 312 313 312 314 314 315 317 317 317 318 318 319 319 320 323 322 321 321 320 319 337 346 347 344 341 339 346 345 342 344 346 336 341 343 341 336 330 332 336 333 330 331 335
314 314 312 313 314 313 312 312 312 314 315 316 316 317 317 318 318 318 319 321 321 321 320 320 320 318 321 337 342 343 341 338 339 344 343 342 340 343 343 343 339 333 331 330 332 334 332 329 328
312 312 314 315 313 312 314 313 312 314 313 313 315 316 316 317 317 318 318 321 321 320 320 319 319 318 315 318 329 338 338 338 337 337 338 337 340 339 335 335 333 336 336 335 334 335 334 333 330
315 314 314 314 312 311 313 311 312 312 313 312 312 314 316 316 316 317 319 320 320 319 319 318 318 318 317 318 317 317 335 331 332 338 339 337 335 337 336 334 336 338 331 334 333 334 335 337 338
317 315 311 310 309 311 312 311 313 312 312 312 313 316 315 315 316 318 319 322 321 320 318 318 317 317 317 317 317 315 318 333 334 334 333 336 337 335 334 331 330 331 330 330 337 337 340 340 338
318 317 316 312 310 313 312 315 313 315 316 316 316 314 316 316 318 318 320 319 318 318 318 318 317 317 317 317 316 315 316 317 319 327 333 334 334 337 335 332 330 332 331 329 338 334 334 334 337
318 316 315 319 314 314 316 317 315 316 317 317 317 314 316 318 318 317 317 318 318 317 317 317 318 318 318 319 319 320 319 319 318 318 317 317 320 324 327 331 336 334 334 334 332 334 333 330 334
318 317 316 318 318 320 316 315 315 316 317 317 317 315 315 317 318 318 318 318 317 317 317 317 317 317 317 318 320 320 319 318 320 319 319 322 318 316 318 327 329 332 332 332 330 331 333 331 333
318 317 315 319 322 322 317 316 315 318 318 317 317 315 315 314 315 317 317 317 317 317 317 317 317 317 317 317 316 316 317 317 317 317 317 319 319 318 318 316 323 331 333 333 336 335 337 334 329
316 317 316 316 319 321 318 313 315 317 316 318 317 317 316 316 316 316 315 317 317 317 317 317 317 317 316 316 316 315 315 317 318 318 317 316 316 316 316 318 321 318 319 321 324 334 336 335 331
315 316 315 316 318 318 317 314 314 314 314 315 316 317 317 316 316 315 316 316 316 316 316 317 317 317 316 316 316 316 317 318 319 319 320 320 317 317 318 318 316 319 324 319 318 319 320 331 335

GFSSGP_850_thetae_075.txt.gz
Theta_e
323 324 324 326 319 317 320 322 322 322 320 335 337 337 338 340 340 339 344 338 341 325 325 331 341 342 340 338 336 332 329 330 332 332 333 332 332 328 322 319 318 318 319 320 320 320 319 319 318
322 323 325 325 318 320 322 322 324 321 323 324 331 333 333 336 344 345 347 342 342 323 323 330 340 342 340 338 337 330 329 325 330 331 331 332 327 322 319 319 319 320 320 321 321 321 321 320 321
322 322 324 319 317 320 322 323 323 323 325 324 327 331 333 334 338 343 341 345 333 322 322 328 337 340 340 338 337 329 326 322 322 324 331 327 321 319 319 319 320 321 322 322 322 321 321 321 321
321 322 324 321 323 322 322 323 323 324 326 328 329 328 327 329 334 340 342 335 326 322 323 326 333 337 338 337 334 326 321 321 321 326 327 322 320 319 320 320 321 322 322 321 321 320 320 320 320
319 320 319 322 323 322 323 324 325 324 324 326 329 326 326 334 338 339 339 339 328 323 323 326 332 335 337 336 330 323 320 322 325 325 322 319 319 320 320 321 321 321 321 320 320 320 320 320 320
318 319 319 321 322 323 323 324 325 324 324 327 327 326 326 326 335 342 342 340 333 331 322 326 332 332 332 332 328 324 320 321 323 322 320 319 319 320 320 321 321 321 320 320 320 319 320 319 320
315 314 318 319 321 321 323 324 324 322 322 323 327 325 327 326 330 336 340 342 336 329 326 323 331 334 332 330 327 324 320 320 321 321 320 320 321 321 321 321 320 320 320 320 319 319 319 319 319
315 311 316 317 320 320 321 323 323 323 323 324 326 326 326 325 328 331 339 342 339 334 329 324 327 333 333 332 329 325 322 320 320 320 320 321 321 321 321 321 321 320 320 320 319 319 318 318 318
315 313 314 316 317 319 320 319 321 321 321 322 321 324 328 325 327 335 340 342 344 335 330 326 325 331 331 330 332 327 324 321 320 320 321 321 321 321 321 321 321 320 320 320 319 319 318 318 317
312 310 313 315 317 316 317 317 318 319 319 319 321 323 327 326 327 331 339 343 346 345 335 328 325 327 332 332 331 329 326 324 321 320 321 321 322 321 321 321 321 320 320 320 319 319 318 318 318
312 312 312 314 316 317 316 317 318 318 317 319 320 320 327 325 325 326 331 334 341 346 344 332 325 324 328 332 333 331 329 327 323 321 321 321 321 321 321 321 321 321 321 320 320 320 320 320 321
311 312 313 314 315 315 315 317 317 318 318 319 319 320 322 327 324 325 326 330 338 346 348 343 328 323 324 329 331 333 328 326 324 322 321 321 321 321 321 321 321 321 321 320 322 326 324 329 327
310 310 312 313 313 314 315 314 315 316 317 318 318 319 322 326 327 324 324 325 329 339 343 347 343 331 324 324 327 330 331 326 324 324 322 321 321 322 322 321 321 321 321 322 326 329 330 333 333
312 312 311 313 314 313 313 314 315 316 316 317 318 321 325 326 326 326 324 324 325 326 330 339 343 347 341 324 322 325 327 327 325 325 324 322 321 321 321 321 321 321 322 324 326 330 332 334 334
312 311 309 311 313 312 313 312 313 315 317 319 319 319 322 326 326 327 327 326 325 325 326 328 329 335 344 345 327 322 324 327 328 326 325 324 322 321 321 321 321 321 321 324 326 327 330 331 332
309 309 309 310 312 312 313 313 313 316 315 317 317 318 319 321 325 326 326 326 325 325 326 326 327 332 336 344 343 329 322 325 326 327 325 324 324 323 322 321 321 321 321 322 325 327 328 328 330
306 307 309 309 310 311 312 311 312 315 315 313 314 316 317 319 319 325 326 326 325 325 325 325 326 327 334 340 340 331 325 327 327 326 325 324 324 323 322 321 320 320 321 321 324 330 332 328 328
308 308 309 309 310 311 310 311 311 314 314 314 314 314 316 318 319 323 325 325 324 324 323 325 326 324 329 343 341 333 331 335 340 337 333 332 327 322 321 320 320 322 326 327 326 330 334 333 330
309 309 310 311 312 311 311 312 311 312 313 313 314 313 316 317 318 318 320 322 323 325 325 329 328 325 334 343 343 336 338 338 336 332 338 340 334 329 325 329 331 337 338 339 340 339 337 336 334
310 310 311 311 312 310 311 311 311 311 312 314 314 313 315 318 318 318 319 322 323 323 325 330 332 335 333 336 344 341 345 343 341 340 333 331 340 339 340 337 342 343 342 342 342 339 338 336 334
311 311 311 312 313 312 312 311 311 312 313 315 315 315 315 317 318 318 319 320 321 322 323 325 327 332 334 338 342 344 343 342 343 342 342 341 342 342 341 339 338 340 344 341 337 334 335 334 335
314 313 313 312 313 311 312 312 311 311 311 311 312 314 315 315 316 317 318 320 321 321 322 323 321 319 323 333 338 340 339 341 341 340 339 340 341 340 340 336 338 337 336 338 333 337 337 337 336
316 315 312 312 311 310 311 310 310 311 311 311 310 313 316 316 316 315 316 318 318 321 322 320 320 320 319 319 317 320 331 341 341 340 339 338 339 339 339 338 331 331 336 333 333 334 336 335 336
316 315 313 309 308 310 311 310 311 312 310 311 313 316 317 317 317 317 317 315 320 321 320 320 319 319 318 318 317 317 317 317 318 332 336 335 335 335 335 336 338 334 331 331 330 330 333 335 336
315 316 315 314 312 315 311 311 312 311 312 314 315 315 316 316 317 317 316 315 321 321 320 319 318 318 317 317 317 316 316 316 316 320 325 327 332 334 336 335 337 336 335 334 331 330 331 331 330
317 316 316 322 319 314 314 315 313 313 315 316 315 314 314 315 315 316 316 316 321 321 319 318 317 317 317 316 316 316 316 316 316 316 316 317 318 320 323 328 331 332 335 336 336 336 335 333 333
317 317 317 317 316 317 314 314 314 314 315 315 315 315 314 315 315 316 318 320 321 319 317 317 317 317 316 315 315 316 316 317 317 317 317 316 316 316 315 317 324 329 328 330 335 336 333 331 330
315 316 318 317 320 320 316 315 315 315 316 315 315 313 315 315 316 316 315 317 318 318 317 317 316 316 315 315 316 317 317 318 316 316 316 316 317 318 318 319 318 318 324 331 331 332 332 331 333
312 316 318 317 318 315 315 315 314 317 315 315 314 315 315 315 316 315 316 316 315 315 317 317 317 316 316 316 316 316 314 315 316 317 317 317 317 317 316 317 317 317 318 319 320 323 329 328 333
313 314 316 316 317 318 316 313 314 314 313 312 313 316 316 316 315 316 316 316 316 316 316 317 317 317 317 317 317 316 315 315 316 316 317 317 317 318 318 317 319 318 317 316 316 319 321 319 322

GFSSGP_850_thetae_078.txt.gz
Theta_e
323 323 324 325 318 317 320 320 321 321 321 325 323 336 338 338 338 337 343 337 333 327 326 338 340 340 338 337 334 333 341 343 344 343 342 337 331 326 323 320 319 319 319 319 319 318 318 319 321
323 323 324 324 318 320 321 320 322 322 324 323 325 330 333 335 343 345 344 334 335 329 326 334 340 340 338 336 334 331 331 335 337 338 336 333 329 324 320 319 319 319 320 320 320 320 320 320 321
322 322 323 318 316 319 321 323 323 323 326 324 324 330 332 332 338 343 344 337 341 330 327 339 341 340 339 337 335 330 328 330 332 332 332 331 326 322 319 319 319 320 320 321 321 321 320 320 321
322 321 322 321 322 322 321 322 324 323 326 325 326 326 326 331 335 342 340 342 334 325 325 338 341 340 339 337 335 329 326 325 331 331 331 328 323 320 319 319 320 320 321 321 321 320 319 319 320
320 320 319 322 323 322 322 324 324 323 324 324 326 325 326 335 338 339 340 336 327 323 323 336 342 341 339 337 336 329 326 321 324 328 328 323 320 319 320 321 321 321 321 320 320 320 320 319 319
318 318 318 320 322 323 322 323 324 323 323 324 324 324 326 330 338 340 339 336 327 323 322 332 340 341 339 337 336 329 323 320 320 326 324 321 320 320 321 322 322 321 321 320 320 320 319 319 319
314 314 317 319 321 321 322 323 323 321 322 323 323 325 326 328 333 338 341 338 330 324 323 327 335 340 339 337 333 328 323 321 322 324 321 320 320 321 322 322 321 321 321 320 320 320 319 319 319
315 312 315 317 320 320 320 322 322 322 322 322 322 323 322 326 331 336 341 339 337 327 324 328 335 339 338 337 332 327 323 324 325 322 321 320 321 322 322 322 321 321 320 320 319 319 319 318 318
315 312 313 315 317 318 319 318 319 320 319 319 320 320 321 322 327 335 340 338 335 330 328 326 332 337 338 336 332 329 325 323 325 322 321 321 322 322 322 321 320 320 320 319 319 318 318 318 318
312 310 314 313 316 316 316 316 317 317 318 318 319 320 320 323 326 333 336 340 341 334 330 328 327 332 336 336 333 329 325 322 322 322 320 321 322 322 322 321 320 320 319 319 319 318 318 318 318
310 311 311 313 316 316 315 315 316 317 315 317 318 319 319 324 336 333 336 334 336 341 336 332 327 327 332 333 333 331 327 324 321 320 319 320 321 321 321 321 321 320 319 319 319 319 319 320 320
312 311 313 314 315 315 314 315 315 316 316 318 317 317 318 318 324 333 333 336 339 341 343 338 331 326 328 332 332 331 329 326 324 321 320 320 320 321 321 321 321 320 320 319 319 322 327 323 327
309 310 311 312 312 312 313 312 313 314 315 316 317 317 318 318 318 324 329 331 337 339 345 345 338 330 325 327 329 330 329 328 327 324 321 320 320 321 321 321 321 320 320 320 321 327 329 330 331
310 310 311 312 312 312 312 312 313 314 315 316 316 317 319 319 321 324 327 328 332 335 338 345 345 338 329 324 324 327 327 326 325 324 322 321 321 321 321 321 320 320 320 320 322 326 330 331 332
311 310 308 310 312 312 312 311 311 315 315 315 316 317 319 319 323 325 325 325 327 328 333 339 345 343 335 329 325 323 327 329 330 326 324 323 321 321 321 320 320 320 320 322 326 326 327 329 330
309 307 308 308 310 312 312 312 312 314 314 314 316 316 317 317 317 325 325 324 324 325 326 331 338 343 344 342 335 328 324 324 325 329 330 329 326 323 321 321 320 320 320 321 324 328 328 327 328
304 307 308 308 309 309 310 310 311 314 313 312 314 315 315 316 317 317 323 324 325 325 326 326 327 328 330 338 341 337 329 334 330 324 331 332 332 332 329 326 322 321 320 320 321 326 331 333 332
308 308 308 309 310 309 308 309 309 312 313 313 313 313 314 315 317 317 317 321 324 325 325 326 325 326 328 335 341 340 336 329 329 324 325 329 333 334 333 331 328 324 321 320 320 323 329 337 339
309 309 308 309 310 310 309 310 309 311 311 311 313 314 314 316 316 316 317 318 324 324 324 325 325 325 326 330 339 342 339 337 330 329 324 325 329 333 331 330 331 328 323 320 323 332 339 341 341
309 309 309 309 310 309 309 310 309 309 310 313 313 314 315 316 315 315 317 317 323 325 324 324 324 325 326 329 336 341 341 339 333 331 332 335 329 331 339 335 328 327 327 326 337 341 341 340 341
310 310 310 310 311 311 310 311 310 310 311 314 314 315 314 314 315 315 316 317 318 323 323 323 323 324 326 330 336 341 341 340 335 338 336 332 331 330 335 337 338 334 333 338 342 340 336 338 341
311 311 312 313 312 311 310 312 311 309 309 310 312 313 314 314 315 315 316 319 320 321 324 327 327 329 330 333 337 342 341 336 340 337 337 338 338 333 333 331 329 331 339 342 341 333 334 336 336
314 315 314 312 310 309 310 309 311 309 309 309 310 314 314 314 316 316 316 316 318 323 325 326 328 331 333 335 332 334 332 333 333 337 336 336 337 333 337 336 337 336 336 327 332 332 330 328 331
315 315 314 308 307 311 312 310 313 313 309 309 310 312 315 316 316 316 316 316 316 317 322 324 323 323 323 322 324 325 326 328 330 335 337 337 335 335 335 337 338 338 337 336 334 332 331 329 328
315 314 315 315 313 316 311 309 312 311 310 309 310 314 314 315 316 316 316 316 315 316 316 323 321 320 319 318 318 317 317 317 317 317 317 320 328 335 335 336 336 335 335 337 334 333 331 331 330
316 314 314 316 316 314 313 316 313 312 313 314 314 314 315 315 315 316 316 315 315 315 316 322 320 318 318 318 317 317 316 316 316 316 317 319 324 328 331 332 334 335 335 334 335 335 334 333 332
316 315 313 311 314 318 313 312 312 312 314 314 314 314 315 315 315 315 316 317 315 315 316 322 320 319 317 317 316 315 315 315 316 316 316 317 318 318 319 322 325 328 330 331 333 334 336 335 334
315 313 312 315 318 320 315 314 314 314 315 313 313 313 314 315 315 316 316 316 318 320 322 321 318 317 317 316 315 314 314 315 317 317 317 319 319 322 321 320 318 319 323 327 329 331 333 334 334
310 313 315 316 316 319 319 314 314 315 314 314 312 312 313 314 315 315 316 316 316 317 318 319 318 317 316 315 314 315 315 314 314 316 317 318 318 317 317 318 317 318 317 316 317 319 321 323 324
308 309 311 310 311 314 316 315 313 312 311 312 312 312 313 314 314 315 315 315 316 316 316 316 318 317 316 316 316 316 316 315 313 314 317 317 317 317 318 318 317 317 318 318 318 318 316 317 318

GFSSGP_850_thetae_081.txt.gz
Theta_e
323 323 323 325 325 324 325 325 324 328 328 325 323 338 341 340 343 344 343 336 332 329 329 341 344 343 340 339 338 341 343 346 347 346 345 341 330 324 321 320 320 320 319 318 318 317 317 319 324
323 323 323 324 325 325 327 324 326 327 326 324 323 329 336 340 342 345 343 332 331 329 329 340 342 340 339 337 338 340 342 345 345 344 341 336 327 322 320 320 319 319 319 319 318 318 319 321 325
321 322 324 325 324 325 325 325 326 327 325 327 328 329 332 335 335 344 342 334 331 329 327 334 340 339 337 336 337 339 343 344 344 343 339 332 323 321 320 320 320 320 320 320 320 319 320 321 323
320 322 322 325 325 324 323 325 326 327 327 325 325 329 327 331 333 342 340 338 337 331 326 330 339 339 337 336 334 333 336 341 341 339 335 329 322 320 320 320 320 321 321 321 321 320 320 320 321
320 321 324 326 325 324 324 324 325 326 326 326 325 327 328 334 337 341 341 339 339 331 325 328 338 340 337 336 335 332 330 332 334 333 332 327 322 320 320 321 321 321 321 321 320 320 319 319 319
320 320 323 325 324 324 324 324 324 324 324 325 324 324 327 329 339 339 339 339 333 327 326 329 335 339 338 337 336 333 329 329 332 331 330 325 321 320 321 321 321 321 321 320 320 320 319 319 319
319 321 321 322 323 323 323 323 324 323 323 324 323 326 325 324 325 341 340 337 330 326 325 329 337 339 339 338 337 334 329 326 329 331 329 323 320 320 321 321 321 320 320 320 319 319 319 319 319
316 320 320 321 320 321 321 322 321 322 322 321 321 325 323 321 320 329 341 338 333 326 325 326 335 340 339 338 338 335 326 325 325 327 330 324 320 320 321 321 320 320 319 319 319 319 318 318 318
315 319 319 319 320 320 318 320 319 318 319 319 320 320 320 320 321 325 340 339 335 328 325 326 331 335 339 338 337 335 326 321 321 325 329 324 320 320 321 321 320 319 319 319 319 318 318 317 317
316 318 318 317 318 319 318 318 318 318 318 318 318 319 319 320 319 330 329 340 336 332 328 325 327 331 336 338 337 335 328 323 323 327 328 324 319 320 320 320 320 319 319 319 318 318 318 318 317
313 316 315 315 316 317 317 317 317 317 318 318 318 318 319 318 319 320 336 340 339 336 331 330 327 328 332 338 337 335 329 324 324 327 326 322 319 319 320 320 319 319 319 319 318 318 318 318 319
315 314 315 315 315 316 316 315 315 315 316 316 316 316 317 317 319 319 328 333 340 337 337 333 331 328 329 335 337 336 330 324 322 325 325 322 320 319 320 320 320 319 319 319 318 318 320 327 323
313 313 312 313 312 312 313 313 315 315 315 316 316 316 316 318 318 319 319 320 334 339 338 339 336 333 329 330 334 334 331 326 323 321 322 321 320 320 320 320 320 319 319 319 319 319 329 329 331
311 311 312 312 313 313 314 315 313 315 315 315 315 316 316 317 318 318 319 320 322 336 339 341 340 336 334 328 328 330 331 329 325 322 320 320 320 320 320 320 320 319 319 319 319 322 331 333 332
311 313 312 313 314 314 313 315 315 315 314 314 315 316 316 316 318 319 322 322 325 332 330 338 342 343 342 335 328 328 332 332 328 324 322 321 320 320 320 320 320 320 319 319 320 324 327 332 333
312 312 314 313 312 313 312 315 315 313 314 315 314 315 316 316 316 316 316 322 325 328 327 333 336 343 344 341 333 328 330 333 333 328 324 322 321 321 321 321 320 320 320 320 321 324 329 331 333
311 312 313 314 313 313 313 314 315 315 314 315 315 315 315 315 316 316 316 317 319 324 326 330 335 339 338 342 337 330 328 329 332 332 330 327 325 322 322 323 323 322 321 322 321 321 324 329 331
312 313 312 313 315 314 314 315 315 314 314 314 315 315 314 315 315 316 316 317 317 320 325 329 334 334 340 344 340 334 331 330 329 328 328 331 328 329 324 325 325 327 327 324 322 321 323 326 331
312 312 313 314 314 313 315 316 316 315 314 315 316 316 315 314 315 316 316 316 317 316 321 324 331 331 333 338 337 339 338 337 334 331 329 330 327 328 329 329 328 328 330 329 327 325 324 327 339
313 314 315 314 314 314 316 316 316 315 315 315 315 315 316 316 315 315 316 316 315 316 317 323 326 332 328 329 332 335 337 339 339 337 330 330 327 327 325 330 327 327 328 329 331 326 324 335 343
314 314 315 315 315 316 316 316 316 316 314 314 315 315 315 315 315 315 315 315 316 316 317 321 325 328 328 330 337 337 339 341 341 340 334 329 328 328 332 336 339 339 337 329 325 325 331 340 341
315 314 314 316 318 317 316 319 317 317 317 316 315 315 315 315 314 314 314 315 316 316 317 320 323 329 328 331 334 333 332 334 335 340 335 330 329 333 335 331 334 335 333 337 333 331 340 341 335
315 316 317 317 318 317 317 317 316 317 316 317 317 315 315 315 314 314 316 316 315 316 317 320 322 324 327 330 333 332 335 336 340 338 335 337 338 338 337 336 334 337 339 339 333 338 339 334 331
317 317 318 316 317 317 316 317 317 316 317 316 315 314 314 316 316 315 316 316 316 316 316 320 324 330 334 334 332 333 331 334 339 338 339 336 337 337 337 338 337 333 331 330 337 330 330 330 330
318 318 317 317 317 317 315 316 315 316 315 316 316 316 316 316 316 316 316 316 316 316 316 316 322 329 333 334 333 335 337 339 335 336 335 335 336 336 333 333 332 331 330 329 334 332 332 328 328
318 316 315 316 313 314 314 315 314 315 316 316 316 316 316 316 317 316 316 316 317 316 316 315 316 318 324 328 333 335 336 330 322 319 319 320 320 324 329 335 337 337 336 336 335 336 335 334 330
317 316 317 319 315 315 313 314 316 316 318 317 316 316 316 316 315 317 317 316 316 318 316 314 315 317 322 324 330 322 317 317 316 316 316 316 316 316 319 328 332 334 337 337 337 338 338 336 335
317 316 317 316 316 314 313 317 317 317 318 317 317 315 315 315 315 315 316 317 316 316 319 318 316 318 323 322 318 316 316 315 315 315 315 315 315 317 319 323 326 329 331 333 333 335 335 336 336
316 317 317 315 315 316 315 314 316 316 317 316 315 314 313 313 314 314 315 316 317 317 315 320 320 321 320 317 316 315 314 314 314 314 315 315 318 319 319 320 321 322 322 324 324 325 327 328 328
312 312 313 315 314 317 316 314 313 316 315 314 315 314 313 312 312 312 312 314 315 316 316 316 317 319 317 317 316 316 315 315 314 314 315 316 317 320 318 321 320 319 317 316 317 316 315 316 317

GFSSGP_850_thetae_084.txt.gz
Theta_e
323 323 324 326 330 332 336 334 331 332 331 329 330 340 341 342 346 350 351 349 344 348 336 333 338 345 346 345 344 343 343 345 346 345 343 340 332 325 323 323 327 329 326 322 319 318 319 321 327
322 323 325 326 330 334 337 332 333 331 330 330 328 333 340 342 343 350 350 347 346 349 332 337 339 344 345 342 340 340 342 345 346 345 344 341 329 324 322 321 321 321 321 319 319 318 319 324 328
321 322 326 328 330 333 334 330 330 330 330 330 332 333 336 339 338 348 351 340 347 346 332 339 340 343 342 340 340 341 344 345 346 345 343 339 327 322 321 320 320 320 319 320 320 319 321 325 327
321 324 325 328 329 329 329 330 329 330 330 329 330 334 333 332 337 345 348 346 348 347 341 331 339 340 339 339 340 340 341 346 346 345 342 337 325 321 320 320 320 320 320 321 321 321 321 322 324
320 324 328 329 328 327 327 327 328 329 330 329 329 331 334 338 350 352 348 349 348 348 348 332 338 339 338 338 339 339 341 346 346 344 341 334 324 321 320 320 320 321 321 321 321 320 319 320 321
321 323 328 329 328 326 326 326 326 327 327 329 329 329 331 328 334 352 350 349 348 348 348 335 338 339 338 337 337 338 340 344 345 343 339 333 325 321 320 320 321 321 321 320 320 319 319 319 319
320 324 326 328 328 326 326 325 326 327 326 327 326 329 329 326 326 344 352 352 348 346 347 348 337 339 338 337 335 334 333 333 337 339 336 332 326 322 320 320 320 320 320 319 319 319 319 319 319
319 322 324 324 325 325 324 323 324 324 325 324 323 329 330 325 327 335 350 351 348 345 345 347 346 339 339 338 337 336 333 330 328 333 334 332 327 322 320 320 320 320 319 319 319 319 319 319 318
318 321 321 322 321 322 321 322 323 321 321 321 322 323 324 323 327 334 344 351 348 345 344 347 348 348 345 344 338 336 334 330 327 327 332 332 329 324 321 319 320 319 319 319 319 318 318 318 317
318 320 320 321 321 321 320 320 320 320 320 320 321 320 321 322 322 328 335 342 349 347 344 347 349 349 348 345 345 337 336 331 329 324 328 332 333 339 336 330 319 319 319 319 318 318 318 317 326
318 319 320 320 319 319 320 319 318 319 320 320 320 320 320 321 322 321 324 335 343 348 346 347 350 350 349 346 347 345 343 339 331 326 325 330 339 338 333 336 320 318 318 318 318 318 317 327 330
318 318 318 318 318 318 319 318 319 319 319 319 319 318 319 319 321 322 322 325 338 345 346 346 348 350 346 347 347 347 345 343 339 334 327 341 338 336 334 335 334 325 332 326 332 331 329 321 323
318 318 317 317 317 317 317 317 318 318 317 317 318 318 318 319 320 321 322 322 331 340 345 347 348 351 349 342 347 346 346 343 340 339 328 335 341 332 326 332 334 336 334 331 329 327 320 326 329
316 316 316 316 316 317 317 318 317 317 317 317 318 318 319 319 319 320 321 322 324 331 342 348 349 349 346 343 341 336 338 345 342 339 338 326 325 324 321 320 321 324 331 333 332 329 324 332 339
315 317 317 317 317 318 317 318 319 318 317 317 317 318 318 318 319 320 322 324 326 328 336 345 346 350 345 337 334 339 338 341 343 340 333 324 324 322 321 321 321 321 320 320 320 319 320 330 337
316 317 318 318 317 316 315 317 318 317 317 317 317 317 317 318 319 319 320 320 322 325 337 346 345 349 347 345 339 345 344 339 344 343 342 324 321 321 321 321 320 323 323 322 320 323 334 341 340
317 316 316 316 316 317 317 317 318 317 317 317 317 318 318 318 318 319 319 320 320 319 320 340 349 349 340 344 345 347 348 347 345 345 344 340 324 322 320 321 324 321 320 321 321 327 336 337 340
317 316 316 317 317 317 318 318 318 318 317 318 318 317 317 317 318 318 319 319 316 317 317 317 336 343 341 349 350 349 349 348 346 345 346 346 342 328 324 327 330 321 321 329 321 324 330 336 338
316 316 316 317 318 318 318 319 319 318 318 318 318 318 318 318 318 318 318 319 316 316 317 317 317 322 332 349 348 349 348 348 347 346 346 346 344 336 334 334 329 324 326 329 329 325 325 333 339
316 316 317 318 318 318 319 319 319 319 319 318 318 318 318 318 317 318 318 318 320 316 316 317 317 321 325 335 343 348 349 348 348 347 347 341 334 334 330 331 342 340 337 330 331 331 336 336 338
317 317 318 318 318 319 320 320 320 320 319 318 318 318 317 317 317 317 317 318 319 322 320 316 316 321 326 332 346 348 348 347 347 346 345 339 336 330 330 329 335 344 342 342 336 332 334 335 341
318 318 317 318 319 321 320 321 320 320 320 320 318 318 318 318 317 317 318 318 318 320 322 324 318 317 334 346 346 346 345 344 342 345 346 344 339 336 330 328 328 328 335 336 342 339 341 334 341
318 318 318 319 320 321 320 321 320 320 320 319 319 318 316 316 317 318 319 319 320 320 320 322 323 325 326 343 344 346 346 344 345 345 346 344 341 337 330 329 331 336 335 335 338 336 334 330 336
318 318 319 320 321 322 320 320 320 319 317 317 317 317 317 319 319 319 319 319 320 320 321 320 325 327 334 341 344 346 345 343 343 345 345 345 342 336 331 333 335 334 332 332 333 334 336 335 334
319 320 322 321 321 321 317 316 317 317 318 319 318 318 319 319 319 319 319 319 319 320 322 323 321 328 336 340 343 344 345 346 346 346 345 343 341 344 344 339 338 338 338 338 336 333 330 330 332
319 320 320 321 319 317 315 315 317 317 317 318 318 318 318 319 319 319 319 319 319 319 320 323 322 324 331 341 343 344 345 347 347 346 342 341 337 340 343 344 343 342 339 335 332 329 329 328 326
319 319 318 318 317 317 316 315 316 319 319 318 318 318 318 318 318 318 318 319 319 320 320 321 324 323 326 335 342 344 347 347 345 344 345 342 341 339 343 343 343 343 343 342 339 335 335 335 332
316 317 318 317 319 316 314 314 315 317 317 317 317 316 317 316 316 317 317 317 319 319 320 320 324 325 325 330 335 339 340 339 336 332 324 328 329 322 328 321 329 336 338 339 338 338 338 338 337
318 316 316 317 318 318 316 314 316 315 315 317 317 314 316 316 316 315 315 315 316 317 317 320 320 324 325 327 329 330 329 326 323 317 316 316 316 315 317 326 331 334 336 338 340 338 338 339 339
314 314 316 320 317 317 318 317 315 316 317 317 315 315 316 316 315 315 314 314 314 314 315 318 320 319 322 323 325 325 327 326 325 321 321 324 321 319 325 326 327 328 332 335 336 337 336 337 337

GFSSGP_850_thetae_087.txt.gz
Theta_e
323 325 325 327 332 335 338 339 338 336 334 332 332 336 340 340 348 357 351 348 346 354 335 334 336 341 346 346 343 343 344 344 341 338 338 335 331 324 324 330 331 329 327 324 321 319 320 325 326
323 324 326 328 334 338 339 338 337 336 334 332 331 333 336 343 342 351 352 346 347 354 332 332 336 341 345 345 344 344 345 346 344 341 340 337 330 324 323 327 329 327 325 321 319 320 322 326 328
322 324 326 331 333 336 337 337 335 333 332 333 334 334 338 339 339 349 352 346 348 353 342 332 336 341 345 345 344 343 344 345 346 344 342 339 330 325 322 322 323 323 321 320 319 320 323 326 327
322 324 326 330 332 334 334 336 334 333 332 331 332 336 336 346 347 350 349 347 350 352 350 332 336 342 344 343 341 340 342 344 346 345 343 341 330 326 323 322 321 321 320 319 320 320 322 324 325
322 324 329 330 330 332 331 331 331 333 334 332 330 334 337 340 350 351 347 349 349 350 351 339 337 341 341 339 338 340 342 344 346 345 343 341 332 326 323 321 321 320 320 320 320 320 320 321 322
323 325 329 332 332 330 330 329 329 331 331 332 331 331 334 331 343 350 348 348 348 348 350 343 336 339 339 338 337 337 340 342 346 345 344 342 334 328 323 321 321 320 320 320 320 319 319 319 320
323 327 328 330 331 331 330 328 329 330 330 330 330 331 332 329 331 346 349 349 348 348 348 354 336 339 339 338 337 336 338 343 346 345 344 342 335 328 324 321 320 320 320 320 320 319 319 319 319
320 325 328 329 330 331 330 328 328 328 329 327 327 330 332 328 330 336 348 348 347 347 347 351 349 340 339 338 337 336 337 342 345 344 344 341 337 331 325 321 320 320 320 319 319 319 319 319 319
319 323 325 325 328 328 327 328 325 326 325 326 325 326 328 326 326 331 341 347 346 345 346 349 349 349 347 346 339 336 336 336 336 340 339 338 336 331 326 322 321 319 319 319 319 319 319 319 318
321 321 322 323 324 325 324 324 325 326 326 325 325 324 324 324 325 326 332 340 346 346 345 346 350 350 348 344 346 337 335 334 333 334 336 336 335 342 339 333 321 320 319 318 318 318 318 318 320
319 321 321 321 321 322 323 322 321 322 323 323 324 324 324 323 324 325 325 328 337 345 345 344 350 352 350 346 346 347 344 343 337 338 338 333 340 341 340 338 329 320 319 318 318 318 318 318 329
320 320 320 321 321 320 320 320 320 320 321 321 321 321 321 322 322 324 326 326 327 337 347 346 348 353 352 349 347 348 345 345 343 341 341 342 341 341 340 337 340 326 329 320 332 330 329 330 333
320 321 320 320 320 319 319 320 320 320 320 320 319 320 320 320 321 322 324 326 326 330 342 348 348 352 354 349 348 348 347 345 344 341 340 341 343 342 341 338 338 336 333 334 332 334 335 335 330
320 320 320 320 319 319 319 319 319 319 319 319 319 320 320 321 321 321 321 324 325 327 334 343 348 349 353 353 350 348 348 346 345 341 340 338 344 343 342 337 336 337 337 335 336 335 334 334 339
319 319 319 320 319 320 319 320 320 320 320 320 320 320 320 320 320 321 321 323 326 328 328 333 345 350 351 352 351 351 349 348 347 343 341 340 340 344 337 337 338 338 337 335 335 334 332 330 340
319 319 320 321 320 320 318 319 321 320 319 319 319 319 319 319 320 320 321 322 323 324 327 333 339 347 351 352 351 351 351 349 347 346 341 340 338 340 339 339 338 338 337 337 331 327 329 334 337
319 320 320 321 320 319 319 320 320 319 319 319 319 319 319 320 320 320 320 321 322 323 326 329 342 348 350 353 352 351 351 350 347 347 345 342 336 328 332 332 337 337 338 337 336 333 330 335 339
320 320 319 319 320 319 319 320 320 320 320 320 320 320 320 319 319 320 320 320 321 322 323 321 318 341 352 352 351 352 350 351 349 347 346 344 343 337 327 338 333 331 330 336 334 333 334 336 337
319 319 319 320 320 320 320 320 321 320 320 320 320 320 320 320 320 320 320 320 320 321 325 326 318 317 342 349 352 352 352 351 351 348 347 346 345 344 335 327 334 338 335 335 334 334 333 336 336
319 319 319 319 320 320 320 321 321 322 321 321 320 320 320 320 319 319 319 320 320 320 321 325 329 324 326 343 348 349 349 352 351 351 348 347 347 347 345 337 339 340 339 338 336 331 334 334 335
318 318 319 320 320 320 321 322 324 324 322 321 320 320 320 320 320 319 319 319 320 320 321 322 324 329 329 343 346 349 351 351 351 350 350 349 347 348 346 344 342 343 341 341 338 342 335 339 338
320 320 320 320 321 322 323 324 324 323 323 323 321 321 321 320 320 319 319 319 321 322 322 322 323 324 329 330 342 345 349 350 349 349 350 350 349 347 347 345 345 341 348 345 346 345 345 340 339
320 320 320 321 322 323 323 324 324 324 323 322 321 319 319 319 319 320 320 321 321 321 322 322 322 322 323 329 334 342 345 347 348 349 348 348 348 345 346 345 345 344 343 346 342 343 341 342 337
320 320 321 321 322 324 324 325 324 323 321 320 320 320 319 320 321 321 320 320 321 321 321 322 323 324 324 328 331 339 341 344 346 347 346 347 348 347 345 346 344 343 343 343 338 334 336 339 338
321 323 324 324 325 325 323 320 321 320 320 320 320 319 320 320 320 320 320 320 320 321 321 322 323 326 326 325 333 336 341 342 346 343 343 346 348 348 346 344 343 343 342 343 340 334 335 334 334
321 322 325 326 324 324 323 320 319 319 319 319 319 320 319 319 319 319 319 320 320 320 321 322 323 325 328 325 329 337 339 342 343 345 342 345 345 345 345 343 343 342 344 343 341 336 338 336 336
320 320 321 323 321 320 319 319 319 320 320 319 318 317 317 318 318 318 318 318 319 319 320 321 322 323 327 327 327 333 337 340 341 344 343 346 337 336 342 339 341 345 346 344 342 342 341 340 337
319 318 321 321 322 323 318 317 317 320 319 317 317 317 316 315 316 317 317 317 317 318 318 319 320 322 323 327 328 330 338 337 340 341 341 340 343 337 341 330 338 342 344 343 342 342 339 338 338
319 320 318 318 320 323 321 318 318 318 318 317 318 317 316 317 317 317 316 316 316 317 317 317 319 321 322 324 327 330 334 337 337 337 336 337 343 339 339 345 343 343 342 342 341 341 340 338 340
317 317 318 322 322 319 320 319 318 317 317 317 316 316 316 316 317 316 316 316 316 316 316 316 316 318 320 321 324 328 330 332 333 333 323 324 335 336 334 336 335 335 336 337 339 339 339 339 340

GFSSGP_850_thetae_093.txt.gz
Theta_e
322 323 325 324 326 325 330 333 333 335 336 332 333 332 346 351 354 357 354 353 343 328 335 339 336 339 343 341 339 338 334 334 335 335 332 330 324 323 326 325 324 323 324 323 322 322 323 326 327
322 322 323 325 324 327 330 332 334 333 334 333 332 339 342 352 349 352 353 353 350 331 332 337 336 341 343 341 339 339 338 337 336 336 333 328 324 325 324 323 324 324 323 321 320 322 325 326 327
321 321 322 321 322 326 329 331 336 334 335 334 333 343 346 348 353 350 352 353 349 331 333 335 336 340 343 341 340 341 341 339 337 337 334 327 323 326 327 326 325 323 322 321 321 323 326 326 326
319 322 323 321 322 325 329 330 332 336 336 333 335 346 348 349 351 350 354 352 351 335 333 334 337 340 343 342 341 341 343 343 339 338 338 327 323 324 326 326 325 323 321 321 321 323 324 324 324
318 320 320 321 322 325 327 331 334 335 335 332 340 343 350 350 349 350 352 351 349 332 333 335 338 342 343 343 342 341 342 344 344 339 339 334 324 323 322 323 323 322 321 321 321 321 323 323 323
319 322 320 322 323 325 327 329 333 334 331 333 335 337 348 349 348 348 350 350 350 342 334 334 337 342 343 343 343 342 341 342 345 344 340 340 330 325 323 322 321 321 321 322 321 321 321 321 321
317 317 320 321 324 327 328 330 330 329 329 329 333 331 332 338 349 349 349 349 349 349 347 334 335 340 343 343 342 341 340 340 343 345 343 341 337 328 325 322 322 321 321 322 321 320 319 320 320
318 316 319 322 324 325 327 331 331 330 329 328 330 328 328 331 332 348 348 348 348 349 348 349 333 337 341 342 340 338 337 339 342 344 345 342 340 334 326 323 322 321 321 322 321 320 320 319 319
318 316 319 320 323 325 327 329 331 330 328 327 327 328 327 326 326 331 344 348 348 348 348 347 347 331 338 339 338 337 336 338 341 344 345 343 342 340 332 326 323 321 321 322 321 320 320 320 319
315 316 318 320 322 323 324 324 328 326 327 326 327 328 327 325 325 328 328 336 347 349 348 347 347 343 331 337 338 337 335 334 337 343 345 344 343 343 338 331 324 321 321 321 321 320 320 320 319
316 315 317 320 322 322 322 323 323 321 323 325 323 325 325 324 324 325 327 327 330 348 348 345 349 348 346 334 334 337 336 334 334 338 344 344 343 343 340 336 330 323 321 321 322 321 320 320 319
314 317 317 319 320 321 320 323 324 321 320 321 321 321 322 322 323 323 323 325 326 327 340 349 350 349 349 343 340 340 339 336 334 331 333 340 342 341 339 336 331 325 321 321 322 321 320 320 319
315 316 318 319 319 319 321 320 321 320 320 320 320 321 321 321 321 321 322 322 323 323 332 343 348 345 340 332 342 345 345 345 343 335 333 330 331 335 336 336 332 328 324 322 322 322 321 320 320
318 317 318 319 319 319 319 319 320 320 320 320 320 320 320 320 320 321 321 321 322 322 329 340 339 342 340 332 344 347 346 347 347 342 336 334 331 326 330 332 334 331 325 325 323 323 321 321 323
318 317 317 317 319 319 320 318 318 320 320 319 319 319 319 320 320 321 321 322 322 322 323 329 336 346 340 335 347 348 348 349 348 348 344 340 337 332 330 332 334 328 329 328 329 323 323 322 323
318 317 316 316 318 319 319 316 319 320 320 320 319 319 320 320 320 320 320 320 323 325 327 326 330 333 347 351 351 349 349 348 349 348 347 345 344 341 335 338 339 336 331 325 329 329 326 328 329
318 315 316 316 316 318 316 317 318 320 320 320 320 320 320 320 320 320 320 320 320 321 323 323 323 325 338 346 350 352 350 349 348 349 348 348 347 345 341 335 342 341 337 339 333 332 333 333 331
317 315 316 317 318 318 316 316 317 320 320 320 320 320 320 320 320 320 320 320 320 320 320 320 321 321 321 322 343 350 349 350 350 349 349 348 347 344 343 341 335 340 341 338 339 335 337 334 331
317 317 317 319 318 318 316 317 317 320 320 320 320 320 320 320 320 320 320 320 320 321 320 320 320 320 321 320 320 340 347 346 348 349 349 350 350 348 345 343 341 342 343 339 339 338 337 337 335
318 318 317 318 320 318 319 319 320 320 319 320 321 321 321 322 321 321 321 322 324 325 326 330 328 329 331 331 329 324 326 340 348 346 344 346 347 350 347 344 344 341 341 343 337 337 337 337 336
319 319 318 318 318 318 320 318 319 319 320 321 321 321 321 321 321 321 321 321 321 321 322 322 322 322 322 322 325 325 324 327 337 342 344 340 344 346 349 347 347 344 342 342 341 337 337 336 333
318 318 318 318 319 318 319 318 319 319 320 320 321 321 321 321 321 321 322 321 321 321 321 322 322 322 322 322 322 322 323 325 325 325 335 343 339 340 345 348 347 345 344 342 341 338 338 337 336
317 320 320 320 318 318 319 318 318 319 320 320 319 320 320 320 320 320 321 321 321 321 322 322 322 322 321 322 322 322 321 321 324 326 328 330 338 339 339 342 344 345 343 343 341 339 337 338 336
320 319 319 320 318 318 319 319 319 320 321 320 319 320 320 320 320 320 320 321 320 320 320 320 320 321 321 322 322 322 321 321 322 325 326 330 328 336 338 339 342 343 342 340 341 342 339 339 337
319 317 318 320 321 321 322 323 321 322 320 319 317 320 320 320 319 318 319 319 318 318 319 319 320 319 319 320 320 320 321 320 324 325 327 329 334 329 334 337 340 341 344 343 342 344 340 339 336
321 320 324 327 324 322 322 325 325 320 319 320 320 320 319 319 318 317 318 317 316 318 318 318 318 318 318 318 319 319 320 321 322 323 327 328 332 334 335 336 338 338 340 341 341 342 343 343 341
320 319 320 320 322 321 320 320 321 321 319 319 320 319 319 318 318 317 316 317 317 318 318 317 317 317 317 318 317 318 318 320 321 321 322 328 329 331 332 338 336 339 339 339 342 339 331 336 342
320 319 322 320 324 323 321 320 322 320 318 317 316 317 317 317 317 317 317 317 317 317 317 317 317 317 317 317 317 317 317 317 318 318 319 323 326 330 333 332 334 334 335 336 337 338 335 326 329
321 318 318 320 324 319 320 320 319 318 316 316 316 316 316 316 317 317 317 317 317 317 317 316 316 316 316 316 315 315 316 316 316 316 317 319 325 326 329 329 330 332 332 334 332 332 329 324 324
320 318 319 321 322 320 319 320 319 319 316 316 315 316 317 317 318 316 316 315 315 314 315 315 316 316 315 316 316 315 315 314 315 316 316 316 321 324 327 327 328 330 330 331 330 328 326 326 322

GFSSGP_850_thetae_096.txt.gz
Theta_e
322 322 322 322 323 321 326 329 331 331 332 333 344 349 350 350 349 348 351 349 347 331 335 339 341 343 342 338 337 333 332 332 333 332 330 326 322 324 326 326 324 323 323 323 321 322 323 327 327
321 322 322 324 322 324 324 327 329 329 332 334 344 349 349 350 351 353 352 353 342 330 332 337 341 343 341 338 337 333 333 334 335 331 329 323 323 325 325 324 323 323 323 322 323 324 326 327 326
320 321 320 319 318 323 325 328 328 330 334 334 340 346 347 353 351 353 353 346 336 331 333 336 341 343 341 338 338 335 335 336 336 331 327 323 323 324 322 323 323 323 322 322 323 325 326 325 325
319 320 321 320 320 322 326 327 327 329 332 334 345 347 350 350 351 351 352 342 333 333 331 335 342 343 341 339 339 339 338 338 338 334 326 323 324 323 323 324 323 322 322 322 323 324 325 324 324
317 318 317 319 320 322 324 325 326 328 332 338 345 349 349 350 350 353 353 347 342 331 331 335 341 344 341 340 339 340 341 340 339 337 331 323 324 326 325 324 324 322 321 321 322 323 324 323 323
318 318 317 320 321 323 323 325 326 331 332 343 348 346 347 347 348 352 350 349 345 332 330 334 340 343 342 341 340 340 341 343 341 339 337 327 323 323 324 325 324 322 321 321 322 322 322 322 322
315 312 316 319 321 323 325 331 327 331 328 331 340 332 345 348 347 348 348 348 348 333 326 332 338 342 343 342 341 340 340 342 344 342 339 336 325 323 322 322 321 321 321 322 322 321 321 321 321
317 312 317 317 321 322 323 328 330 329 328 331 332 328 328 348 348 348 349 349 348 348 343 331 332 338 342 342 342 341 340 340 342 344 342 340 337 326 323 322 321 321 322 322 322 321 320 320 320
316 312 315 316 318 320 325 327 331 330 329 327 329 328 329 328 340 347 351 351 350 349 348 346 337 329 335 339 341 341 339 338 339 342 344 342 340 337 327 323 322 321 321 322 322 321 320 320 320
310 312 314 315 317 320 322 324 326 325 323 325 327 326 326 326 326 332 348 349 350 351 350 348 345 333 333 333 335 337 337 337 339 341 343 344 342 339 334 328 323 322 321 322 323 322 321 320 320
312 312 314 317 317 319 320 321 324 322 321 322 320 323 325 325 325 325 334 332 341 350 351 350 348 339 332 329 331 332 333 332 333 338 342 344 344 342 341 337 330 324 321 322 323 323 321 321 320
310 313 314 316 318 319 320 320 322 325 323 322 320 320 321 322 323 323 323 323 335 345 348 350 349 346 345 345 340 336 331 331 330 330 336 343 344 343 342 341 336 329 323 322 322 323 322 321 321
310 312 315 317 317 316 319 322 323 323 326 325 321 320 320 321 321 321 323 322 321 322 331 341 349 348 345 337 340 339 336 333 333 332 331 334 342 342 342 341 337 331 326 322 322 323 323 322 321
313 313 314 316 316 316 316 317 319 321 322 320 320 320 320 320 320 320 320 322 321 322 326 333 343 348 344 342 341 339 342 342 342 342 343 339 332 334 339 339 339 333 329 325 322 322 324 324 322
313 312 313 314 315 314 318 316 316 320 320 320 320 320 319 319 320 320 321 321 321 322 324 331 338 343 345 342 340 339 339 346 346 345 346 347 341 335 333 332 330 333 336 331 324 323 322 322 321
313 312 313 314 315 317 317 316 317 320 319 319 320 319 319 319 320 320 320 320 320 325 327 332 339 343 344 341 340 336 344 348 348 347 347 346 346 343 340 335 332 329 335 336 335 329 329 322 321
313 313 314 315 314 316 316 315 316 319 319 319 319 319 319 320 320 320 320 320 320 320 322 325 328 331 332 341 346 344 345 350 351 350 349 348 348 347 347 345 341 335 332 336 340 335 336 329 322
315 315 315 316 316 315 315 315 315 319 319 319 318 319 319 320 320 320 320 320 320 320 320 321 321 321 321 321 321 331 342 349 349 348 348 348 348 348 346 346 345 343 338 335 341 338 338 336 329
316 316 316 315 316 315 315 315 315 316 318 318 318 319 320 320 320 320 320 320 319 321 320 321 322 323 324 324 322 321 334 346 342 344 345 345 346 346 347 347 345 344 343 339 339 342 338 338 335
317 316 316 316 317 316 314 314 315 316 317 318 319 319 319 319 322 323 323 322 322 323 324 324 324 327 328 327 326 325 323 323 327 330 331 337 340 340 342 345 346 346 344 342 340 340 341 338 338
316 316 317 317 317 316 316 316 318 318 319 320 319 319 319 321 322 321 322 322 321 322 322 322 323 323 322 321 321 321 321 322 322 322 323 326 329 332 337 339 342 345 346 345 343 341 341 341 339
316 317 318 319 316 316 317 317 317 318 318 318 318 321 321 321 321 321 321 321 321 321 321 321 321 321 321 321 321 321 321 321 321 320 319 319 319 321 324 330 336 339 341 345 345 344 343 341 339
315 319 319 319 316 316 317 316 316 317 319 318 316 319 320 320 320 320 321 321 321 321 321 321 320 320 320 320 320 320 321 321 321 320 319 318 318 317 318 322 327 334 339 339 342 343 343 343 340
318 317 315 315 314 316 317 316 316 317 318 318 317 319 320 320 320 320 320 320 319 319 318 318 317 316 317 318 318 318 319 318 318 318 318 319 320 321 323 324 325 331 332 336 337 339 340 342 341
315 314 315 317 318 319 321 320 317 319 317 317 316 319 319 319 318 317 316 316 316 316 315 316 316 317 317 317 317 317 316 318 318 317 317 319 321 320 325 327 327 329 333 335 335 336 336 338 339
318 316 317 321 322 321 319 323 322 317 317 318 319 319 319 319 318 317 317 316 317 316 316 317 318 317 317 317 317 316 317 317 317 317 317 317 317 317 317 325 327 328 331 332 336 335 337 337 338
319 317 317 319 319 319 318 320 319 319 319 318 318 319 318 318 318 317 317 317 316 316 317 317 317 317 317 317 317 317 318 317 317 317 317 317 317 316 314 320 324 328 330 331 331 335 334 335 337
319 318 319 318 322 322 321 321 321 319 318 317 316 317 317 318 318 317 316 317 317 317 317 317 317 317 317 317 318 319 318 316 316 317 316 316 316 316 315 313 321 325 328 329 328 328 332 333 335
320 319 317 318 321 319 319 319 317 316 314 313 313 316 315 314 315 315 315 315 315 315 315 315 315 315 315 315 316 316 315 315 316 316 315 318 318 316 315 314 316 324 326 326 328 329 329 332 333
318 318 316 319 319 318 316 316 318 317 316 314 312 315 315 314 314 314 314 314 314 313 313 313 312 312 311 311 311 312 313 314 313 314 315 316 317 316 314 314 315 321 324 325 326 329 331 331 330

GFSSGP_850_thetae_102.txt.gz
Theta_e
321 321 321 322 320 320 325 327 327 329 331 332 329 345 344 347 345 343 349 338 340 336 339 343 340 338 334 333 331 330 330 333 334 333 330 329 325 324 326 327 324 321 321 320 320 322 325 326 325
318 320 321 322 320 323 324 323 326 326 329 329 330 342 348 350 351 351 345 338 340 334 340 343 341 339 334 333 332 331 333 333 332 331 330 328 322 324 326 325 322 322 321 321 322 324 326 326 326
316 319 321 317 317 322 324 325 325 325 326 327 329 345 347 349 351 349 341 342 340 337 341 343 342 339 334 333 333 332 333 332 331 331 330 325 321 325 326 324 322 323 322 321 323 325 326 326 325
317 319 319 317 319 319 323 324 322 321 324 327 330 343 349 350 350 349 342 349 338 337 340 342 342 339 335 334 332 331 331 331 330 328 326 321 323 326 326 324 323 324 322 322 324 325 325 324 324
318 318 315 317 318 318 320 323 322 321 323 324 334 347 348 350 349 350 347 350 337 337 339 341 342 340 337 335 332 331 332 334 330 326 324 321 323 325 325 323 324 323 321 321 324 325 325 324 323
316 315 314 317 317 319 320 322 322 323 324 340 346 345 347 350 350 350 348 343 337 335 337 339 343 341 337 335 332 332 335 335 331 327 323 322 323 323 323 323 324 323 321 321 322 324 324 323 323
311 311 313 315 318 319 320 322 322 323 328 332 338 340 347 350 350 348 346 341 337 338 337 338 341 341 337 336 335 335 336 337 335 330 323 322 323 323 322 323 324 323 322 321 321 322 323 323 323
315 310 313 314 318 319 321 322 323 325 329 329 327 338 345 351 349 348 345 340 338 339 338 338 341 341 339 336 336 336 338 339 338 335 331 322 323 324 324 324 324 323 322 321 321 321 321 322 322
315 311 310 314 316 318 319 318 321 324 328 329 329 324 337 351 350 348 344 340 339 338 337 337 339 340 339 337 336 336 336 339 340 339 337 335 325 322 323 324 324 323 322 321 321 321 321 320 320
311 308 310 311 315 316 318 317 319 323 325 328 328 321 337 348 349 349 347 344 340 335 334 335 338 340 340 338 338 337 337 337 340 341 340 337 335 331 324 322 322 321 321 321 321 322 322 321 320
308 309 311 313 317 318 315 316 318 324 325 328 328 319 323 346 351 350 349 348 347 342 332 330 333 337 338 339 338 339 338 338 338 339 341 342 340 338 336 331 325 323 322 321 321 322 322 322 321
309 308 312 313 315 315 314 317 317 323 324 329 328 322 323 322 344 350 350 349 347 344 339 334 332 334 337 338 339 339 339 338 338 337 337 339 341 341 340 337 335 332 327 324 323 322 321 322 321
307 307 310 313 314 314 314 314 315 319 320 325 326 326 326 320 325 342 344 347 349 349 347 345 342 339 335 336 338 338 338 337 337 336 335 335 335 338 339 340 339 338 336 333 328 326 323 321 321
309 309 310 311 311 311 311 312 314 318 320 323 326 327 325 322 319 325 328 328 334 336 340 347 349 347 343 337 335 337 338 338 337 337 336 334 333 335 336 335 340 341 341 340 339 337 336 332 327
313 309 308 308 311 308 312 310 313 315 317 322 324 328 326 324 325 319 319 320 321 321 322 325 339 346 349 345 338 337 339 339 338 337 336 336 336 335 335 336 337 338 340 341 340 339 338 336 335
310 308 309 309 308 310 312 312 313 316 316 319 323 325 325 326 326 320 319 320 321 321 321 323 330 340 350 349 343 339 339 340 342 342 340 341 342 342 342 341 341 343 342 340 339 339 339 337 335
309 311 309 310 308 310 311 312 314 317 315 319 320 325 326 326 326 325 324 319 320 320 323 323 327 334 344 350 346 341 343 343 344 343 343 345 346 347 347 346 345 344 345 345 344 344 344 343 342
313 311 311 311 312 310 310 313 316 318 315 318 321 322 326 321 321 321 322 319 319 320 322 325 327 334 343 347 345 345 346 343 342 342 341 341 343 343 344 344 343 344 344 343 343 343 343 344 344
314 314 314 313 312 311 310 312 313 313 314 314 318 317 321 318 319 320 318 319 319 320 322 321 323 325 334 343 344 345 344 344 343 342 342 341 340 338 339 339 339 340 341 340 339 339 339 338 338
313 314 313 313 314 312 311 311 311 311 312 315 316 317 317 316 316 318 318 319 319 320 321 323 327 328 329 333 332 329 326 324 323 323 322 322 321 321 321 321 322 322 322 324 328 331 333 335 336
313 313 314 315 315 314 314 313 313 312 315 315 315 316 316 317 318 319 319 319 321 323 327 330 329 329 326 324 324 324 323 322 321 320 320 319 318 317 316 316 316 316 315 315 316 316 319 326 329
314 313 314 314 314 313 313 313 315 315 316 316 317 317 317 318 319 320 320 321 321 322 323 324 325 325 324 322 320 317 315 315 314 313 312 312 313 313 313 313 314 314 313 313 314 316 320 325 331
315 315 316 315 313 314 314 313 312 314 317 317 316 317 318 320 321 323 323 323 322 322 321 321 320 318 316 315 316 316 315 315 314 314 314 314 314 314 314 313 313 314 313 312 312 313 316 323 327
315 313 311 311 310 314 315 313 313 314 316 316 315 317 319 320 321 321 321 321 321 320 320 318 317 317 317 316 317 316 316 316 316 316 316 315 316 316 316 316 315 315 314 314 313 311 311 314 323
312 312 312 315 314 314 314 315 313 315 315 315 314 317 319 321 321 320 320 320 319 318 317 317 317 317 317 317 317 317 317 317 317 317 316 316 316 317 317 317 319 317 316 314 314 313 311 312 313
315 313 313 317 317 315 316 319 318 315 314 316 317 318 319 320 319 319 319 318 318 317 317 318 318 317 317 317 317 317 317 317 317 317 317 318 319 319 318 318 320 319 317 317 315 314 313 313 311
316 317 313 315 315 316 315 316 316 316 315 315 316 317 318 317 317 316 316 316 316 316 315 316 316 316 316 316 316 315 315 315 315 315 316 316 317 317 317 316 318 319 319 317 316 315 314 313 312
316 315 317 314 320 321 317 318 318 318 316 315 313 313 315 315 314 315 315 315 315 315 315 314 314 314 314 313 313 313 313 312 311 310 310 310 310 310 311 311 313 316 318 318 316 315 314 312 312
319 317 315 315 315 317 317 318 314 315 314 312 311 311 312 313 314 314 314 313 313 312 312 312 312 312 311 310 310 309 309 308 309 311 313 313 313 312 312 311 310 310 312 315 317 316 315 313 312
317 317 315 318 320 316 315 316 314 313 312 310 310 311 312 313 313 312 311 311 311 311 310 310 309 308 307 306 306 307 308 311 312 315 314 313 312 310 308 307 307 308 309 309 313 315 317 314 313

GFSSGP_850_thetae_105.txt.gz
Theta_e
319 320 321 321 326 328 333 334 331 334 335 331 329 334 344 347 348 349 348 344 343 337 339 343 339 336 335 338 338 340 342 343 341 339 337 331 327 323 326 324 328 334 335 333 325 322 325 325 327
316 319 321 322 327 331 334 330 332 332 330 327 329 339 347 351 353 350 347 341 342 337 339 342 337 333 332 333 335 337 338 337 337 335 331 329 325 324 326 324 322 326 324 320 321 324 326 325 328
314 318 322 324 325 327 331 329 330 326 325 326 328 334 346 351 351 350 341 339 340 337 339 341 338 334 331 331 330 331 332 334 333 331 330 328 323 324 326 323 322 321 321 320 322 325 326 325 329
315 319 319 323 324 324 327 328 324 326 327 326 327 335 348 350 351 348 338 340 339 336 339 341 339 336 333 331 330 332 333 333 332 331 330 328 321 324 326 323 322 322 321 321 323 325 325 325 326
316 319 323 323 323 322 323 323 323 325 326 327 336 341 349 350 350 350 340 347 338 336 339 342 341 338 334 333 332 332 332 331 330 329 326 322 321 324 325 323 323 324 322 322 324 325 325 325 324
317 318 321 321 322 321 322 322 322 323 324 330 343 345 349 349 349 350 343 348 339 336 338 342 341 339 335 334 333 331 331 331 331 325 324 320 322 324 325 323 323 323 322 321 323 324 325 325 324
317 318 317 319 320 322 322 322 322 323 324 333 336 345 344 351 350 350 344 348 339 338 338 341 342 339 335 334 332 331 332 334 331 325 323 321 322 324 324 323 323 323 322 321 321 323 324 324 324
315 318 316 317 318 319 321 322 322 324 324 328 327 334 337 349 351 349 348 346 341 339 338 340 342 340 335 334 333 332 334 335 334 329 323 322 323 324 323 323 324 323 323 321 320 320 322 323 324
314 315 315 315 317 318 319 320 321 322 327 328 327 323 327 337 349 347 345 344 342 340 338 338 340 341 336 335 335 334 334 336 337 335 333 324 323 324 323 324 324 324 324 322 321 320 320 320 321
316 315 314 315 316 317 318 319 320 321 323 326 326 323 336 342 351 347 344 341 339 339 339 338 337 341 339 336 335 336 336 336 337 337 337 335 329 324 324 324 325 324 323 322 322 321 321 321 320
311 315 315 315 316 317 317 318 318 320 323 324 327 323 323 331 352 350 349 345 340 338 338 338 338 340 341 338 336 336 337 338 339 340 340 339 337 336 332 326 323 323 322 322 321 321 321 322 321
312 312 313 314 315 316 317 317 317 319 321 322 324 322 322 321 341 352 349 349 344 340 336 334 336 338 341 340 338 337 337 337 338 338 339 340 341 340 339 336 335 332 328 325 323 322 322 322 322
312 312 311 313 313 314 314 315 315 316 318 320 321 325 324 326 323 325 351 350 349 346 341 336 333 334 338 340 340 338 338 338 338 339 339 338 338 339 341 341 341 339 338 337 335 334 332 331 328
311 311 311 311 312 313 314 314 314 314 315 316 319 321 326 326 324 319 321 344 346 347 348 345 338 335 334 338 339 340 340 339 339 339 340 339 338 336 337 338 339 341 342 342 341 340 341 341 341
313 314 315 313 311 312 312 314 314 314 315 316 322 324 326 326 325 323 326 319 331 337 340 345 347 343 339 337 338 339 340 340 340 340 340 339 338 337 337 336 336 337 339 339 340 341 342 341 340
315 313 317 318 313 312 312 312 314 315 315 316 318 319 323 327 326 327 327 325 323 320 325 329 332 342 347 345 342 340 340 340 341 340 341 341 339 339 342 344 345 344 343 344 344 343 341 340 341
314 318 316 317 314 314 313 314 316 315 315 317 318 321 323 326 327 327 326 324 324 321 321 321 323 328 340 347 348 346 342 341 341 343 342 343 343 346 347 346 346 345 344 344 344 344 345 344 343
318 315 315 316 316 314 314 315 317 316 316 317 320 320 321 324 326 326 327 326 323 320 321 322 322 326 330 337 344 348 343 343 344 344 344 345 345 345 345 343 342 342 342 342 341 341 342 341 340
316 317 318 318 317 315 316 316 316 317 318 319 320 319 321 322 325 324 327 326 321 319 319 323 323 324 324 338 338 344 343 345 343 342 343 342 340 339 335 331 328 327 327 327 329 332 335 335 338
316 317 318 318 317 316 317 317 317 317 318 320 318 319 321 323 326 325 322 320 320 319 320 323 326 333 337 339 339 340 341 339 330 324 322 321 321 320 320 319 319 318 318 318 317 317 318 327 323
317 317 318 317 318 317 317 318 317 317 315 316 316 319 320 321 323 324 321 320 319 320 323 324 329 336 337 339 337 330 323 321 321 320 319 317 316 315 314 314 313 313 314 314 314 313 313 323 326
318 317 318 318 318 320 318 319 320 319 318 317 317 317 318 318 318 318 317 317 319 327 331 335 332 328 325 323 322 321 318 316 314 313 313 313 313 313 313 313 313 313 312 313 313 312 311 316 328
318 317 318 319 319 319 320 319 320 319 319 320 320 319 319 321 319 319 318 320 324 326 327 325 324 324 322 317 315 315 314 314 315 314 314 314 314 314 314 314 315 315 315 314 314 314 314 313 321
317 318 318 318 319 320 319 319 320 320 320 322 320 319 319 321 322 322 323 323 324 323 322 321 320 318 315 316 316 316 316 316 316 316 316 316 315 315 315 315 315 316 316 316 316 315 314 314 315
317 320 320 320 320 320 319 320 320 320 320 320 322 320 321 322 323 323 322 321 321 320 319 318 317 316 316 316 317 317 317 318 317 317 317 317 316 316 316 316 316 317 317 317 317 317 316 314 315
318 320 320 320 320 320 320 321 321 320 319 318 320 320 321 321 320 320 321 321 320 320 319 319 318 318 317 317 317 317 316 316 316 316 316 316 316 316 316 317 317 318 318 318 319 319 318 316 315
319 319 318 321 319 320 321 321 321 320 319 319 319 320 320 318 317 317 318 318 319 318 318 317 317 316 316 316 316 315 314 313 313 313 312 312 312 311 311 311 312 313 315 315 316 319 320 318 316
320 319 323 321 323 321 321 322 320 322 321 321 320 319 317 315 314 314 314 315 314 314 314 313 313 313 312 312 312 311 311 311 311 311 310 309 308 309 311 313 314 313 312 310 310 313 316 319 318
320 321 321 322 323 324 322 322 321 323 322 321 319 317 316 315 315 314 314 314 313 312 312 311 311 311 310 310 310 309 309 307 307 307 308 309 312 314 314 313 312 311 311 311 311 310 310 313 316
320 321 322 324 324 322 323 322 318 319 320 318 316 314 314 314 313 312 312 312 311 311 311 311 310 309 308 307 306 306 306 307 308 310 311 313 313 313 312 311 310 309 308 308 308 309 309 310 314

GFSSGP_850_thetae_108.txt.gz
Theta_e
316 321 322 323 329 333 338 338 337 338 338 336 334 335 336 345 349 357 357 354 349 352 341 343 344 344 342 339 340 344 345 346 345 344 341 336 328 326 326 325 327 332 333 330 327 323 325 325 328
318 320 322 325 329 336 337 337 337 337 335 332 333 335 342 350 353 357 356 354 352 352 338 343 342 339 337 338 342 345 346 345 345 342 339 332 327 326 326 325 331 334 334 329 323 325 325 327 332
314 320 324 327 330 333 336 335 336 333 332 332 332 332 336 348 355 357 356 351 353 351 338 341 339 336 334 338 342 344 344 343 342 340 335 330 325 325 326 324 331 332 324 321 323 325 326 326 334
317 318 322 328 331 331 332 332 332 332 332 332 332 336 340 354 355 355 354 353 353 352 348 339 337 334 333 334 338 341 342 340 338 335 331 328 324 324 326 324 322 322 321 321 323 326 326 326 332
316 319 322 324 328 330 327 327 328 330 330 331 334 340 343 358 358 356 352 352 351 350 350 339 338 335 333 332 331 332 334 336 334 331 330 329 323 324 326 324 322 322 322 322 323 326 326 325 327
317 318 320 322 324 326 328 326 327 327 327 329 336 342 345 358 359 356 353 353 351 349 350 340 339 337 333 331 331 332 333 333 331 330 328 325 321 324 326 323 323 324 323 322 323 325 326 326 325
318 319 320 321 321 322 325 325 327 327 327 328 339 340 346 355 359 356 355 354 351 349 350 344 340 337 333 332 332 332 333 331 331 328 326 322 322 325 326 324 323 324 322 321 321 323 324 325 325
316 320 319 319 320 321 322 322 323 325 327 327 331 336 342 355 358 357 355 354 350 349 349 348 346 338 333 332 333 333 332 332 333 328 325 322 323 325 326 325 324 324 323 321 320 320 322 324 325
316 319 318 319 319 320 320 322 322 323 325 327 331 329 330 350 357 357 356 354 351 349 348 348 347 344 342 342 334 333 333 334 334 332 327 324 328 327 326 325 324 325 325 324 322 320 320 320 321
316 317 317 318 319 319 319 320 320 322 324 326 329 327 342 349 355 355 354 353 351 349 349 348 350 347 344 343 344 333 335 334 335 335 334 329 339 340 339 336 324 325 325 325 323 322 321 321 324
316 317 318 317 317 316 317 317 318 319 321 324 327 328 332 350 354 352 353 351 350 349 349 349 352 351 347 345 346 343 344 344 342 340 340 340 342 337 329 338 329 325 324 324 330 324 325 333 333
315 316 316 317 316 316 317 317 317 318 319 321 325 327 326 332 353 354 352 352 350 349 349 350 352 350 347 345 346 346 346 347 347 347 340 346 342 344 342 343 342 341 340 340 338 337 338 335 330
315 315 315 314 315 315 315 316 316 317 317 318 320 323 325 327 330 340 352 354 353 352 350 350 351 350 346 345 346 346 347 347 347 348 346 347 347 347 347 347 346 346 345 345 345 344 344 343 343
314 314 314 314 314 314 315 316 315 315 315 316 316 319 322 326 327 324 326 339 354 355 353 351 351 348 346 343 347 347 347 347 348 348 348 341 346 348 347 346 347 347 346 346 346 346 347 346 346
314 316 316 317 316 316 315 315 316 315 315 315 316 317 322 324 327 326 328 328 324 340 354 354 352 352 347 346 346 349 348 347 348 348 346 345 344 344 339 347 347 347 347 342 341 343 346 344 346
318 318 318 319 319 317 315 316 317 315 315 316 316 317 321 323 327 327 328 327 327 324 333 353 351 353 347 341 344 348 350 349 349 350 351 349 347 346 342 339 349 350 350 350 350 350 349 348 347
319 319 318 319 320 319 317 318 318 316 315 316 316 317 320 322 326 329 328 329 324 325 321 321 324 334 341 347 346 343 348 349 350 350 350 352 349 347 345 346 349 348 348 352 351 349 350 349 349
319 318 319 319 320 319 319 319 320 318 317 316 316 317 321 324 327 328 329 328 327 323 320 320 321 321 327 332 346 349 348 346 345 342 349 345 344 345 347 349 347 343 342 343 343 347 346 346 344
319 319 320 321 321 321 321 321 321 320 318 318 317 319 322 324 327 328 328 329 328 325 320 320 323 321 323 323 342 345 348 350 346 346 345 341 342 347 348 346 345 343 342 340 340 338 338 338 337
319 320 321 320 321 320 321 322 322 320 319 319 319 322 323 323 324 327 327 327 327 326 325 321 323 321 321 321 321 339 342 348 350 348 341 335 329 333 337 337 333 332 329 330 333 332 328 327 328
319 320 320 320 321 321 321 322 321 321 320 321 322 322 322 322 323 324 326 327 327 327 324 323 321 333 338 338 334 331 340 341 330 323 321 320 318 317 316 315 314 320 319 323 325 326 327 324 323
319 319 319 319 321 322 322 322 322 322 322 322 322 322 321 321 323 325 325 326 327 320 323 324 335 341 339 340 340 339 331 327 325 319 323 315 313 313 313 313 315 316 319 320 321 324 325 325 323
319 319 320 320 321 322 322 322 323 322 322 322 323 321 321 322 322 323 324 325 328 329 328 335 332 331 329 327 327 324 324 324 319 317 316 314 315 314 315 315 315 315 317 323 322 316 322 323 322
319 320 320 320 321 323 322 322 322 323 322 323 323 323 323 324 324 325 325 328 331 332 331 327 324 322 320 318 315 315 315 316 321 318 316 321 323 321 317 316 315 315 315 317 321 326 324 324 321
319 321 322 321 321 322 323 322 322 323 323 324 324 324 324 324 326 326 327 327 327 327 326 324 319 317 316 316 316 316 316 316 316 316 317 317 318 319 320 317 316 316 316 317 317 322 325 325 325
320 321 322 321 322 322 323 321 322 324 324 324 324 325 326 327 327 327 326 326 325 324 324 320 319 317 317 316 316 316 316 317 317 317 317 317 316 316 316 316 315 315 314 315 315 317 324 325 325
321 321 321 323 323 323 323 322 323 324 325 324 325 325 326 326 326 325 325 324 323 322 321 319 318 317 317 317 317 316 316 316 315 315 315 314 314 312 312 311 309 309 310 311 312 315 317 319 321
321 321 322 322 323 323 321 322 322 324 324 325 326 326 324 323 322 322 322 321 320 319 318 317 317 317 316 315 315 314 313 313 312 312 310 309 308 308 308 309 310 312 314 315 315 315 316 317 317
322 322 322 323 324 326 324 323 324 324 325 326 326 325 323 322 321 320 319 318 317 317 316 315 314 313 313 312 312 311 310 309 308 307 308 308 309 310 312 313 313 313 313 313 313 313 314 315 316
323 322 323 324 325 323 323 324 324 324 325 325 324 323 322 321 320 319 317 316 316 316 315 314 313 312 312 311 309 308 307 307 307 308 309 310 312 312 312 312 312 312 312 311 311 311 311 311 312

GFSSGP_850_thetae_111.txt.gz
Theta_e
314 320 324 325 330 335 336 337 339 340 340 339 337 337 338 339 347 365 357 355 352 356 339 339 343 346 347 347 344 344 346 345 343 340 339 332 327 328 325 325 329 326 328 331 327 324 324 325 331
316 319 325 326 332 336 338 336 339 339 339 336 336 337 337 343 352 357 357 352 353 357 340 339 342 344 344 342 340 343 346 345 344 342 339 332 328 328 326 325 331 330 332 330 324 325 325 328 333
313 321 324 330 333 335 337 337 338 338 336 335 335 336 336 344 355 356 360 353 354 356 346 338 342 340 338 335 338 344 346 346 345 343 338 331 328 328 327 326 333 334 333 327 323 325 325 329 334
318 319 321 328 333 334 334 336 336 336 334 334 335 336 337 350 350 356 357 352 355 354 353 338 340 337 334 334 338 343 345 345 344 342 337 331 327 328 328 325 333 334 325 321 323 326 326 326 335
318 319 322 324 328 332 334 333 334 335 333 333 334 337 341 358 357 356 354 354 353 351 353 340 338 335 333 335 338 341 343 342 340 339 333 331 327 327 328 324 322 322 321 320 323 326 326 326 330
318 319 322 323 324 326 329 331 331 331 332 332 333 336 343 357 356 354 353 354 351 350 353 339 337 334 333 336 338 338 339 339 338 335 332 330 327 326 328 325 323 323 322 321 323 325 326 325 325
319 321 321 322 324 325 326 328 329 330 331 331 332 340 348 353 356 354 355 354 352 350 351 346 337 334 333 334 335 335 335 336 334 332 330 328 324 325 327 325 323 324 323 322 322 323 324 325 325
318 321 321 322 322 323 325 325 326 326 329 330 330 336 340 357 357 354 356 355 352 350 350 349 346 335 333 332 332 334 334 334 332 331 328 326 323 326 328 327 324 324 324 322 321 321 322 324 324
317 320 320 321 322 323 323 324 324 324 324 327 329 332 333 343 356 355 355 354 352 351 350 349 347 346 344 343 332 333 333 332 332 330 327 324 325 325 326 327 327 324 324 323 322 321 321 321 321
320 320 321 322 323 323 323 323 322 324 324 325 328 331 331 338 353 354 354 354 352 350 350 348 348 347 345 344 342 334 333 332 334 333 330 326 340 342 340 338 326 325 325 325 325 323 322 321 322
318 319 320 320 320 320 321 321 321 322 323 324 325 328 331 341 348 351 352 351 351 350 349 348 350 348 345 343 348 344 344 342 341 344 341 336 341 342 339 342 336 326 325 325 331 329 324 325 334
319 319 319 320 319 319 320 319 319 320 321 321 322 327 331 330 344 348 349 348 350 350 350 349 352 351 348 344 347 345 345 345 347 347 349 347 347 346 343 339 340 341 340 341 339 338 339 339 339
319 319 318 318 318 318 318 318 319 319 319 320 320 325 329 329 331 346 354 351 349 349 349 350 352 352 351 349 347 347 346 347 347 348 349 349 348 349 348 347 346 344 343 342 344 343 342 342 343
317 317 318 317 317 317 318 318 318 318 318 318 319 320 323 327 330 332 341 349 351 350 350 350 351 353 353 351 348 349 348 348 348 348 349 349 349 349 348 348 347 346 345 345 345 345 345 346 346
316 317 318 318 317 318 317 318 318 317 317 318 317 318 319 322 326 330 331 336 343 353 348 352 354 355 354 352 352 350 349 349 349 348 350 351 349 351 350 347 348 347 347 348 349 349 350 349 348
317 318 318 320 319 319 318 318 320 318 318 317 318 318 318 320 325 330 330 329 329 331 344 355 355 355 353 353 353 351 350 350 349 348 350 349 350 350 350 349 348 348 349 349 350 349 349 348 348
320 319 320 320 321 321 320 320 321 320 319 318 317 317 318 319 327 328 329 329 330 325 324 343 334 354 354 350 349 348 342 336 349 349 349 350 350 350 351 350 349 349 348 348 347 349 348 346 348
320 319 320 320 322 322 322 321 321 321 321 319 318 317 318 318 324 326 330 330 330 331 321 332 347 350 354 353 352 351 351 352 353 351 351 352 350 350 350 348 348 349 348 347 346 346 346 345 343
321 322 320 321 322 322 323 323 323 323 322 321 320 318 318 318 321 326 330 331 331 328 322 321 329 351 351 351 349 350 349 351 350 352 350 347 345 343 348 347 345 343 344 342 342 343 338 337 335
320 321 321 322 322 323 323 323 324 324 323 321 320 320 319 318 322 327 329 330 330 331 324 327 323 322 330 345 346 345 329 346 347 350 349 344 335 337 345 346 342 339 337 334 334 333 331 330 327
320 321 321 321 323 323 323 323 323 324 322 321 320 320 320 320 323 325 329 331 331 335 334 327 324 333 322 333 348 325 326 325 336 345 343 340 336 336 332 331 323 323 320 324 324 327 327 326 324
321 320 320 321 322 323 325 325 325 325 323 322 322 323 323 323 323 324 326 330 330 328 328 326 326 324 334 330 345 327 341 338 333 332 327 330 322 317 319 313 314 314 314 317 321 321 324 325 325
320 320 320 320 322 322 323 325 324 325 324 323 323 323 324 323 323 324 327 329 330 332 331 328 324 322 323 323 346 341 336 333 330 326 327 323 319 316 315 315 316 316 315 327 327 322 324 324 325
320 320 321 321 321 323 323 325 324 325 325 324 324 323 323 323 323 324 326 328 330 336 338 342 341 331 333 333 334 332 329 328 327 327 328 327 326 326 325 325 324 322 322 320 321 324 323 323 324
320 321 323 322 322 322 323 324 324 326 324 325 325 323 323 325 326 327 329 329 332 337 336 334 332 333 331 330 329 326 324 323 323 322 324 323 322 323 323 323 321 318 318 318 317 318 321 325 327
320 321 323 322 322 321 322 325 324 325 325 324 325 325 325 326 328 329 330 331 332 332 332 329 328 326 321 318 316 316 316 321 317 319 319 318 320 321 319 317 316 315 315 314 315 316 320 322 322
321 322 322 323 323 324 325 324 327 326 325 324 326 326 328 328 329 329 329 328 329 328 327 327 325 324 323 318 317 317 317 316 317 316 316 315 316 315 315 315 312 310 309 309 311 316 319 319 320
321 322 324 322 325 328 327 327 326 326 325 324 325 326 328 329 329 329 328 327 327 325 324 324 323 322 320 319 318 318 316 315 315 314 314 314 313 312 310 309 309 310 311 315 318 319 319 319 319
321 322 323 323 323 326 329 326 326 328 325 325 325 326 327 327 327 326 326 325 324 323 322 321 320 319 319 318 317 316 315 314 314 313 312 311 310 310 310 313 316 317 317 317 316 316 316 316 316
322 322 324 326 327 327 325 326 325 325 326 326 325 327 326 325 325 324 323 322 321 320 320 320 318 317 317 316 316 316 314 313 314 315 313 313 314 315 316 316 317 316 316 315 314 314 315 314 314

GFSSGP_850_thetae_114.txt.gz
Theta_e
313 315 321 324 329 331 335 335 336 337 341 339 339 338 338 337 356 364 355 354 355 345 336 340 344 344 347 347 345 345 344 344 340 339 337 328 326 326 323 326 325 324 328 329 324 324 324 329 331
313 316 319 326 331 333 335 335 335 337 339 339 338 337 337 352 358 355 350 354 357 343 338 339 343 344 346 346 345 344 345 345 342 341 337 328 327 327 325 329 326 329 330 328 324 325 327 331 332
312 319 321 326 330 333 334 336 337 337 338 337 337 336 336 353 354 360 354 355 357 337 337 339 341 343 343 343 341 341 345 345 343 342 337 329 327 328 326 328 331 332 331 328 324 325 327 331 334
314 320 322 325 329 333 333 335 335 338 337 336 336 336 336 347 352 360 356 357 358 342 337 338 340 340 338 336 336 339 345 345 344 342 336 329 326 327 325 328 334 333 331 323 323 325 325 331 334
317 320 321 322 326 330 333 334 334 336 336 335 335 336 339 353 354 358 354 356 357 354 343 338 338 336 334 334 336 340 345 345 344 342 336 330 327 327 327 326 332 332 323 321 323 325 325 325 330
319 320 321 321 323 325 328 331 332 334 334 333 334 334 339 357 355 355 354 356 354 354 347 339 337 335 334 334 336 340 344 344 343 341 336 331 328 326 328 325 323 322 322 321 323 325 325 325 325
319 320 320 321 322 325 326 327 328 331 332 332 333 334 352 355 355 353 354 354 351 354 351 338 336 335 334 334 336 340 341 341 341 339 334 331 329 326 328 327 324 322 323 322 323 324 324 325 324
318 320 320 321 321 322 325 326 327 327 331 330 331 332 338 356 355 354 354 353 351 352 353 339 336 334 334 335 336 340 339 337 337 334 332 329 327 324 327 327 324 323 324 323 322 322 323 324 324
318 320 320 320 321 322 323 324 325 328 327 327 329 331 333 342 351 348 344 351 352 351 351 346 338 335 334 334 334 336 336 336 333 331 330 327 324 322 326 327 325 323 324 323 322 321 321 321 321
319 319 319 321 322 322 323 324 324 325 324 325 325 329 331 333 352 348 336 353 352 351 351 349 346 337 340 342 332 334 335 335 332 331 328 326 323 323 324 326 326 325 324 324 324 323 323 322 322
318 320 320 320 321 322 323 322 323 323 324 325 325 326 329 331 337 353 353 352 352 351 351 350 348 346 344 345 338 333 334 333 332 333 330 325 333 342 338 342 337 327 324 324 324 325 326 324 324
318 319 319 320 320 321 321 321 322 322 322 323 323 324 326 332 338 343 348 349 351 352 351 350 349 347 345 346 345 335 335 332 333 335 337 331 341 343 342 342 342 339 336 329 331 333 338 339 339
319 319 320 320 320 320 320 321 320 320 320 320 321 322 323 331 331 333 340 351 350 351 351 351 350 347 345 349 347 343 344 342 344 344 345 342 343 344 343 341 340 341 342 341 341 340 340 340 341
318 319 319 319 320 319 320 319 319 319 319 320 320 321 321 324 330 330 331 339 349 350 347 347 340 349 345 350 347 346 346 346 346 347 347 346 347 348 348 345 346 346 347 345 344 345 345 345 347
317 318 319 319 319 319 319 318 319 318 318 319 319 320 320 321 325 328 330 331 339 345 345 344 337 334 341 349 350 348 347 348 347 349 348 348 348 349 348 349 347 342 342 343 345 345 346 345 345
318 318 317 319 319 319 318 318 319 319 319 319 318 319 319 320 321 323 327 333 331 338 346 344 340 339 337 340 350 349 349 348 349 347 349 350 348 348 348 348 348 346 348 348 348 347 347 348 346
319 317 317 318 319 319 319 318 320 319 320 320 319 319 319 319 319 320 324 331 330 338 348 347 340 335 333 346 347 350 349 348 346 347 346 346 350 347 347 347 347 347 347 347 347 347 343 344 344
319 320 320 320 321 321 321 321 321 321 321 321 320 319 319 319 319 319 324 330 332 326 350 349 345 344 342 337 336 336 341 341 340 342 339 337 342 343 336 340 346 345 345 344 340 344 346 340 339
318 320 321 320 321 322 322 322 323 323 321 323 322 321 319 319 319 319 327 330 332 332 328 346 346 352 351 346 343 343 341 349 347 345 330 337 341 344 339 334 329 338 341 342 343 344 343 339 333
318 320 321 322 322 322 323 323 324 324 324 324 323 322 321 319 319 319 326 332 335 332 335 329 326 339 340 346 344 346 345 346 345 349 352 347 343 333 330 337 343 340 343 341 339 334 322 320 318
318 319 321 323 322 322 323 323 325 324 324 323 322 321 321 321 320 320 328 331 331 335 338 331 328 327 327 327 325 326 338 341 343 345 345 342 344 344 343 341 338 338 334 323 317 320 328 326 321
319 320 321 322 322 323 323 324 328 326 325 324 322 322 321 321 320 320 328 331 331 333 333 330 326 325 323 323 324 323 322 330 332 334 335 333 331 332 329 324 317 314 315 315 316 319 323 325 325
319 321 321 321 322 322 323 323 325 326 325 324 325 323 323 324 320 322 323 332 330 333 333 328 326 326 325 323 337 322 336 342 335 329 329 326 324 316 316 316 317 318 316 315 316 316 316 317 318
321 321 321 321 321 322 322 323 324 326 326 325 325 323 323 324 324 324 328 331 332 332 332 334 333 332 325 322 325 335 334 334 329 330 328 325 328 329 327 326 325 320 317 317 317 316 317 317 318
320 322 322 322 322 322 322 323 325 327 326 325 325 323 323 325 328 327 331 331 332 335 341 342 335 334 328 322 336 332 329 330 329 328 327 327 327 326 324 325 325 322 318 316 316 316 316 315 316
321 323 322 323 322 321 322 323 324 327 326 325 324 324 323 326 328 330 330 331 337 339 339 337 337 335 334 333 333 332 329 325 323 324 322 319 319 318 318 317 317 316 316 315 314 312 310 310 311
321 322 321 323 324 324 323 323 326 326 325 325 325 325 326 327 329 331 333 333 337 335 332 331 329 328 326 322 321 322 318 318 318 317 317 316 316 316 316 315 314 313 312 311 310 310 311 314 317
322 322 323 323 326 325 325 325 327 327 327 325 327 327 327 329 331 331 331 332 331 330 329 328 326 325 324 320 318 319 317 316 316 316 315 315 315 314 314 313 312 311 310 311 312 315 317 318 318
319 321 322 325 326 330 331 331 327 328 328 327 327 328 329 330 330 330 330 329 328 326 326 325 323 322 321 320 319 318 317 316 315 315 314 313 313 312 311 311 311 312 313 316 317 317 316 315 315
322 322 324 326 327 324 327 329 327 328 328 326 327 328 329 329 329 329 328 326 325 324 323 322 321 320 319 318 318 318 317 315 314 314 313 311 312 312 312 312 315 315 316 316 316 315 314 315 314

GFSSGP_850_thetae_117.txt.gz
Theta_e
314 313 315 320 322 323 325 329 330 332 333 337 337 336 337 355 355 355 353 353 353 337 331 346 345 346 346 345 344 344 343 340 340 337 330 323 324 322 322 321 324 327 327 324 324 324 327 328 327
312 313 316 318 323 326 326 328 330 332 337 338 338 337 339 356 355 349 345 355 354 335 329 344 345 345 346 345 343 344 344 343 341 338 330 324 324 322 323 323 323 328 327 324 325 326 328 328 329
311 314 320 316 321 326 327 329 330 333 337 337 337 336 342 355 354 355 354 355 354 342 329 342 343 342 343 344 342 342 344 344 342 337 330 324 324 322 324 324 327 327 326 324 325 328 330 330 330
311 317 322 318 321 325 327 328 329 331 333 336 336 335 342 357 358 354 352 354 354 341 333 338 341 342 342 342 340 340 344 344 343 338 331 325 324 323 323 326 328 328 327 324 325 326 330 331 331
316 316 317 317 319 322 324 328 330 331 334 337 335 338 351 355 358 354 354 354 354 338 336 337 339 339 339 338 337 338 343 345 343 339 333 327 324 325 325 328 329 329 325 323 324 325 325 330 330
316 318 315 317 317 320 323 326 327 327 329 333 333 333 352 358 357 358 358 357 355 334 335 340 340 337 336 334 335 338 343 345 343 340 335 329 325 327 325 329 332 330 322 322 324 325 324 324 326
315 314 314 315 317 319 321 323 325 326 326 332 332 331 355 355 354 355 356 356 354 342 338 341 340 337 334 334 335 338 343 344 343 341 336 330 328 326 327 325 327 323 322 322 323 324 324 324 324
318 313 314 316 317 317 320 321 324 325 326 327 332 330 356 354 354 354 355 353 355 353 347 340 340 338 334 334 335 338 343 344 341 339 335 331 329 325 326 326 323 322 322 322 322 324 324 324 324
317 315 314 315 316 316 320 319 323 325 326 329 331 331 341 353 352 351 351 351 352 353 354 343 338 336 334 336 338 342 343 343 340 337 333 330 328 325 326 327 324 322 323 323 322 322 322 322 323
315 313 315 316 316 316 318 319 320 322 326 325 326 327 340 339 339 347 347 345 343 341 343 353 335 335 335 336 338 341 342 342 339 336 332 330 326 323 323 326 326 323 323 324 323 322 322 322 322
315 315 315 317 318 318 318 319 320 320 320 324 324 325 337 339 335 336 350 347 342 338 352 352 337 335 335 337 336 338 339 338 338 335 332 328 325 323 324 326 326 325 324 323 324 323 323 323 323
312 316 316 317 318 319 317 319 318 320 320 320 320 321 323 329 334 336 340 340 341 345 349 348 346 342 343 343 337 333 334 335 334 332 332 328 324 329 341 332 333 331 327 323 323 323 324 333 337
313 314 317 318 318 318 319 317 318 319 320 320 320 320 321 321 335 340 340 350 350 350 350 348 347 344 345 347 345 338 333 332 332 332 334 333 330 340 343 341 339 340 340 339 332 335 332 337 339
315 315 316 317 318 318 317 317 319 319 319 319 319 319 320 320 321 328 333 342 350 348 348 347 347 339 339 343 345 345 341 337 336 334 336 339 336 341 344 342 340 340 345 342 342 342 342 340 342
314 313 314 316 317 316 319 315 317 319 318 318 318 319 319 319 320 321 327 329 339 348 349 350 348 345 341 341 342 345 345 345 345 346 346 346 338 346 347 347 344 346 347 347 346 344 346 345 346
313 313 313 313 315 316 317 316 316 318 318 318 318 318 319 319 319 320 321 326 332 334 345 344 342 343 342 341 335 337 348 348 347 347 348 347 345 345 347 347 346 346 345 346 345 345 345 345 343
313 314 313 314 314 315 315 316 316 318 318 317 318 318 318 319 319 318 320 323 329 334 338 340 341 338 338 335 335 345 347 348 347 345 347 348 346 346 346 345 344 340 343 342 337 343 340 341 340
314 314 315 315 315 315 315 315 316 318 318 318 319 318 318 318 319 319 319 325 329 328 336 342 344 339 336 335 346 346 347 347 342 340 341 342 342 340 340 339 334 334 337 336 338 332 331 332 339
315 315 316 318 318 317 316 316 316 318 319 319 320 320 319 319 318 319 319 323 328 335 335 340 338 337 335 336 336 339 341 340 336 332 334 337 333 335 336 335 328 335 332 338 335 332 333 339 335
316 315 315 317 320 318 318 318 320 320 319 320 320 321 320 319 319 319 318 328 327 332 334 333 340 336 337 332 339 332 332 336 336 339 335 335 336 332 327 328 329 334 340 338 337 335 332 317 316
315 314 315 317 319 320 321 320 322 323 322 323 322 323 321 320 319 319 321 331 332 333 332 325 335 329 334 339 343 343 344 340 344 339 334 328 333 337 334 340 341 335 335 336 331 315 315 317 317
315 315 317 318 319 320 320 318 321 321 321 322 322 321 321 321 320 318 325 334 331 328 329 331 336 340 340 341 337 324 324 336 332 329 335 338 336 340 336 336 336 336 326 314 315 316 318 319 318
315 317 317 317 319 320 319 317 319 321 322 321 319 321 321 321 320 319 324 335 335 334 333 328 333 336 340 341 337 328 328 332 336 336 339 338 336 331 330 323 318 315 315 315 316 316 316 317 317
316 317 318 318 317 317 319 320 319 322 322 321 320 322 322 322 321 321 321 333 335 336 331 330 330 329 328 329 328 331 329 332 333 333 331 327 322 325 327 325 322 319 320 319 317 317 316 316 316
315 315 319 320 317 318 319 319 318 323 324 323 321 322 323 326 322 319 328 333 338 336 337 340 338 336 333 331 327 330 331 333 330 329 328 328 330 330 328 326 324 321 319 317 316 315 315 313 312
315 317 318 320 320 319 319 319 319 321 323 325 324 323 326 329 331 331 333 333 335 337 339 339 338 336 335 336 336 335 332 330 329 329 328 327 326 324 322 319 317 316 316 315 313 312 311 311 310
318 318 318 320 323 322 320 319 325 324 324 323 325 326 329 330 331 332 333 336 339 340 338 335 334 332 331 331 330 329 327 326 324 322 319 317 316 316 315 315 314 313 313 312 311 311 311 311 313
319 318 319 318 323 325 323 324 326 327 325 326 323 325 331 331 333 338 338 337 334 332 330 328 327 327 323 320 320 318 317 317 316 316 316 315 315 314 314 313 312 312 311 311 311 312 314 316 316
319 320 319 318 320 322 324 331 327 327 324 325 325 327 331 331 331 332 331 329 329 328 327 327 324 321 320 319 318 317 317 316 316 315 315 314 314 313 312 311 311 311 312 312 313 315 316 315 314
322 318 319 322 323 322 322 330 326 325 326 325 325 327 327 326 329 328 327 327 327 326 323 322 321 319 318 318 317 317 316 315 315 314 313 312 312 311 311 310 311 312 313 314 315 315 314 314 313

GFSSGP_850_thetae_123.txt.gz
Theta_e
311 313 314 316 320 319 323 324 324 327 329 330 329 333 343 348 350 345 348 344 338 335 338 342 342 341 340 340 338 338 336 333 328 323 324 324 326 325 322 327 326 324 322 323 323 325 325 325 324
312 313 313 318 320 323 323 321 325 324 327 328 330 351 353 351 352 350 349 346 341 335 339 342 342 342 341 341 339 339 339 336 329 323 323 324 323 322 324 326 325 323 322 323 326 326 325 324 325
312 312 315 313 316 322 323 323 325 326 328 328 329 330 352 353 353 351 350 348 343 335 337 343 343 342 342 341 340 340 340 338 331 324 323 322 321 321 325 326 325 324 323 324 326 326 326 327 333
309 313 317 313 316 319 323 324 322 324 327 327 326 326 348 354 348 348 347 350 345 336 341 343 343 343 343 341 341 341 340 340 335 327 323 321 321 321 323 324 325 324 324 325 326 327 327 335 338
312 313 311 316 316 316 320 322 323 322 322 324 324 326 356 355 352 352 347 352 345 338 341 344 344 344 343 342 341 342 342 340 339 331 323 323 322 322 322 324 326 325 324 325 328 329 329 330 340
313 311 310 313 315 318 318 320 321 320 321 323 323 335 355 356 355 354 350 353 344 338 342 344 345 344 343 343 342 342 342 341 340 334 327 323 323 324 324 327 328 327 325 324 325 329 330 330 330
310 307 309 311 314 315 316 319 317 318 317 319 321 352 354 355 355 354 353 351 343 339 342 345 345 345 344 344 343 342 342 343 340 338 332 326 324 324 325 326 329 330 327 322 324 324 326 330 331
313 308 310 310 312 314 316 318 318 318 317 320 321 352 354 352 354 354 354 352 345 341 340 344 344 344 344 344 343 342 342 343 341 339 337 330 326 325 325 327 331 331 328 321 321 323 325 324 324
314 310 309 310 312 313 315 315 317 318 318 318 321 331 330 345 355 355 355 354 350 344 341 341 341 341 342 343 342 340 342 343 342 339 339 336 330 327 326 326 327 331 327 322 320 321 323 324 324
309 307 310 311 312 313 315 315 315 316 316 317 320 333 332 350 354 355 355 354 350 343 341 340 339 342 342 342 339 337 340 342 343 342 340 339 335 331 329 326 327 326 324 323 323 322 321 321 321
309 311 311 313 315 315 314 314 316 315 314 318 318 348 353 355 356 355 355 353 351 345 340 341 338 340 342 339 336 337 340 342 342 342 340 338 336 332 329 327 326 328 326 323 324 324 323 322 322
307 309 313 313 314 315 314 316 315 316 316 318 318 336 353 355 355 354 353 353 351 350 350 346 340 340 340 337 335 337 338 340 340 338 336 335 333 331 327 325 323 326 327 326 326 327 328 327 326
306 308 311 313 315 315 316 313 313 315 317 318 317 323 348 352 353 352 350 349 351 352 353 353 351 346 339 336 334 336 336 335 332 333 333 332 331 330 327 325 328 326 330 335 338 339 338 336 330
309 308 309 310 311 312 313 314 315 315 316 317 318 318 318 323 338 350 347 348 349 348 347 345 345 348 342 336 333 333 332 333 334 334 332 332 332 332 329 331 341 339 340 341 342 342 342 339 338
310 309 309 308 310 309 312 311 313 315 316 317 318 318 318 318 320 329 343 345 345 342 342 341 344 347 342 339 334 333 335 338 333 334 335 333 331 333 332 337 341 342 340 340 341 342 342 341 339
310 309 310 309 309 311 312 312 314 315 316 316 318 318 317 318 317 318 324 341 343 342 343 342 345 345 343 341 336 337 337 337 334 337 335 334 333 333 338 339 342 343 343 342 342 339 334 332 330
309 307 308 309 307 310 310 311 313 315 316 316 317 318 317 317 317 317 321 326 331 336 338 341 340 342 342 341 338 337 337 335 338 338 338 339 338 340 343 340 342 343 341 341 341 335 333 333 334
310 309 310 310 311 309 310 310 311 314 314 314 317 317 318 317 315 317 319 323 329 330 335 339 340 341 342 342 340 339 335 335 337 339 341 343 344 344 343 341 341 338 336 333 336 336 335 332 332
312 312 312 311 311 312 310 310 310 312 313 312 314 314 316 317 318 316 321 326 330 331 335 334 337 338 340 342 340 340 337 338 337 344 342 342 344 336 336 337 335 333 332 335 333 333 334 334 334
312 313 312 313 313 311 312 312 312 311 311 313 314 315 316 317 317 317 317 324 329 328 330 331 332 337 341 342 342 340 340 339 339 338 340 340 338 336 333 335 329 337 336 335 333 327 329 331 333
312 313 313 314 314 313 314 312 313 314 313 314 315 316 316 317 317 317 317 322 327 331 329 328 328 334 340 341 341 341 340 336 339 342 339 336 335 334 332 328 329 334 333 330 332 330 331 333 331
314 314 315 315 314 312 313 312 313 314 314 314 315 315 316 317 317 317 318 323 325 329 328 328 328 334 339 338 340 338 337 339 339 338 336 335 334 334 332 331 329 329 329 331 332 333 331 327 328
316 315 315 315 314 312 313 313 312 315 315 315 314 316 317 318 318 319 318 319 325 333 329 327 327 334 334 335 336 335 336 334 337 337 335 337 335 329 334 334 332 334 333 332 331 329 327 326 323
316 315 314 314 312 311 312 312 314 315 316 318 317 319 320 321 320 319 319 323 333 335 330 328 332 335 336 336 336 339 338 334 331 332 334 331 329 327 329 333 332 333 331 329 325 323 319 318 318
316 313 312 312 312 314 311 313 314 316 317 318 318 319 321 320 319 318 321 331 337 334 330 332 334 333 335 337 338 338 332 326 325 327 329 327 330 332 333 331 326 323 323 322 321 321 320 319 316
317 314 310 312 313 312 314 315 315 320 323 324 324 322 316 316 319 322 328 333 341 336 334 335 334 333 334 339 332 331 332 329 331 335 336 334 332 331 328 325 325 326 325 324 322 318 316 314 312
319 317 312 314 317 314 314 316 323 327 327 328 332 333 333 328 336 338 340 342 341 339 335 335 332 335 333 332 331 332 333 334 335 334 332 330 329 328 328 328 327 324 319 316 314 313 312 312 312
315 314 314 315 317 320 320 323 324 327 327 327 329 328 329 331 330 333 337 340 339 336 333 335 333 333 332 333 333 334 333 330 328 327 326 325 324 323 321 318 316 314 313 312 312 311 311 311 310
319 316 315 314 316 318 322 326 323 326 326 328 327 326 325 327 329 329 329 329 329 328 328 328 328 325 323 323 324 324 324 323 323 321 318 316 315 315 314 313 312 312 311 311 311 311 311 311 312
318 315 316 315 317 317 318 323 323 324 326 326 326 325 324 324 324 324 323 323 322 321 320 320 319 319 318 317 317 317 316 316 315 315 314 314 313 313 312 311 311 311 311 311 311 311 312 313 314

GFSSGP_850_thetae_129.txt.gz
Theta_e
311 311 312 315 324 326 331 331 327 330 330 327 327 330 336 339 348 350 350 348 343 340 342 342 343 341 335 332 331 330 330 331 330 330 329 326 324 326 322 327 328 328 331 333 331 326 325 325 323
310 311 313 318 326 330 331 328 329 331 328 327 329 329 340 349 352 351 349 342 341 340 341 342 343 339 334 334 332 330 329 327 325 324 324 324 325 325 324 328 326 326 328 326 323 322 322 322 322
310 312 315 319 323 330 331 327 328 328 326 327 328 326 338 350 353 351 348 337 340 341 339 341 341 337 335 334 333 332 330 327 323 323 323 324 326 323 328 326 324 323 325 323 325 325 324 324 323
312 313 314 318 323 325 329 328 327 326 325 325 324 329 327 331 351 350 347 338 338 340 340 341 341 338 337 336 335 335 333 328 323 322 324 325 324 323 327 326 323 322 324 326 326 325 325 325 333
310 313 315 316 318 320 322 326 324 327 325 325 323 327 325 327 349 350 346 339 338 339 341 342 341 337 337 336 337 337 336 332 325 322 323 323 323 324 327 326 323 322 325 326 326 326 331 335 339
311 312 314 314 316 317 319 320 322 324 323 322 323 323 328 332 346 352 347 342 340 337 339 342 340 338 337 336 338 338 338 336 328 322 323 322 322 324 327 326 324 323 324 326 327 327 334 338 339
312 313 313 313 313 314 316 318 320 322 322 322 321 324 327 332 342 354 348 347 342 339 338 342 341 339 338 337 337 338 339 339 334 327 322 321 321 322 324 325 326 324 324 326 328 329 329 333 334
312 314 313 312 313 313 314 315 317 319 321 318 319 324 327 342 341 353 349 348 344 341 340 342 341 340 338 338 338 339 340 339 338 332 326 322 322 323 323 324 327 326 324 324 326 329 330 331 331
311 313 313 313 312 313 315 316 315 316 317 317 318 326 330 330 343 354 350 350 345 343 342 342 342 342 340 338 338 339 340 340 339 338 332 326 323 323 323 324 325 327 327 323 322 323 325 325 326
314 314 314 313 313 313 314 314 316 317 317 318 318 318 318 334 345 349 351 350 344 343 343 343 343 342 341 340 340 340 340 341 340 339 337 332 328 324 322 323 324 326 328 328 322 320 322 323 324
312 314 314 312 313 313 314 314 314 316 317 317 318 318 331 326 352 354 353 352 345 343 344 344 344 343 342 341 342 341 341 341 341 340 340 337 333 329 327 325 324 325 326 328 324 322 321 321 322
312 312 313 313 313 314 315 314 315 315 315 315 316 316 330 340 351 353 354 351 345 342 342 342 343 344 343 343 343 342 341 340 341 341 340 340 338 334 331 328 327 324 325 324 323 322 323 323 323
311 312 311 312 313 313 313 314 315 315 315 315 315 316 317 336 350 353 354 350 346 344 343 342 343 343 343 343 343 342 342 340 339 341 341 341 340 337 334 331 328 326 324 323 325 324 323 323 323
313 311 312 311 312 312 313 313 313 314 315 315 315 315 316 331 349 351 353 351 349 348 347 343 341 341 342 341 341 342 341 339 338 339 341 341 341 339 337 333 329 326 324 324 325 327 326 331 333
312 312 311 312 312 312 311 312 313 313 313 314 315 315 316 321 349 352 353 353 353 352 349 343 340 339 340 341 341 342 341 337 337 339 340 341 340 339 338 334 330 326 326 324 327 333 335 339 341
314 314 315 314 311 311 311 315 314 313 313 314 314 315 315 316 334 348 349 348 347 351 351 348 347 344 342 342 341 342 340 336 337 340 340 341 341 340 338 334 332 328 334 335 335 338 339 339 340
313 316 315 315 313 313 311 314 314 313 313 314 315 316 316 317 317 329 326 334 341 347 349 349 349 349 349 349 345 343 339 337 338 340 341 341 340 338 337 334 333 331 333 338 339 340 338 339 337
317 314 313 315 313 313 314 312 314 313 312 314 315 316 316 317 317 317 318 319 324 336 347 348 345 346 346 348 347 344 339 339 340 341 339 338 338 337 336 335 334 337 337 337 338 333 333 336 334
316 315 315 314 314 313 314 315 313 314 313 314 314 315 316 316 317 317 317 318 320 328 343 344 341 339 339 343 347 344 341 341 341 340 339 339 338 338 338 338 340 340 338 336 335 335 335 335 331
316 314 315 315 314 313 315 315 315 314 315 314 315 316 316 316 316 316 316 316 317 322 337 340 337 336 339 342 346 344 341 342 340 338 338 337 337 340 339 338 338 335 332 331 333 335 335 334 331
318 317 314 314 314 313 315 316 316 316 315 315 315 316 317 317 316 316 316 316 317 320 326 328 332 335 339 342 344 343 341 340 339 339 338 337 336 337 338 338 333 329 330 335 334 334 332 332 329
319 317 315 314 315 316 316 317 317 317 317 317 317 316 317 317 317 316 316 316 316 318 324 331 333 334 337 342 342 340 340 341 339 339 338 337 337 337 338 338 333 332 333 332 333 330 329 331 333
318 317 316 315 315 316 316 316 317 317 317 318 319 318 318 317 317 317 315 316 316 320 326 331 335 336 337 341 338 338 339 339 338 337 337 338 336 336 335 334 333 332 329 329 328 330 331 332 331
317 317 317 316 316 317 317 317 318 317 318 318 319 319 319 318 316 316 316 319 319 324 325 326 333 337 338 340 339 338 337 337 335 334 335 336 335 334 335 334 331 332 332 333 332 332 333 331 329
315 316 316 317 316 318 317 316 318 318 320 323 325 322 317 317 315 316 321 329 332 327 330 333 336 337 339 338 337 335 336 335 336 332 335 335 335 336 335 332 332 333 333 332 331 329 328 326 324
316 315 316 317 317 317 315 317 317 323 331 331 326 326 327 324 326 329 332 334 331 334 335 337 338 340 340 338 337 335 335 336 337 332 329 329 332 334 332 332 332 330 329 327 325 324 324 324 324
316 315 316 317 317 317 316 318 329 330 331 331 330 332 333 334 334 335 333 335 337 336 337 338 339 337 336 335 335 335 335 334 335 333 332 333 333 334 333 331 329 327 326 325 325 325 323 321 318
316 316 317 317 317 318 317 319 323 331 331 329 328 328 328 328 330 332 333 332 333 336 336 336 335 335 331 328 328 328 330 331 331 331 331 331 330 328 326 326 325 324 323 323 322 319 317 314 312
318 317 317 317 319 320 321 320 328 330 329 329 327 326 323 323 327 330 331 332 333 333 332 331 328 324 323 323 323 324 324 325 325 323 324 323 325 324 323 323 320 317 315 314 313 312 312 312 311
318 318 318 318 320 320 320 331 326 328 326 327 324 321 320 320 321 323 325 326 327 327 329 329 326 326 324 322 322 322 324 321 318 318 317 316 316 316 315 314 313 312 312 312 311 311 310 309 309

GFSSGP_850_thetae_132.txt.gz
Theta_e
311 312 314 317 329 332 335 334 334 333 332 332 332 334 339 341 346 358 357 355 350 355 343 346 344 342 338 334 335 339 341 342 343 341 337 331 327 326 321 325 327 332 334 334 333 333 331 329 326
317 313 315 322 331 335 335 334 334 334 332 332 332 333 338 347 351 357 357 352 353 352 340 342 343 341 337 333 334 336 338 338 336 334 331 328 327 324 324 327 328 330 332 333 331 327 325 324 323
313 313 319 325 330 334 335 334 333 333 332 332 332 332 336 346 356 357 357 349 353 350 340 341 342 341 334 332 331 331 330 329 328 327 326 326 326 324 327 327 326 327 328 325 323 322 322 322 322
313 315 317 324 330 331 333 334 332 332 331 331 330 333 331 341 346 357 354 352 354 351 344 340 341 339 334 332 330 330 329 327 324 323 325 324 326 323 327 324 323 323 325 324 325 324 323 323 324
313 316 319 321 325 330 332 331 332 332 332 331 329 333 332 341 348 357 354 352 354 353 352 341 341 338 334 333 332 333 331 327 323 322 323 326 325 324 327 325 322 323 324 326 325 325 325 326 330
314 315 318 319 321 324 327 327 329 331 332 332 328 330 332 351 351 358 354 352 353 352 353 341 341 337 335 333 335 335 334 330 324 321 323 323 323 324 327 325 323 322 325 325 325 326 327 334 338
316 317 317 318 320 321 322 323 325 327 329 330 327 329 332 342 352 358 354 353 352 352 352 344 340 336 334 334 336 337 337 334 327 322 322 321 322 323 327 326 324 323 324 326 326 327 334 337 338
316 318 318 318 318 319 320 319 320 322 325 326 326 328 330 349 352 355 356 354 353 352 351 350 346 336 333 334 336 338 338 337 332 325 322 321 321 322 325 325 325 324 324 326 328 329 329 333 334
315 318 319 319 318 319 318 318 318 318 319 320 322 325 334 341 350 354 357 355 353 352 351 350 348 344 342 340 335 336 337 338 336 329 324 322 322 321 322 323 325 326 324 324 325 328 330 330 330
317 320 321 321 320 319 319 318 318 318 319 319 320 321 332 340 347 350 356 356 354 353 351 350 351 347 344 343 340 335 336 337 337 334 329 325 337 330 335 333 325 328 329 326 323 323 325 326 334
318 321 322 321 319 317 318 318 317 318 320 320 320 321 326 335 345 348 351 356 355 353 353 352 353 350 346 345 345 343 344 343 341 340 336 339 341 339 338 340 328 329 330 332 330 323 321 330 332
318 319 320 321 319 317 318 317 318 317 318 318 319 320 320 331 336 346 349 353 356 354 353 352 353 351 348 347 347 346 346 346 346 346 340 344 341 342 341 340 339 340 339 339 340 338 336 336 334
319 319 318 317 318 317 317 318 318 318 317 317 317 317 318 320 329 347 350 352 355 354 353 353 352 351 348 349 349 348 348 348 347 347 345 346 345 345 343 342 341 341 340 340 341 339 337 337 336
317 317 317 316 317 317 318 318 317 317 317 317 317 317 318 319 322 346 353 353 355 355 354 354 350 348 345 349 352 351 350 349 349 347 347 345 346 347 345 345 343 341 340 339 339 338 338 338 337
316 317 317 318 317 317 316 318 318 317 317 317 317 317 317 319 321 345 353 355 356 356 355 355 348 343 342 344 349 350 351 351 349 348 348 347 346 348 347 346 344 341 338 338 338 339 340 340 341
318 317 319 318 318 317 316 318 318 318 317 317 317 317 317 318 320 345 355 357 358 356 355 355 352 343 342 343 343 346 351 351 350 348 348 349 347 346 343 345 344 342 342 341 340 340 341 343 344
319 320 319 319 319 318 318 318 319 317 317 318 318 318 317 318 321 340 353 355 358 358 357 355 348 343 341 342 344 343 346 349 350 349 348 348 347 344 344 346 345 342 342 340 340 343 343 344 343
320 320 321 321 320 318 318 318 319 318 317 318 318 318 317 318 320 322 343 345 351 356 358 356 350 346 345 342 344 346 347 347 348 350 349 346 345 344 344 346 346 340 341 342 342 341 343 335 334
320 321 321 320 320 318 319 320 319 319 317 318 318 319 319 319 320 321 322 333 343 353 356 357 354 350 350 349 350 349 347 346 345 348 347 345 341 341 339 339 343 339 341 342 337 335 334 335 336
319 320 321 320 319 318 320 320 320 320 319 318 318 318 319 319 320 321 322 327 340 345 351 354 354 351 348 350 351 349 349 346 347 346 341 339 339 342 339 341 342 339 339 337 328 326 332 333 339
319 320 320 320 319 319 319 320 320 320 320 318 318 318 319 319 320 321 321 323 331 340 336 348 352 346 348 347 346 347 345 346 345 341 339 339 338 337 337 339 338 339 336 333 332 332 335 339 339
320 319 319 318 318 320 319 322 322 321 321 321 319 318 318 319 319 320 321 323 329 334 339 347 351 346 346 344 344 345 347 346 345 343 340 338 337 337 336 337 338 335 331 331 334 336 337 339 337
319 319 319 319 319 319 319 320 323 322 322 321 321 319 319 319 319 320 320 321 324 329 338 346 349 345 342 344 345 344 346 345 345 344 341 338 338 338 338 337 339 338 334 337 335 339 334 336 338
318 319 319 320 319 320 321 320 322 322 322 322 322 320 319 320 320 319 320 321 326 331 340 347 347 343 342 342 342 343 342 343 342 342 341 341 337 338 337 336 335 334 335 333 334 330 334 336 337
318 319 323 323 320 321 321 321 322 323 321 322 322 321 320 320 320 321 320 323 329 340 344 344 343 340 342 342 340 340 343 344 343 342 342 341 339 336 339 338 338 338 335 335 335 333 333 331 331
319 322 322 323 323 321 320 321 322 321 324 328 328 326 324 322 322 321 323 328 338 339 339 338 340 340 339 338 339 340 339 340 337 335 338 336 338 334 335 336 334 334 333 331 330 329 328 326 325
320 323 321 320 321 322 321 322 326 324 328 329 330 329 325 323 323 327 331 337 336 336 336 339 339 338 338 338 337 336 335 335 333 332 332 331 331 331 332 331 331 330 329 328 327 325 325 324 323
320 319 321 320 322 322 321 322 324 328 329 331 335 332 331 331 332 332 333 332 333 335 334 336 334 333 335 335 334 333 331 329 328 330 331 330 329 328 327 326 325 324 324 323 323 322 322 322 318
320 320 319 321 321 323 323 325 328 329 332 333 329 328 326 325 327 329 330 332 331 332 333 331 330 329 328 328 327 326 326 325 325 326 327 326 326 325 323 321 320 318 317 316 315 314 313 313 313
317 320 320 320 323 322 323 334 331 332 332 327 325 323 322 322 323 326 328 329 330 329 327 326 325 324 323 322 322 323 323 323 322 321 321 318 316 315 314 314 313 312 312 312 311 311 311 313 314

GFSSGP_850_thetae_135.txt.gz
Theta_e
312 314 321 322 329 333 335 334 334 336 334 335 335 336 339 342 352 364 356 355 350 354 338 342 345 344 340 335 335 340 344 345 344 343 339 331 327 323 320 324 326 329 332 330 328 330 329 329 330
318 320 319 325 331 335 336 335 335 335 334 334 333 335 336 341 353 355 354 352 353 355 339 343 343 342 338 335 335 340 343 344 344 342 337 330 327 322 321 325 326 331 332 333 332 331 331 329 325
315 319 320 327 332 333 335 336 335 335 334 333 333 334 340 348 355 356 359 352 355 357 341 341 340 340 338 334 336 340 342 343 343 340 335 330 327 322 324 326 328 329 331 332 331 328 326 324 323
317 316 319 327 330 332 333 336 337 336 334 333 333 334 335 341 346 358 359 353 356 357 354 338 340 340 337 334 334 336 337 335 335 335 331 329 328 323 327 328 327 326 327 326 323 322 322 322 323
316 317 321 324 326 329 333 333 334 335 335 334 333 334 335 344 345 357 355 354 356 355 354 340 341 340 336 333 332 332 330 328 326 324 325 325 327 323 328 326 324 323 325 323 324 324 323 322 325
317 317 320 321 323 325 329 331 333 335 334 333 333 333 335 347 345 357 353 355 355 354 355 341 342 339 334 333 331 330 329 327 324 322 323 324 326 323 327 325 323 322 324 325 325 325 325 325 328
319 319 319 321 322 324 325 326 331 332 334 334 334 333 335 342 348 356 354 354 355 354 356 346 342 337 333 332 332 332 331 329 324 321 323 324 324 323 327 325 323 322 324 325 326 326 326 330 335
319 321 320 321 321 322 325 325 326 328 330 332 333 333 333 347 348 352 355 354 354 354 353 350 346 336 333 331 332 334 334 332 327 322 324 323 323 323 327 326 325 323 323 326 326 326 331 335 337
320 322 322 321 321 322 323 324 322 323 324 326 328 331 335 348 347 349 356 354 354 354 353 349 347 343 341 340 334 335 335 333 329 324 323 322 323 322 324 326 326 325 324 325 327 328 329 330 332
323 323 324 324 324 323 324 323 321 321 321 322 323 325 332 340 345 347 351 356 354 353 353 350 349 346 343 344 340 335 336 335 332 328 325 323 338 338 339 335 324 327 327 325 324 325 326 328 333
323 324 325 325 325 324 324 322 320 322 322 321 322 324 326 332 341 344 347 355 355 354 353 351 351 348 344 344 346 343 344 342 337 335 333 332 338 341 338 340 337 328 328 330 331 326 323 327 334
324 322 322 323 324 323 324 322 322 321 321 321 321 321 322 329 336 342 344 352 355 355 353 352 353 350 346 345 347 345 346 346 346 346 343 340 343 344 342 340 343 341 342 341 341 340 338 336 334
323 323 322 321 321 323 322 322 322 322 320 320 320 321 322 322 331 337 343 345 357 356 355 354 355 352 349 347 348 346 347 348 348 348 349 346 347 346 346 343 342 341 340 341 341 340 341 340 340
321 322 322 321 321 321 322 322 321 322 321 320 320 320 320 321 322 328 341 345 353 358 357 356 357 355 353 351 349 349 349 349 349 349 349 349 349 348 347 346 345 344 342 341 340 341 340 339 339
320 321 322 322 321 321 320 321 322 321 321 320 320 319 319 319 321 323 337 346 350 356 358 357 357 357 354 352 352 352 351 351 350 349 349 350 350 349 348 347 346 345 343 343 341 340 340 340 339
320 320 321 321 321 321 320 321 322 320 321 321 320 320 320 319 320 322 330 347 348 353 358 358 357 357 355 353 355 353 352 351 351 349 350 350 349 349 350 347 346 345 344 343 343 342 341 340 340
321 322 321 322 322 321 321 321 322 321 321 321 321 321 320 319 320 322 329 348 351 355 358 358 359 357 353 354 356 354 353 353 350 350 349 350 347 348 348 348 346 346 345 345 344 344 344 344 343
322 323 323 324 323 322 322 321 323 321 321 321 321 321 321 320 319 322 336 349 356 356 358 358 358 358 353 353 355 351 354 353 352 350 351 349 348 347 348 348 347 347 347 345 343 343 343 340 339
322 324 324 323 324 324 323 323 322 322 321 322 322 322 322 322 319 322 338 350 356 360 359 357 357 357 355 356 353 353 350 351 352 351 348 346 348 347 346 347 347 345 344 343 342 342 337 335 336
322 322 324 324 324 324 324 323 323 323 323 321 321 322 322 322 320 322 328 349 349 354 357 357 358 357 352 353 351 351 352 352 351 350 349 349 350 348 346 346 346 343 343 343 340 339 335 330 328
321 322 323 324 323 323 323 323 324 323 323 321 321 321 322 322 320 322 324 330 339 349 354 356 358 357 353 352 351 352 351 350 349 349 349 347 346 347 347 345 342 342 342 339 338 329 338 334 335
320 321 322 323 324 325 322 323 324 324 324 324 322 321 322 322 321 322 323 325 335 341 348 353 355 355 354 351 354 352 349 350 349 349 346 345 340 343 344 338 339 341 338 335 335 333 334 334 336
317 319 320 321 323 323 324 323 324 325 325 324 324 322 322 322 322 321 323 324 328 335 342 349 354 354 352 355 352 349 350 347 347 345 343 343 342 340 338 342 341 340 338 331 331 335 338 337 338
318 319 321 321 322 322 323 323 324 326 326 325 325 322 322 322 322 321 322 323 326 331 339 348 351 352 349 348 349 349 348 346 344 344 344 344 344 344 344 343 343 340 340 338 339 339 337 337 336
318 321 325 324 324 324 322 324 324 325 326 326 325 323 322 322 322 322 322 322 323 326 337 349 349 347 347 346 348 348 346 346 346 344 343 342 341 340 340 342 341 339 339 339 336 337 337 337 338
318 322 324 328 324 323 322 323 324 325 326 325 325 323 322 322 322 322 322 322 322 341 345 344 344 343 343 346 346 346 343 345 343 343 340 339 340 338 338 337 340 338 337 338 335 335 335 334 332
318 323 322 322 322 323 322 324 324 324 326 328 329 325 323 322 322 322 322 323 344 343 342 341 341 342 345 347 344 345 342 340 338 334 332 330 330 329 331 332 332 332 330 330 330 329 329 328 328
317 320 323 322 324 323 322 324 325 325 326 327 328 333 334 327 326 327 334 341 340 338 338 338 337 339 340 341 338 337 334 333 332 331 331 330 330 330 331 330 329 328 327 326 326 325 326 326 325
318 319 320 322 324 325 324 324 325 327 327 330 338 333 332 334 336 337 338 335 335 334 335 336 335 336 336 335 333 331 329 327 327 327 327 328 327 327 327 327 322 321 321 321 319 317 318 320 320
319 321 320 323 327 325 324 336 334 328 330 334 329 327 328 331 334 334 333 333 334 335 335 333 332 331 329 327 325 324 323 323 322 321 320 319 319 318 316 316 315 314 316 317 317 317 316 317 317

GFSSGP_850_thetae_138.txt.gz
Theta_e
312 315 317 324 327 329 332 333 332 333 336 336 336 337 338 348 353 361 346 351 350 340 339 343 344 341 340 341 339 343 346 345 342 340 337 330 325 322 320 323 323 323 324 328 331 332 329 328 333
312 316 323 325 329 332 333 333 334 334 335 335 335 335 336 355 355 350 354 352 351 338 338 342 342 339 338 335 335 340 344 345 342 341 337 329 326 321 322 326 328 331 332 331 329 329 330 328 327
311 322 323 326 330 332 333 334 335 335 335 334 334 334 336 355 353 355 354 352 355 339 339 341 341 339 337 335 335 339 343 343 343 342 336 329 327 321 323 326 328 332 332 332 332 331 330 327 324
315 321 322 324 328 330 331 333 334 336 335 334 334 335 337 343 357 360 353 356 356 343 342 342 340 338 336 335 335 338 341 342 342 337 331 326 325 322 324 326 328 329 330 330 329 325 324 323 323
318 319 320 321 323 327 330 331 332 334 336 335 334 334 339 345 354 360 354 357 358 356 351 342 340 339 336 335 334 336 338 340 337 333 329 327 326 323 325 326 325 324 326 325 323 322 322 322 323
319 318 318 320 322 324 327 329 331 333 334 335 334 333 339 345 354 357 354 357 357 355 352 342 341 339 335 334 333 333 333 332 330 328 327 326 327 323 327 325 323 322 323 323 324 324 323 322 322
321 318 318 319 320 322 324 326 329 331 334 335 335 334 336 344 353 355 354 356 355 355 354 341 341 338 334 334 332 331 330 328 326 325 325 325 326 323 326 325 323 322 323 325 325 324 324 324 324
322 321 318 319 320 321 324 325 326 327 330 333 334 335 334 346 349 355 354 356 355 355 356 340 341 338 334 333 331 331 330 328 325 323 324 326 325 323 326 326 325 323 323 325 325 325 326 326 331
323 322 322 320 320 321 323 324 325 326 327 331 333 334 340 347 348 355 354 355 355 356 354 342 341 338 333 333 332 332 332 330 326 323 324 324 323 323 324 326 326 325 323 324 326 327 327 329 333
326 325 323 322 323 322 323 324 324 325 325 325 328 330 336 346 345 350 355 355 355 355 354 350 344 338 336 336 333 334 335 333 329 326 323 322 322 323 322 326 325 326 326 324 324 325 327 328 329
325 326 324 324 324 324 325 324 324 324 323 323 324 325 329 340 343 345 350 354 354 354 354 350 348 342 342 343 337 335 336 336 333 331 328 324 329 340 335 340 335 329 325 326 327 326 325 324 323
323 324 324 324 324 325 326 326 325 323 322 322 322 323 324 331 333 341 345 350 354 354 354 351 349 345 343 344 344 336 339 337 337 336 335 327 337 341 341 340 341 343 340 331 334 334 340 340 340
320 321 322 323 323 323 323 325 325 324 322 322 322 322 322 326 330 338 342 345 355 354 354 352 351 346 345 346 346 344 346 346 345 345 344 339 339 344 345 342 342 344 342 341 342 340 342 341 341
322 322 322 323 323 323 323 323 324 323 323 322 321 322 322 323 328 333 340 344 346 355 355 353 353 350 345 351 347 346 347 348 348 348 348 347 345 347 347 345 343 342 343 342 343 343 341 341 340
321 323 323 324 323 324 323 323 324 323 322 323 322 321 321 323 323 326 333 341 345 356 351 338 354 354 346 349 349 346 347 349 348 349 349 350 348 349 348 348 347 345 344 343 342 341 340 341 340
322 323 324 323 324 323 323 323 323 322 322 323 323 322 321 321 322 322 323 333 343 357 345 350 355 355 349 350 353 349 351 350 351 347 349 348 349 345 348 346 349 347 345 345 344 342 341 341 340
321 323 324 323 323 323 323 324 323 322 322 322 323 322 321 321 320 320 322 326 342 349 359 357 357 358 355 350 353 352 351 351 351 350 348 348 350 347 345 348 344 346 346 344 345 345 344 344 342
321 321 321 322 322 323 323 323 323 323 322 323 323 322 322 322 321 320 322 323 344 349 358 358 358 357 356 353 352 353 352 354 352 349 350 349 350 349 346 345 348 345 345 344 345 344 344 341 341
321 321 321 321 324 323 325 323 323 324 323 323 323 323 323 323 322 320 321 324 345 350 354 356 355 355 356 354 353 355 353 352 352 353 351 351 349 349 346 345 344 344 343 344 343 343 341 341 338
321 321 322 322 323 325 326 325 324 324 324 323 323 323 323 323 323 321 322 323 349 356 357 356 356 355 357 355 353 353 350 351 351 350 350 350 349 345 345 343 342 343 344 342 341 340 339 338 331
320 321 322 322 324 325 326 326 325 324 324 323 323 323 323 323 324 324 321 327 356 355 351 351 351 354 357 355 352 351 351 351 350 349 348 348 350 349 347 342 344 345 343 342 339 339 335 328 329
317 319 321 322 324 325 325 326 327 324 326 326 325 323 323 324 324 324 324 332 354 355 350 335 332 351 354 354 353 352 351 351 349 348 348 349 346 344 346 344 342 342 341 341 337 336 330 329 330
316 319 320 321 323 325 325 324 325 326 326 326 326 324 323 323 324 323 327 335 344 347 356 352 351 351 353 352 352 351 350 349 348 348 346 343 341 343 343 343 341 340 339 339 332 328 329 333 333
316 317 319 321 323 325 325 325 325 325 326 327 327 324 323 323 323 322 327 328 332 340 348 350 351 353 354 353 351 350 349 348 348 346 344 342 342 341 341 341 340 339 339 339 337 336 336 336 334
318 317 319 322 323 323 324 325 325 326 326 327 327 326 324 323 323 323 326 327 331 338 348 348 353 355 350 348 349 348 349 346 344 343 343 343 344 339 341 340 339 338 338 338 338 337 335 336 336
318 319 320 326 326 322 323 326 325 326 327 327 326 325 324 324 323 324 323 327 326 332 346 347 354 350 347 346 347 351 349 346 345 344 344 343 340 340 338 338 335 336 336 335 335 335 335 334 334
316 318 319 321 323 323 324 324 323 325 327 328 328 326 325 324 323 324 323 325 334 349 347 348 347 344 344 344 345 345 344 345 343 343 341 340 337 331 331 332 330 332 333 333 331 330 330 329 328
317 318 322 324 325 324 324 324 323 325 327 328 336 331 326 324 324 324 333 345 346 346 344 344 343 341 343 342 344 343 343 342 339 336 334 331 331 330 330 330 329 329 329 328 328 327 325 324 325
319 317 320 323 324 328 325 325 325 327 329 334 337 336 340 338 339 341 342 342 342 340 341 340 340 340 339 340 339 337 336 334 332 331 329 329 329 328 327 326 323 322 320 320 319 317 316 317 317
318 319 322 323 324 326 326 332 336 330 335 336 333 334 337 339 339 339 339 338 338 338 337 337 337 336 335 332 331 330 328 327 326 325 324 323 321 319 318 315 315 315 316 316 314 313 314 314 314

GFSSGP_850_thetae_141.txt.gz
Theta_e
314 314 313 321 321 320 323 326 327 329 330 333 335 334 345 343 346 354 342 345 351 335 341 346 339 339 342 342 343 344 345 343 340 338 333 326 323 319 322 322 322 324 327 328 330 329 328 333 330
311 312 318 321 322 324 325 326 328 329 331 334 334 335 353 352 345 343 343 346 351 333 337 342 339 336 338 339 339 341 343 343 341 339 333 326 322 319 323 323 323 325 326 326 328 328 327 327 327
311 318 321 318 320 326 327 327 328 330 332 334 333 334 353 351 345 341 349 348 350 334 335 341 339 336 335 334 335 338 340 342 341 339 332 326 323 320 323 325 327 330 331 330 327 326 327 325 324
312 320 324 317 322 324 326 327 328 329 331 333 334 335 347 352 352 351 351 350 350 333 338 339 338 336 335 334 334 337 341 342 341 339 331 326 324 320 324 325 326 327 327 328 328 328 326 324 323
316 317 317 317 318 320 324 327 328 328 329 331 334 334 349 359 356 353 352 353 351 334 341 340 337 336 335 334 333 335 339 340 340 336 329 325 325 321 325 326 325 324 325 325 323 322 322 322 323
317 318 312 319 316 319 320 322 324 326 328 330 332 336 348 359 354 353 353 353 355 333 341 340 338 336 335 334 331 333 337 337 335 331 326 325 325 322 325 325 323 322 324 323 323 323 322 321 322
316 313 312 312 313 316 318 322 322 323 324 325 331 332 351 357 355 354 353 354 355 333 339 340 338 336 335 334 331 332 333 333 330 326 325 324 325 322 326 324 323 322 323 324 324 324 323 323 322
321 317 316 313 314 314 316 320 323 324 324 326 326 332 343 356 352 356 356 357 355 344 339 339 338 336 335 334 332 331 330 328 326 323 324 324 325 322 325 325 324 322 322 324 324 324 324 324 324
321 320 320 318 314 314 318 316 321 322 324 325 326 334 344 355 353 355 356 356 355 354 350 339 338 336 335 334 332 331 330 328 325 323 323 324 323 322 324 325 325 323 323 323 325 325 325 326 328
321 321 321 319 317 317 317 317 319 321 321 324 326 342 348 355 354 355 356 355 354 354 355 342 339 337 335 333 332 332 332 330 327 324 323 322 322 322 322 325 326 325 325 324 324 324 326 327 327
321 324 322 322 322 321 320 321 323 322 318 323 324 329 346 350 355 354 356 355 355 354 355 340 339 337 335 334 333 334 335 334 331 328 324 322 322 326 325 327 328 329 328 324 325 325 325 326 327
316 320 323 323 324 323 322 323 322 323 323 323 323 323 339 344 345 354 354 355 355 355 355 354 339 338 334 335 333 335 335 335 335 334 329 325 324 336 340 334 338 341 342 340 326 339 339 339 340
315 316 322 324 324 323 323 322 321 321 323 322 322 322 322 339 341 344 350 353 355 355 355 353 344 338 339 339 335 335 336 337 337 336 335 331 331 339 341 341 341 342 344 342 341 341 341 340 343
318 318 318 319 320 323 322 322 321 322 323 324 322 322 322 322 335 337 341 344 351 355 351 349 347 341 343 343 343 342 337 340 340 340 342 340 335 342 345 345 343 345 343 343 344 344 343 344 343
316 316 319 319 318 319 322 321 321 322 322 323 323 321 321 322 322 328 336 339 341 354 350 348 348 344 345 349 345 345 343 347 346 345 348 347 345 342 348 345 345 342 341 342 342 343 342 341 341
317 317 317 319 320 320 321 322 322 323 322 322 322 323 321 321 327 331 335 335 335 353 351 348 340 337 337 349 349 345 346 348 348 347 349 349 348 347 348 347 346 346 347 344 343 343 342 337 338
317 318 319 319 320 321 320 321 321 323 322 321 321 322 322 321 321 323 325 328 326 343 352 346 341 340 339 348 351 346 350 349 349 348 349 349 347 348 345 343 346 345 346 348 345 343 343 341 342
320 318 319 320 320 321 321 321 320 322 322 321 322 321 322 322 321 320 321 321 323 342 353 349 340 338 337 345 352 348 351 350 351 350 347 347 348 350 348 347 345 344 343 347 347 344 343 343 343
319 318 318 319 320 321 321 321 319 321 321 320 320 321 322 322 321 321 320 320 322 346 348 352 342 330 342 345 349 350 349 353 350 348 349 349 348 349 350 349 345 344 345 344 342 340 341 341 340
320 321 319 319 319 321 321 320 320 319 320 321 321 321 322 322 321 322 321 320 322 340 351 352 353 349 349 351 348 348 349 353 352 351 350 350 350 349 348 347 343 342 342 341 343 342 340 339 338
319 320 320 320 320 319 319 320 320 320 320 321 322 322 322 322 321 322 322 322 322 346 352 353 354 350 353 352 349 349 351 350 352 351 350 349 348 347 346 346 343 340 342 343 343 340 338 337 331
314 316 320 320 321 321 320 321 321 321 321 320 321 322 322 322 322 322 322 322 329 346 349 351 353 352 352 352 353 352 352 350 349 348 349 348 347 348 346 344 343 343 340 339 338 338 336 335 329
312 314 315 319 319 319 321 323 321 322 321 321 319 321 322 323 322 322 321 323 330 348 351 350 347 348 348 350 351 350 350 349 349 348 348 348 343 343 344 343 341 339 339 338 339 332 328 330 333
314 313 313 316 318 320 320 322 322 323 322 321 321 322 323 322 323 323 322 326 342 347 346 338 334 341 342 346 351 348 351 347 347 348 347 343 341 341 338 341 340 339 338 339 338 337 336 334 332
316 314 313 317 319 320 319 322 321 321 322 322 322 323 323 322 322 324 324 336 349 348 346 347 341 345 348 349 349 350 347 346 347 348 345 342 340 340 339 339 339 338 338 337 336 335 335 335 334
317 316 313 324 326 320 320 323 321 322 321 323 323 324 323 323 323 324 327 336 347 350 350 346 347 349 350 350 349 348 345 347 347 345 344 343 341 340 338 339 338 336 336 336 335 333 333 332 333
318 319 315 320 322 321 319 320 322 322 325 330 325 323 322 323 323 325 329 333 347 351 347 343 349 348 346 346 347 346 344 344 345 345 344 343 340 337 336 335 334 334 334 333 331 330 329 329 328
318 316 315 315 323 325 319 320 320 321 332 337 334 323 322 323 324 324 328 337 348 347 343 347 348 346 344 344 347 345 344 345 344 344 343 340 334 330 329 329 329 328 328 327 325 324 321 320 319
318 319 316 315 322 322 320 319 319 320 335 338 337 331 326 331 341 343 346 347 347 344 346 345 344 344 341 341 345 343 341 342 341 339 335 332 330 329 328 326 324 322 321 319 317 315 314 313 313
317 320 316 319 322 323 325 326 329 332 334 336 337 339 341 342 341 340 343 343 342 343 344 344 344 340 341 341 341 339 338 337 334 331 328 326 323 320 316 314 313 312 312 311 311 312 313 313 313

GFSSGP_850_thetae_144.txt.gz
Theta_e
314 315 313 315 320 316 319 321 323 325 327 330 340 344 343 345 349 353 341 339 350 344 343 344 345 345 345 345 344 344 342 340 337 333 325 323 320 319 321 321 324 326 328 329 328 330 329 330 325
313 311 313 320 320 322 323 323 324 325 327 329 332 343 343 345 344 342 341 342 346 346 340 342 343 345 344 342 342 343 342 340 338 335 326 322 319 320 321 321 323 324 326 327 327 326 328 330 324
311 312 319 316 317 325 327 324 325 326 328 328 330 350 350 349 344 342 342 343 346 343 340 341 339 342 341 339 338 340 341 340 339 335 326 322 319 321 322 322 323 325 325 325 326 325 325 327 323
315 312 320 317 319 321 325 325 324 325 327 329 329 345 349 344 342 342 342 344 348 340 343 340 338 337 337 336 334 337 341 340 339 335 327 323 320 322 323 324 325 326 327 327 325 325 324 324 323
317 316 316 316 318 317 321 323 325 325 326 327 328 342 347 342 341 342 344 343 348 339 343 338 337 336 335 334 334 336 340 340 340 334 328 324 321 322 324 324 325 326 326 326 326 325 323 323 323
316 314 310 317 317 320 319 320 320 320 321 322 325 353 351 351 344 343 346 346 348 337 341 337 337 336 334 334 335 336 339 340 338 332 326 324 322 322 325 324 324 324 325 324 322 321 321 321 323
312 309 309 310 316 318 318 319 318 319 319 321 323 342 355 355 351 350 347 349 349 336 337 336 337 335 334 334 334 336 338 338 336 329 324 324 323 322 326 324 322 322 323 323 323 323 322 321 322
318 313 315 310 313 311 313 317 318 318 320 323 323 335 355 357 354 352 351 353 348 335 334 337 337 335 334 334 334 334 335 334 330 325 324 323 324 322 326 324 323 322 323 324 324 323 323 323 322
320 316 316 315 313 312 314 313 317 317 318 320 322 325 343 355 354 353 355 355 349 339 338 338 337 335 334 334 335 334 332 329 326 323 323 323 323 322 325 325 324 322 322 323 324 324 324 325 325
316 319 317 316 316 314 313 314 316 320 321 322 322 328 344 355 355 356 356 356 349 338 340 339 337 335 334 333 332 332 330 328 324 322 322 323 323 322 324 326 325 325 324 323 323 324 325 325 326
316 321 318 319 320 318 316 318 320 320 321 322 320 346 354 356 357 356 356 352 352 349 338 340 338 336 335 333 332 332 331 329 326 323 323 323 323 323 323 324 324 328 337 337 325 324 332 327 331
312 316 320 321 322 322 320 321 320 321 321 323 322 352 354 355 356 356 354 355 353 353 352 346 338 337 335 334 333 332 332 331 329 326 324 323 322 324 325 328 336 342 342 341 333 339 340 338 340
312 313 315 319 322 323 323 322 322 322 323 323 322 331 353 353 355 354 352 354 354 354 354 353 340 337 335 334 333 333 334 334 333 331 328 325 323 332 338 338 339 341 344 342 341 342 342 341 340
313 314 315 314 316 321 322 322 322 322 322 322 322 322 345 353 353 355 355 355 355 355 355 349 339 338 336 334 333 333 335 335 335 335 335 334 330 336 341 343 341 343 342 342 342 342 341 341 341
314 313 314 314 316 316 317 317 319 322 322 322 322 322 322 343 347 353 353 354 355 355 355 347 340 338 336 338 342 342 341 336 338 338 339 339 336 338 342 344 345 341 340 341 341 341 341 342 342
316 314 314 315 315 317 316 318 319 320 322 321 322 322 322 320 330 341 340 343 354 354 353 350 347 338 339 340 345 346 345 341 346 345 347 346 345 342 345 345 345 344 343 343 343 342 343 343 342
315 318 314 315 315 316 316 318 318 320 321 321 322 321 322 322 325 328 335 337 348 352 352 350 347 345 339 336 341 346 346 344 347 347 347 349 348 345 346 345 346 345 345 346 346 345 345 344 343
315 317 317 317 316 317 318 318 318 321 321 320 322 321 321 322 320 322 323 330 343 345 348 350 347 346 340 335 339 349 346 346 348 348 347 349 349 348 347 346 344 346 345 344 346 345 345 345 344
313 317 317 316 317 317 318 319 319 318 319 318 320 321 321 321 322 320 320 324 338 345 349 348 346 343 340 337 337 352 346 351 350 349 349 348 349 349 349 348 347 347 345 344 345 344 343 341 340
311 314 318 318 317 316 318 319 319 317 319 320 319 321 321 321 321 321 320 321 328 335 345 346 344 344 342 340 342 348 347 349 348 349 350 349 349 350 350 349 348 347 343 344 343 342 340 341 339
314 316 318 320 319 318 317 318 318 318 318 320 321 321 322 322 321 321 321 322 327 336 338 349 344 343 340 338 337 343 347 348 344 343 346 348 350 350 349 347 347 344 341 340 341 342 339 338 336
311 312 315 319 320 320 317 318 317 318 318 318 319 319 321 322 321 321 322 321 325 329 339 347 343 342 338 336 338 334 340 347 342 346 346 346 346 347 346 346 344 342 342 338 337 338 338 336 334
314 310 314 316 316 317 318 318 317 317 318 317 317 318 320 322 321 321 322 321 322 326 346 349 345 348 346 347 345 342 346 345 345 344 346 348 347 345 346 345 342 342 338 336 336 337 333 330 332
314 314 312 311 311 316 317 318 318 317 319 319 318 318 321 321 321 321 321 321 322 337 347 348 351 349 349 349 346 347 346 345 346 345 346 345 342 343 343 344 342 338 338 336 337 337 337 337 336
315 314 314 312 314 317 316 319 318 318 319 320 318 319 321 322 322 322 322 322 327 338 347 348 350 348 349 346 348 346 345 347 346 344 341 339 344 342 340 339 339 338 338 337 337 337 336 335 334
314 314 315 321 320 316 317 320 319 320 319 321 320 321 322 322 322 322 322 323 332 339 345 349 346 338 339 344 345 346 345 345 342 344 344 344 342 341 339 339 339 338 337 336 335 334 334 333 331
317 317 315 317 320 318 316 320 320 319 321 318 318 320 321 322 323 322 323 328 344 347 345 341 340 341 348 345 344 346 345 344 342 344 346 343 342 341 340 338 337 335 334 333 330 328 327 326 326
317 315 318 317 321 321 318 318 319 319 330 334 326 318 321 322 321 326 335 343 349 346 345 346 348 347 345 344 345 344 344 345 345 344 344 343 340 334 331 330 330 328 327 326 324 321 318 316 314
319 317 317 316 319 319 319 318 325 329 331 334 330 326 319 320 330 344 347 347 345 344 342 347 346 344 343 343 343 342 342 344 343 340 340 337 332 329 328 326 324 321 318 316 314 313 312 312 312
317 317 314 315 317 320 317 315 326 328 335 334 334 336 340 339 343 346 345 345 345 348 347 345 344 343 342 341 343 340 340 339 337 336 332 329 327 323 318 314 313 312 312 312 312 313 311 308 308